[[{"header":{"parameterUnit":"m.s-1","parameterCategory":1,"la1":31.0,"la2":29.5877,"lo1":-88.7671,"lo2":-86.6584,"dy":0.0162,"dx":0.0185,"nx":115,"ny":88,"refTime":"2023-11-04T06:00:00:Z","depth":0,"parameterNumber":2,"parameterNumberName":"U-component_of_WINDS"},"data":[0.0,0.0,0.0,0.0,0.0,0.0,0.0,0.0,0.0,0.0,0.0,0.0,0.0,0.0,0.0,0.0,0.0,0.0,0.0,0.0,0.0,0.0,0.0,0.0,0.0,0.0,0.0,0.0,0.0,0.0,0.0,0.0,0.0,0.0,0.0,0.0,0.0,0.0,0.0,0.0,0.0,0.0,0.0,0.0,0.0,0.0,0.0,0.0,0.0,0.0,0.0,0.0,0.0,0.0,0.0,0.0,0.0,0.0,0.0,0.0,0.0,0.0,0.0,0.0,0.0,0.0,0.0,0.0,0.0,0.0,0.0,0.0,0.0,0.0,0.0,0.0,0.0,0.0,0.0,0.0,0.0,0.0,0.0,0.0,0.0,0.0,0.0,0.0,0.0,0.0,0.0,0.0,0.0,0.0,0.0,0.0,0.0,0.0,0.0,0.0,0.0,0.0,0.0,0.0,0.0,0.0,0.0,0.0,0.0,0.0,0.0,0.0,0.0,0.0,0.0,0.0,0.0,0.0,0.0,0.0,0.0,0.0,0.0,0.0,0.0,0.0,0.0,0.0,0.0,0.0,0.0,0.0,0.0,0.0,0.0,0.0,0.0,0.0,0.0,0.0,0.0,0.0,0.0,0.0,0.0,0.0,0.0,0.0,0.0,0.0,0.0,0.0,0.0,0.0,0.0,0.0,0.0,0.0,0.0,0.0,0.0,0.0,0.0,0.0,0.0,0.0,0.0,0.0,0.0,0.0,0.0,0.0,0.0,0.0,0.0,0.0,0.0,0.0,0.0,0.0,0.0,0.0,0.0,0.0,0.0,0.0,0.0,0.0,0.0,0.0,0.0,0.0,0.0,0.0,0.0,0.0,0.0,0.0,0.0,0.0,0.0,0.0,0.0,0.0,0.0,0.0,0.0,0.0,0.0,0.0,0.0,0.0,0.0,0.0,0.0,0.0,0.0,0.0,0.0,0.0,0.0,0.0,0.0,0.0,0.0,0.0,0.0,0.0,0.0,0.0,0.0,0.0,0.0,0.0,0.0,0.0,0.0,0.0,0.0,0.0,0.0,0.0,0.0,0.0,0.0,0.0,0.0,0.0,0.0,0.0,0.0,0.0,0.0,0.0,0.0,0.0,0.0,0.0,0.0,0.0,0.0,0.0,0.0,0.0,0.0,0.0,0.0,0.0,0.0,0.0,0.0,0.0,0.0,0.0,0.0,0.0,0.0,0.0,0.0,0.0,0.0,0.0,0.0,0.0,0.0,0.0,0.0,0.0,0.0,0.0,0.0,0.0,0.0,0.0,0.0,0.0,0.0,0.0,0.0,0.0,0.0,0.0,0.0,0.0,0.0,0.0,0.0,0.0,0.0,0.0,0.0,0.0,0.0,0.0,0.0,0.0,0.0,0.0,0.0,0.0,0.0,0.0,0.0,0.0,0.0,0.0,0.0,0.0,0.0,0.0,0.0,0.0,0.0,0.0,0.0,0.0,0.0,0.0,0.0,0.0,0.0,0.0,0.0,0.0,0.0,0.0,0.0,0.0,0.0,0.0,0.0,0.0,0.0,0.0,0.0,0.0,0.0,0.0,0.0,0.0,0.0,0.0,0.0,0.0,0.0,0.0,0.0,0.0,0.0,0.0,0.0,0.0,0.0,0.0,0.0,0.0,0.0,0.0,0.0,0.0,0.0,0.0,0.0,0.0,0.0,0.0,0.0,0.0,0.0,0.0,0.0,0.0,0.0,0.0,0.0,0.0,0.0,0.0,0.0,0.0,0.0,0.0,0.0,0.0,0.0,0.0,0.0,0.0,0.0,0.0,0.0,0.0,0.0,0.0,0.0,0.0,0.0,0.0,0.0,0.0,0.0,0.0,0.0,0.0,0.0,0.0,0.0,0.0,0.0,0.0,0.0,0.0,0.0,0.0,0.0,0.0,0.0,0.0,0.0,0.0,0.0,0.0,0.0,0.0,0.0,0.0,0.0,0.0,0.0,0.0,0.0,0.0,0.0,0.0,0.0,0.0,0.0,0.0,0.0,0.0,0.0,0.0,0.0,0.0,0.0,0.0,0.0,0.0,0.0,0.0,0.0,0.0,0.0,0.0,0.0,0.0,0.0,0.0,0.0,0.0,0.0,0.0,0.0,0.0,0.0,0.0,0.0,0.0,0.0,0.0,0.0,0.0,0.0,0.0,0.0,0.0,0.0,0.0,0.0,0.0,0.0,0.0,0.0,0.0,0.0,0.0,0.0,0.0,0.0,0.0,0.0,0.0,0.0,0.0,0.0,0.0,0.0,0.0,0.0,0.0,0.0,0.0,0.0,0.0,0.0,0.0,0.0,0.0,0.0,0.0,0.0,0.0,0.0,0.0,0.0,0.0,0.0,0.0,0.0,0.0,0.0,0.0,0.0,0.0,0.0,0.0,0.0,0.0,0.0,0.0,0.0,0.0,0.0,0.0,0.0,0.0,0.0,0.0,0.0,0.0,0.0,0.0,0.0,0.0,0.0,0.0,0.0,0.0,0.0,0.0,0.0,0.0,0.0,0.0,0.0,0.0,0.0,0.0,0.0,0.0,0.0,0.0,0.0,0.0,0.0,0.0,0.0,0.0,0.0,0.0,0.0,0.0,0.0,0.0,0.0,0.0,0.0,0.0,0.0,0.0,0.0,0.0,0.0,0.0,0.0,0.0,0.0,0.0,0.0,0.0,0.0,0.0,0.0,0.0,0.0,0.0,0.0,0.0,0.0,0.0,0.0,0.0,0.0,0.0,0.0,0.0,0.0,0.0,0.0,0.0,0.0,0.0,0.0,0.0,0.0,0.0,0.0,0.0,0.0,0.0,0.0,0.0,0.0,0.0,0.0,0.0,0.0,0.0,0.0,0.0,0.0,0.0,0.0,0.0,0.0,0.0,0.0,0.0,0.0,0.0,0.0,0.0,0.0,0.0,0.0,0.0,0.0,0.0,0.0,0.0,0.0,0.0,0.0,0.0,0.0,0.0,0.0,0.0,0.0,0.0,0.0,0.0,0.0,0.0,0.0,0.0,0.0,0.0,0.0,0.0,0.0,0.0,0.0,0.0,0.0,0.0,0.0,0.0,0.0,0.0,0.0,0.0,0.0,0.0,0.0,0.0,0.0,0.0,0.0,0.0,0.0,0.0,0.0,0.0,0.0,0.0,0.0,0.0,0.0,0.0,0.0,0.0,0.0,0.0,0.0,0.0,0.0,0.0,0.0,0.0,0.0,0.0,0.0,0.0,0.0,0.0,0.0,0.0,0.0,0.0,0.0,0.0,0.0,0.0,0.0,0.0,0.0,0.0,0.0,0.0,0.0,0.0,0.0,0.0,0.0,0.0,0.0,0.0,0.0,0.0,0.0,0.0,0.0,0.0,0.0,0.0,0.0,0.0,0.0,0.0,0.0,0.0,0.0,0.0,0.0,0.0,0.0,0.0,0.0,0.0,0.0,0.0,0.0,0.0,0.0,0.0,0.0,0.0,0.0,0.0,0.0,0.0,0.0,0.0,0.0,0.0,0.0,0.0,0.0,0.0,0.0,0.0,0.0,0.0,0.0,0.0,0.0,0.0,0.0,0.0,0.0,0.0,0.0,0.0,0.0,0.0,0.0,0.0,0.0,0.0,0.0,0.0,0.0,0.0,0.0,0.0,0.0,0.0,0.0,0.0,0.0,0.0,0.0,0.0,0.0,0.0,0.0,0.0,0.0,0.0,0.0,0.0,0.0,0.0,0.0,0.0,0.0,0.0,0.0,0.0,0.0,0.0,0.0,0.0,0.0,0.0,0.0,0.0,0.0,0.0,0.0,0.0,0.0,0.0,0.0,0.0,0.0,0.0,0.0,0.0,0.0,0.0,0.0,0.0,0.0,0.0,0.0,0.0,0.0,0.0,0.0,0.0,0.0,0.0,0.0,0.0,0.0,0.0,0.0,0.0,0.0,0.0,0.0,0.0,0.0,0.0,0.0,0.0,0.0,0.0,0.0,0.0,0.0,0.0,0.0,0.0,0.0,0.0,0.0,0.0,0.0,0.0,0.0,0.0,0.0,0.0,0.0,0.0,0.0,0.0,0.0,0.0,0.0,0.0,0.0,0.0,0.0,0.0,0.0,0.0,0.0,0.0,0.0,0.0,0.0,0.0,0.0,0.0,0.0,0.0,0.0,0.0,0.0,0.0,0.0,0.0,0.0,0.0,0.0,0.0,0.0,0.0,0.0,0.0,0.0,0.0,0.0,0.0,0.0,0.0,0.0,0.0,0.0,0.0,0.0,0.0,0.7755,0.0,0.0,0.0,0.0,0.0,0.0,0.0,0.0,0.0,0.0,0.0,0.0,0.0,0.0,0.0,0.0,0.0,0.0,0.0,0.0,0.0,0.0,0.0,0.0,0.0,0.0,0.0,0.0,0.0,0.0,0.0,0.0,0.0,0.0,0.0,0.0,0.0,0.0,0.0,0.0,0.0,0.0,0.0,0.0,0.0,0.0,0.0,0.0,0.0,0.0,0.0,0.0,0.0,0.0,0.0,0.0,0.0,0.0,0.0,0.0,0.0,0.0,0.0,0.0,0.0,0.0,0.0,0.0,0.0,0.0,0.0,0.0,0.0,0.0,0.0,0.0,0.0,0.0,0.0,0.0,0.0,0.0,0.0,0.0,0.0,0.0,0.0,0.0,0.0,0.0,0.0,0.0,0.0,0.0,0.0,0.0,0.0,0.0,0.0,0.0,0.0,0.0,0.0,0.0,0.0,0.0,0.0,0.0,0.0,0.0,0.8586,0.9091,0.8075,0.7648,0.7864,0.0,0.0,0.0,0.0,0.0,0.0,0.0,0.0,0.0,0.0,0.0,0.0,0.0,0.0,0.0,0.0,0.0,0.0,0.0,0.0,0.0,0.0,0.0,0.0,0.0,0.0,0.0,0.0,0.0,0.0,0.0,0.0,0.0,0.0,0.0,0.0,0.0,0.0,0.0,0.0,0.0,0.0,0.0,0.0,0.0,0.0,0.0,0.0,0.0,0.0,0.0,0.0,0.0,0.0,0.0,0.0,0.0,0.0,0.0,0.0,0.0,0.0,0.0,0.0,0.0,0.0,0.0,0.0,0.0,0.0,0.0,0.0,0.0,0.0,0.0,0.0,0.0,0.0,0.0,0.0,0.0,0.0,0.0,0.0,0.0,0.0,0.0,0.0,0.0,0.0,0.0,0.0,0.0,0.0,0.0,0.0,0.0,0.0,0.0,0.0,0.0,0.0,0.0,0.0,0.0,0.0,0.0,0.0,0.0,0.0,0.0,0.0,0.8934,0.8447,0.8441,0.0,0.0,0.0,0.0,0.0,0.0,0.0,0.0,0.0,0.0,0.0,0.0,0.0,0.0,0.0,0.0,0.0,0.0,0.0,0.0,0.0,0.0,0.0,0.0,0.0,0.0,0.0,0.0,0.0,0.0,0.0,0.0,0.0,0.0,0.0,0.0,0.0,0.0,0.0,0.0,0.0,0.0,0.0,0.0,0.0,0.0,0.0,0.0,0.0,0.0,0.0,0.0,0.0,0.0,0.0,0.0,0.0,0.0,0.0,0.0,0.0,0.0,0.0,0.0,0.0,0.0,0.0,0.0,0.0,0.0,0.0,0.0,0.0,0.0,0.0,0.0,0.0,0.0,0.0,0.0,0.0,0.0,0.0,0.0,0.0,0.0,0.0,0.0,0.0,0.0,0.0,0.0,0.0,0.0,0.0,0.0,0.0,0.0,0.0,0.0,0.0,0.0,0.0,0.0,0.0,0.0,0.0,0.0,0.0,0.0,0.8928,1.087,1.0365,0.0,1.0118,0.0,0.0,0.0,0.0,0.0,0.0,0.0,0.0,0.0,0.0,0.0,0.0,0.0,0.0,0.0,0.0,0.0,0.0,0.0,0.0,0.0,0.0,0.0,0.0,0.0,0.0,0.0,0.0,0.0,0.0,0.0,0.0,0.0,0.0,0.0,0.0,0.0,0.0,0.0,0.0,0.0,0.0,0.0,0.0,0.0,0.0,0.0,0.0,0.0,0.0,0.0,0.0,0.0,0.0,0.0,0.0,0.0,0.0,0.0,0.0,0.0,0.0,0.0,0.0,0.0,0.0,0.0,0.0,0.0,0.0,0.0,0.0,0.0,0.0,0.0,0.0,0.0,0.0,0.0,0.0,0.0,0.0,0.0,0.0,0.0,0.0,0.0,0.0,0.0,0.0,0.0,0.0,0.0,0.0,0.0,0.0,0.0,0.0,0.0,0.0,0.0,0.0,0.0,0.0,0.0,0.0,0.0,0.0,0.0,0.0,0.9421,1.0606,1.0118,0.9966,0.0,0.0,0.0,0.0,0.0,0.0,0.0,0.0,0.0,0.0,0.0,0.0,0.0,0.0,0.0,0.0,0.0,0.0,0.0,0.0,0.0,0.0,0.0,0.0,0.0,0.0,0.0,0.0,0.0,0.0,0.0,0.0,0.0,0.0,0.0,0.0,0.0,0.0,0.0,0.0,0.0,0.0,0.0,0.0,0.0,0.0,0.0,0.0,0.0,0.0,0.0,0.0,0.0,0.0,0.0,0.0,0.0,0.0,0.0,0.0,0.0,0.0,0.0,0.0,0.0,0.0,0.0,0.0,0.0,0.0,0.0,0.0,0.0,0.0,0.0,0.0,0.0,0.0,0.0,0.0,0.0,0.0,0.0,0.0,0.0,0.0,0.0,0.0,0.0,0.0,0.0,0.0,0.0,0.0,0.0,0.0,0.0,0.0,0.0,0.0,0.0,0.0,0.0,0.0,0.0,0.0,0.0,0.0,0.0,0.0,0.9246,0.996,1.0894,1.0582,1.0358,1.0279,0.0,0.0,0.0,0.0,0.0,0.0,0.0,0.0,0.0,0.0,0.0,0.0,0.0,0.0,0.0,0.0,0.0,0.0,0.0,0.0,0.0,0.0,0.0,0.0,0.0,0.0,0.0,0.0,0.0,0.0,0.0,0.0,0.0,0.0,0.0,0.0,0.0,0.0,0.0,0.0,0.0,0.0,0.0,0.0,0.0,0.0,0.0,0.0,0.0,0.0,0.0,0.0,0.0,0.0,0.0,0.0,0.0,0.0,0.0,0.0,0.0,0.0,0.0,0.0,0.0,0.0,0.0,0.0,0.0,0.0,0.0,0.0,0.0,0.0,0.0,0.0,0.0,0.0,0.0,0.0,0.0,0.0,0.0,0.0,0.0,0.0,0.0,0.0,0.0,0.0,0.0,0.0,0.0,0.0,0.0,0.0,0.0,0.0,0.0,0.0,0.0,0.0,0.0,0.0,0.0,0.0,0.0,0.0,1.0718,0.9966,1.0485,1.2508,1.2547,1.1849,0.0,0.0,0.0,0.0,0.0,0.0,0.0,0.0,0.0,0.0,0.0,0.0,0.0,0.0,0.0,0.0,0.0,0.0,0.0,0.0,0.0,0.0,0.0,0.0,0.0,0.0,0.0,0.0,0.0,0.0,0.0,0.0,0.0,0.0,0.0,0.0,0.0,0.0,0.0,0.0,0.0,0.0,0.0,0.0,0.0,0.0,0.0,0.0,0.0,0.0,0.0,0.0,0.0,0.0,0.0,0.0,0.0,0.0,0.0,0.0,0.0,0.0,0.0,0.0,0.0,0.0,0.0,0.0,0.0,0.0,0.0,0.0,0.0,0.0,0.0,0.0,0.0,0.0,0.0,0.0,0.0,0.0,0.0,0.0,0.0,0.0,0.0,0.0,0.0,0.0,0.0,0.0,0.0,0.0,0.0,0.0,0.0,0.0,0.0,0.0,0.0,0.0,0.0,0.0,0.0,0.0,0.0,0.0,0.0,0.8016,0.8976,1.0846,1.3515,1.1752,1.0863,0.0,0.0,0.0,0.0,0.0,0.0,0.0,0.0,0.0,0.0,0.0,0.0,0.0,0.0,0.0,0.0,0.0,0.0,0.0,0.0,0.0,0.0,0.0,0.0,0.0,0.0,0.0,0.0,0.0,0.0,0.0,0.0,0.0,0.0,0.0,0.0,0.0,0.0,0.0,0.0,0.0,0.0,0.0,0.0,0.0,0.0,0.0,0.0,0.0,0.0,0.0,0.0,0.0,0.0,0.0,0.0,0.0,0.0,0.0,0.0,0.0,0.0,0.0,0.0,0.0,0.0,0.0,0.0,0.0,0.0,0.0,0.0,0.0,0.0,0.0,0.0,0.0,0.0,0.0,0.0,0.0,0.0,0.0,0.0,0.0,0.0,0.0,0.0,0.0,0.0,0.0,0.0,0.0,0.0,0.0,0.0,0.0,0.0,0.0,0.0,0.0,0.0,0.0,0.0,0.0,0.0,0.0,0.0,0.0,0.7883,0.0,1.1953,1.3587,1.168,1.0558,0.0,0.0,0.0,0.0,0.0,0.0,0.0,0.0,0.0,0.0,0.0,0.0,0.0,0.0,0.0,0.0,0.0,0.0,0.0,0.0,0.0,0.0,0.0,0.0,0.0,0.0,0.0,0.0,0.0,0.0,0.0,0.0,0.0,0.0,0.0,0.0,0.0,0.0,0.0,0.0,0.0,0.0,0.0,0.0,0.0,0.0,0.0,0.0,0.0,0.0,0.0,0.0,0.0,0.0,0.0,0.0,0.0,0.0,0.0,0.0,0.0,0.0,0.0,0.0,0.0,0.0,0.0,0.0,0.0,0.0,0.0,0.0,0.0,0.0,0.0,0.0,0.0,0.0,0.0,0.0,0.0,0.0,0.0,0.0,0.0,0.0,0.0,0.0,0.0,0.0,0.0,0.0,0.0,0.0,0.0,0.0,0.0,0.0,0.0,0.0,0.0,0.0,0.0,0.0,0.0,0.0,0.0,0.0,0.7936,1.0942,1.3038,1.3664,1.2806,1.2652,1.1182,0.0,0.0,0.0,0.0,0.0,0.0,0.0,0.0,0.0,0.0,0.0,0.0,0.0,0.0,0.0,0.0,0.0,0.0,0.0,0.0,0.0,0.0,0.0,0.0,0.0,0.0,0.0,0.0,0.0,0.0,0.0,0.0,0.0,0.0,0.0,0.0,0.0,0.0,0.0,0.0,0.0,0.0,0.0,0.0,0.0,0.0,0.0,0.0,0.0,0.0,0.0,0.0,0.0,0.0,0.0,0.0,0.0,0.0,0.0,0.0,0.0,0.0,0.0,0.0,0.0,0.0,0.0,0.0,0.0,0.0,0.0,0.0,0.0,0.0,0.0,0.0,0.0,0.0,0.0,0.0,0.0,0.0,0.0,0.0,0.0,0.0,0.0,0.0,0.0,0.0,0.0,0.0,0.0,0.0,0.0,0.0,0.0,0.0,0.0,0.0,0.0,0.0,0.0,0.0,0.0,0.0,0.0,0.0,0.0,1.0574,1.2291,1.3737,1.4698,1.2722,1.1656,0.0,0.0,0.0,0.0,0.0,0.0,0.0,0.0,0.0,0.0,0.0,0.0,0.0,0.0,0.0,0.0,0.0,0.0,0.0,0.0,0.0,0.0,0.0,0.0,0.0,0.0,0.0,0.0,0.0,0.0,0.0,0.0,0.0,0.0,0.0,0.0,0.0,0.0,0.0,0.0,0.0,0.0,0.0,0.0,0.0,0.0,0.0,0.0,0.0,0.0,0.0,0.0,0.0,0.0,0.0,0.0,0.0,0.0,0.0,0.0,0.0,0.0,0.0,0.0,0.0,0.0,0.0,0.0,0.0,0.0,0.0,0.0,0.0,0.0,0.0,0.0,0.0,0.0,0.0,0.0,0.0,0.0,0.0,0.0,0.0,0.0,0.0,0.0,0.0,0.0,0.0,0.0,0.0,0.0,0.0,0.0,0.0,0.0,0.0,0.0,0.0,0.0,0.0,0.0,0.0,0.0,0.0,0.0,0.0,1.2737,1.4021,1.5079,1.5791,1.3871,1.2761,1.2556,0.0,0.0,0.0,0.0,0.0,0.0,0.0,0.0,0.0,0.0,0.0,0.0,0.0,0.0,0.0,0.0,0.0,0.0,0.0,0.0,0.0,0.0,0.0,0.0,0.0,0.0,0.0,0.0,0.0,0.0,0.0,0.0,0.0,0.0,0.0,0.0,0.0,0.0,0.0,0.0,0.0,0.0,0.0,0.0,0.0,0.0,0.0,0.0,0.0,0.0,0.0,0.0,0.0,0.0,0.0,0.0,0.0,0.0,0.0,0.0,0.0,0.0,0.0,0.0,0.0,0.0,0.0,0.0,0.0,0.0,0.0,0.0,0.0,0.0,0.0,0.0,0.0,0.0,0.0,0.0,0.0,0.0,0.0,0.0,0.0,0.0,0.0,0.0,0.0,0.0,0.0,0.0,0.0,0.0,0.0,0.0,0.0,0.0,0.0,0.0,0.0,0.0,0.0,0.0,0.0,0.0,0.0,0.0,1.6739,1.7893,1.7736,1.6235,1.5983,1.4471,0.0,0.0,0.0,0.0,0.0,0.0,0.0,0.0,0.0,0.0,0.0,0.0,0.0,0.0,0.0,0.0,0.0,0.0,0.0,0.0,0.0,0.0,0.0,0.0,0.0,0.0,0.0,0.0,0.0,0.0,0.0,0.0,0.0,0.0,0.0,0.0,0.0,0.0,0.0,0.0,0.0,0.0,0.0,0.0,0.0,0.0,0.0,0.0,0.0,0.0,0.0,0.0,0.0,0.0,0.0,0.0,0.0,0.0,0.0,0.0,0.0,0.0,0.0,0.0,0.0,0.0,0.0,0.0,0.0,0.0,0.0,0.0,0.0,0.0,0.0,0.0,0.0,0.0,0.0,0.0,0.0,0.0,0.0,0.0,0.0,0.0,0.0,0.0,0.0,0.0,0.0,0.0,0.0,0.0,0.0,0.0,0.0,0.0,0.0,0.0,0.0,0.0,0.0,0.0,0.0,0.0,0.0,0.0,0.0,1.894,2.0793,2.1163,1.9947,1.8024,1.6403,0.0,0.0,0.0,0.0,0.0,0.0,0.0,0.0,0.0,0.0,0.0,0.0,0.0,0.0,0.0,0.0,0.0,0.0,0.0,0.0,0.0,0.0,0.0,0.0,0.0,0.0,0.0,0.0,0.0,0.0,0.0,0.0,0.0,0.0,0.0,0.0,0.0,0.0,0.0,0.0,0.0,0.0,0.0,0.0,0.0,0.0,0.0,0.0,0.0,0.0,0.0,0.0,0.0,0.0,0.0,0.0,0.0,0.0,0.0,0.0,0.0,0.0,0.0,0.0,0.0,0.0,0.0,0.0,0.0,0.0,0.0,0.0,0.0,0.0,0.0,0.0,0.0,0.0,0.0,0.0,0.0,0.0,0.0,0.0,0.0,0.0,0.0,0.0,0.0,0.0,0.0,0.0,0.0,0.0,0.0,0.0,0.0,0.0,0.0,0.0,0.0,0.0,0.0,0.0,0.0,0.0,0.0,0.0,1.8529,2.1106,2.3007,2.3761,2.3376,2.1043,1.8855,0.0,0.0,0.0,0.0,0.0,0.0,0.0,0.0,0.0,0.0,0.0,0.0,0.0,0.0,0.0,0.0,0.0,0.0,0.0,0.0,0.0,0.0,0.0,0.0,0.0,0.0,0.0,0.0,0.0,0.0,0.0,0.0,0.0,0.0,0.0,0.0,0.0,0.0,0.0,0.0,0.0,0.0,0.0,0.0,0.0,0.0,0.0,0.0,0.0,0.0,0.0,0.0,0.0,0.0,0.0,0.0,0.0,0.0,0.0,0.0,0.0,0.0,0.0,0.0,0.0,0.0,0.0,0.0,0.0,0.0,0.0,0.0,0.0,0.0,0.0,0.0,0.0,0.0,0.0,0.0,0.0,0.0,0.0,0.0,0.0,0.0,0.0,0.0,0.0,0.0,0.0,0.0,0.0,0.0,0.0,0.0,0.0,0.0,0.0,0.0,0.0,0.0,0.0,0.0,0.0,0.0,0.0,0.0,2.0033,2.3103,2.4675,2.5691,2.6093,2.403,2.1233,0.0,0.0,0.0,0.0,0.0,0.0,0.0,0.0,0.0,0.0,0.0,0.0,0.0,0.0,0.0,0.0,0.0,0.0,0.0,0.0,0.0,0.0,0.0,0.0,0.0,0.0,0.0,0.0,0.0,0.0,0.0,0.0,0.0,0.0,0.0,0.0,0.0,0.0,0.0,0.0,0.0,0.0,0.0,0.0,0.0,0.0,0.0,0.0,0.0,0.0,0.0,0.0,0.0,0.0,0.0,0.0,0.0,0.0,0.0,0.0,0.0,0.0,0.0,0.0,0.0,0.0,0.0,0.0,0.0,0.0,0.0,0.0,0.0,0.0,0.0,0.0,0.0,0.0,0.0,0.0,0.0,0.0,0.0,0.0,0.0,0.0,0.0,0.0,0.0,0.0,0.0,0.0,0.0,0.0,0.0,0.0,0.0,0.0,0.0,0.0,0.0,0.0,0.0,0.0,0.0,0.0,0.0,0.0,2.1861,2.4129,2.5739,2.6628,2.6724,2.3737,2.1082,0.0,0.0,0.0,0.0,0.0,0.0,0.0,0.0,0.0,0.0,0.0,0.0,0.0,0.0,0.0,0.0,0.0,0.0,0.0,0.0,0.0,0.0,0.0,0.0,0.0,0.0,0.0,0.0,0.0,0.0,0.0,0.0,0.0,0.0,0.0,0.0,0.0,0.0,0.0,0.0,0.0,0.0,0.0,0.0,0.0,0.0,0.0,0.0,1.4173,0.0,0.0,0.0,0.0,0.0,0.0,0.0,0.0,0.0,0.0,0.0,0.0,0.0,0.0,0.0,0.0,0.0,0.0,0.0,0.0,0.0,0.0,0.0,0.0,0.0,0.0,0.0,0.0,0.0,0.0,0.0,0.0,0.0,0.0,0.0,0.0,0.0,0.0,0.0,0.0,0.0,0.0,0.0,0.0,0.0,0.0,0.0,0.0,0.0,0.0,0.0,0.0,0.0,0.0,0.0,0.0,0.0,0.0,0.0,2.3159,2.5186,2.658,2.7378,2.7527,2.4875,2.2399,0.0,0.0,0.0,0.0,0.0,0.0,0.0,0.0,0.0,0.0,0.0,0.0,0.0,0.0,0.0,0.0,0.0,0.0,0.0,0.0,0.0,0.0,0.0,0.0,0.0,0.0,0.0,0.0,0.0,0.0,0.0,0.0,0.0,0.0,0.0,0.0,0.0,0.0,0.0,0.0,0.0,0.0,0.0,0.0,0.0,0.0,0.0,0.0,0.0,0.0,0.0,0.0,0.0,0.0,0.0,0.0,0.0,0.0,0.0,0.0,0.0,0.0,0.0,0.0,0.0,0.0,0.0,0.0,0.0,0.0,0.0,0.0,0.0,0.0,0.0,0.0,0.0,0.0,0.0,0.0,0.0,0.0,0.0,0.0,0.0,0.0,0.0,0.0,0.0,0.0,0.0,0.0,0.0,0.0,0.0,0.0,0.0,0.0,0.0,0.0,0.0,0.0,0.0,0.0,0.0,0.0,0.0,2.1347,2.4025,2.6166,2.7277,2.8046,2.8454,2.6457,2.4114,2.1508,0.0,0.0,0.0,0.0,0.0,0.0,0.0,0.0,0.0,0.0,0.0,0.0,0.0,0.0,0.0,0.0,0.0,0.0,0.0,0.0,0.0,0.0,0.0,0.0,0.0,0.0,0.0,0.0,0.0,0.0,0.0,0.0,0.0,0.0,0.0,0.0,0.0,0.0,1.3232,1.5316,0.0,0.0,0.0,0.0,0.0,0.0,0.0,0.0,1.5836,0.0,0.0,0.0,0.0,0.0,0.0,0.0,0.0,0.0,0.0,0.0,0.0,0.0,0.0,0.0,0.0,0.0,0.0,0.0,0.0,0.0,0.0,0.0,0.0,0.0,0.0,0.0,0.0,0.0,0.0,0.0,0.0,0.0,0.0,0.0,0.0,0.0,0.0,0.0,0.0,0.0,0.0,0.0,0.0,0.0,0.0,0.0,0.0,0.0,0.0,0.0,0.0,0.0,0.0,0.0,0.0,2.1332,2.2454,2.4218,2.6705,2.7806,2.8406,2.8454,2.7277,2.4957,2.151,0.0,0.0,0.0,0.0,0.0,0.0,0.0,0.0,0.0,0.0,0.0,0.0,0.0,0.0,0.0,0.0,0.0,0.0,0.0,0.0,0.0,0.0,0.0,0.0,0.0,0.0,0.0,0.0,0.0,0.0,0.0,0.0,0.0,0.0,0.0,0.0,0.0,0.0,0.0,1.8201,1.9031,0.0,0.0,0.0,0.0,0.0,0.0,0.0,0.0,1.5979,0.0,0.0,0.0,0.0,0.0,0.0,0.0,0.0,0.0,0.0,0.0,0.0,0.0,0.0,0.0,0.0,0.0,0.0,0.0,0.0,0.0,0.0,0.0,0.0,0.0,0.0,0.0,0.0,0.0,0.0,0.0,0.0,0.0,0.0,0.0,0.0,0.0,0.0,0.0,0.0,0.0,0.0,0.0,0.0,0.0,0.0,0.0,0.0,0.0,0.0,0.0,0.0,0.0,0.0,0.0,2.0817,2.3103,2.4849,2.6202,2.7277,2.7592,2.7075,2.5497,2.3407,0.0,0.0,0.0,0.0,0.0,0.0,0.0,0.0,0.0,0.0,0.0,0.0,0.0,0.0,0.0,0.0,0.0,0.0,0.0,0.0,0.0,0.0,0.0,0.0,0.0,0.0,0.0,0.0,0.0,0.0,0.0,0.0,0.0,0.0,0.0,0.0,0.0,0.0,0.0,0.0,1.9373,1.9896,2.0261,0.0,0.0,0.0,0.0,0.0,0.0,1.74,1.6722,0.0,0.0,0.0,0.0,0.0,0.0,0.0,0.0,0.0,0.0,0.0,0.0,0.0,0.0,0.0,0.0,0.0,0.0,0.0,0.0,0.0,0.0,0.0,0.0,0.0,0.0,0.0,0.0,0.0,0.0,0.0,0.0,0.0,0.0,0.0,0.0,0.0,0.0,0.0,0.0,0.0,0.0,0.0,0.0,0.0,0.0,0.0,0.0,0.0,0.0,0.0,0.0,0.0,0.0,0.0,1.9842,2.3161,2.5086,2.5474,2.6421,2.6567,2.5797,2.3881,2.1954,0.0,0.0,0.0,0.0,0.0,0.0,0.0,0.0,0.0,0.0,0.0,0.0,0.0,0.0,0.0,0.0,0.0,0.0,0.0,0.0,0.0,0.0,0.0,0.0,0.0,0.0,0.0,0.0,0.0,0.0,0.0,0.0,0.0,0.0,0.0,0.0,0.0,0.0,0.0,0.0,0.0,2.0765,2.0862,2.0228,0.0,0.0,0.0,0.0,1.9968,1.9325,0.0,0.0,0.0,0.0,0.0,0.0,0.0,0.0,0.0,0.0,0.0,0.0,0.0,0.0,0.0,0.0,0.0,0.0,0.0,0.0,0.0,0.0,0.0,0.0,0.0,0.0,0.0,0.0,0.0,0.0,0.0,0.0,0.0,0.0,0.0,0.0,0.0,0.0,0.0,0.0,0.0,0.0,0.0,0.0,0.0,0.0,0.0,0.0,0.0,0.0,0.0,0.0,0.0,0.0,0.0,0.0,1.9932,2.2256,2.3961,2.5046,2.566,2.5902,2.5798,2.4749,2.2666,0.0,0.0,0.0,0.0,0.0,0.0,0.0,0.0,0.0,0.0,0.0,0.0,0.0,0.0,0.0,0.0,0.0,0.0,0.0,0.0,0.0,0.0,0.0,0.0,0.0,0.0,0.0,0.0,0.0,0.0,0.0,0.0,0.0,0.0,0.0,0.0,0.0,0.0,0.0,0.0,0.0,2.2424,2.1315,2.1614,2.1977,0.0,0.0,2.184,2.374,2.3506,0.0,0.0,0.0,0.0,0.0,0.0,0.0,0.0,0.0,0.0,0.0,0.0,0.0,0.0,0.0,0.0,0.0,0.0,0.0,0.0,0.0,0.0,0.0,0.0,0.0,0.0,0.0,0.0,0.0,0.0,0.0,0.0,0.0,0.0,0.0,0.0,0.0,0.0,0.0,0.0,0.0,0.0,0.0,0.0,0.0,0.0,0.0,0.0,0.0,0.0,0.0,0.0,0.0,0.0,0.0,1.6644,1.9914,2.2273,2.3681,2.4259,2.4808,2.4808,2.4275,2.2486,2.0585,0.0,0.0,0.0,0.0,0.0,0.0,0.0,0.0,0.0,0.0,0.0,0.0,0.0,0.0,0.0,0.0,0.0,0.0,0.0,0.0,0.0,0.0,0.0,0.0,0.0,0.0,0.0,0.0,0.0,0.0,0.0,0.0,0.0,0.0,0.0,0.0,0.0,0.0,0.0,0.0,0.0,0.0,2.3044,2.345,0.0,0.0,0.0,2.3806,2.4881,0.0,0.0,0.0,0.0,0.0,0.0,0.0,0.0,0.0,0.0,0.0,0.0,0.0,0.0,0.0,0.0,0.0,0.0,0.0,0.0,0.0,0.0,0.0,0.0,0.0,0.0,0.0,0.0,0.0,0.0,0.0,0.0,0.0,0.0,0.0,0.0,0.0,0.0,0.0,0.0,0.0,0.0,0.0,0.0,0.0,0.0,0.0,0.0,0.0,0.0,0.0,0.0,0.0,0.0,0.0,0.0,0.0,1.9506,2.2081,2.336,2.3403,2.3832,2.3756,2.3018,2.0917,0.0,0.0,0.0,0.0,0.0,0.0,0.0,0.0,0.0,0.0,0.0,0.0,0.0,0.0,0.0,0.0,0.0,0.0,0.0,0.0,0.0,0.0,0.0,0.0,0.0,0.0,0.0,0.8379,0.0,0.0,0.0,0.0,0.0,0.0,0.0,0.0,0.0,0.0,0.0,0.0,0.0,0.0,2.3474,2.4606,2.5302,2.5707,0.0,0.0,2.5852,2.6232,2.6093,2.509,0.0,0.0,0.0,0.0,0.0,0.0,0.0,0.0,0.0,0.0,0.0,0.0,0.0,0.0,0.0,0.0,0.0,0.0,0.0,0.0,0.0,0.0,0.0,0.0,0.0,0.0,0.0,0.0,0.0,0.0,0.0,0.0,0.0,0.0,0.0,0.0,0.0,0.0,0.0,0.0,0.0,0.0,0.0,0.0,0.0,0.0,0.0,0.0,0.0,0.0,0.0,0.0,0.0,0.0,1.6588,1.8348,2.1256,2.2668,2.25,2.2753,2.2882,2.2796,2.1672,2.0098,0.0,0.0,0.0,0.0,0.0,0.0,0.0,0.0,0.0,0.0,0.0,0.0,0.0,0.0,0.0,0.0,0.0,0.0,0.0,0.0,0.0,0.0,0.0,0.0,0.0,0.0,0.0,0.0,0.0,0.0,0.0,0.0,0.0,0.0,0.0,0.0,0.0,0.0,0.0,0.0,0.0,2.4832,2.5362,2.7059,2.8446,0.0,2.857,2.8446,2.8955,2.9409,2.8205,2.3681,0.0,0.0,0.0,0.0,0.0,0.0,0.0,0.0,0.0,0.0,0.0,0.0,0.0,0.0,0.0,0.0,0.0,0.0,0.0,0.0,0.0,0.0,0.0,0.0,0.0,0.0,0.0,0.0,0.0,0.0,0.0,0.0,0.0,0.0,0.0,0.0,0.0,0.0,0.0,0.0,0.0,0.0,0.0,0.0,0.0,0.0,0.0,0.0,0.0,0.0,0.0,0.0,0.0,1.6018,1.8307,2.0605,2.1992,2.2362,2.2508,2.264,2.2794,2.1644,2.0198,0.0,0.0,0.0,0.0,0.0,0.0,0.0,0.0,0.0,0.0,0.0,0.0,0.0,0.0,0.0,0.0,0.0,0.0,0.0,0.0,0.0,0.0,0.0,0.0,0.0,0.0,0.0,0.0,1.315,1.372,1.4161,0.0,0.0,0.0,0.0,0.0,0.0,0.0,0.0,0.0,0.0,2.7104,2.8168,2.9366,0.0,0.0,2.9946,2.9822,3.0227,2.934,2.7777,2.5317,2.3585,0.0,0.0,0.0,0.0,0.0,0.0,0.0,0.0,0.0,0.0,0.0,0.0,0.0,0.0,0.0,0.0,0.0,0.0,0.0,0.0,0.0,0.0,0.0,0.0,0.0,0.0,0.0,0.0,0.0,0.0,0.0,0.0,0.0,0.0,0.0,0.0,0.0,0.0,0.0,0.0,0.0,0.0,0.0,0.0,0.0,0.0,0.0,0.0,0.0,0.0,0.0,0.0,1.5494,1.7935,2.0002,2.1462,2.2179,2.2331,2.2485,2.2665,2.1718,2.0507,0.0,0.0,0.0,0.0,0.0,0.0,0.0,0.0,0.0,0.0,0.0,0.0,0.0,0.0,0.0,0.0,0.0,0.0,0.0,0.0,0.0,0.0,0.0,0.0,0.0,0.0,0.0,0.0,1.4377,1.4567,1.4182,0.0,0.0,0.0,0.0,0.0,0.0,0.0,0.0,0.0,0.0,2.8883,3.0368,3.1153,3.1487,3.1187,3.0791,3.0568,3.0657,2.9409,2.7897,2.6376,0.0,0.0,0.0,0.0,0.0,0.0,0.0,0.0,0.0,0.0,0.0,0.0,0.0,0.0,0.0,0.0,0.0,0.0,0.0,0.0,0.0,0.0,0.0,0.0,0.0,0.0,0.0,0.0,0.0,0.0,0.9538,0.0,0.0,0.0,0.0,0.0,0.0,0.0,0.0,0.0,0.0,0.0,0.0,0.0,0.0,0.0,0.0,0.0,0.0,0.0,0.0,0.0,0.0,1.5199,1.696,1.951,2.1099,2.1713,2.2154,2.2397,2.2422,2.2049,2.123,1.9864,0.0,0.0,0.0,0.0,0.0,0.0,0.0,0.0,0.0,0.0,0.0,0.0,0.0,0.0,0.0,0.0,0.0,0.0,0.0,0.0,0.0,0.0,0.0,0.0,0.0,0.0,1.4396,1.4868,1.473,0.0,0.0,0.0,0.0,0.0,0.0,0.0,0.0,0.0,0.0,2.8258,2.9845,3.1452,3.2128,3.2297,3.1767,3.1259,3.0732,3.0299,3.0083,2.9148,0.0,0.0,0.0,0.0,0.0,0.0,0.0,0.0,0.0,0.0,0.0,0.0,0.0,0.0,0.0,0.0,0.0,0.0,0.0,0.0,0.0,0.0,0.0,0.0,0.0,0.0,0.0,1.2808,1.2297,0.0,0.0,0.0,0.0,0.0,0.0,0.0,0.0,0.0,0.0,0.0,1.7482,1.7641,0.0,0.0,0.0,0.0,0.0,0.0,0.0,0.0,0.0,0.0,0.0,0.0,1.5954,1.7472,1.9778,2.1206,2.1668,2.1865,2.2021,2.2176,2.1782,2.0723,1.8887,0.0,0.0,0.0,0.0,0.0,0.0,0.0,0.0,0.0,0.0,0.0,0.0,0.0,0.0,0.0,0.0,0.0,0.0,0.0,0.0,0.0,0.0,0.0,0.0,0.0,1.5295,0.0,0.0,0.0,0.0,0.0,0.0,0.0,0.0,0.0,0.0,0.0,2.5162,2.7637,2.9965,3.1625,3.2154,3.2948,3.3309,0.0,0.0,0.0,0.0,0.0,0.0,0.0,0.0,0.0,0.0,0.0,0.0,0.0,0.0,2.8599,2.3183,2.19,2.1659,2.1659,0.0,0.0,0.0,0.0,0.0,0.0,0.0,0.0,0.0,0.0,0.0,0.0,0.0,0.0,1.5342,0.0,1.4429,0.0,0.0,0.0,0.0,0.0,0.0,0.0,0.0,1.7559,1.8695,1.9698,1.9851,1.9487,0.0,1.8336,1.6491,0.0,0.0,0.0,0.0,0.0,0.0,0.0,0.0,1.6482,1.8046,2.0067,2.1288,2.1691,2.1794,2.1909,2.2087,2.1826,2.0906,1.9256,1.8044,1.6738,0.0,0.0,0.0,0.0,0.0,0.0,0.0,0.0,0.0,0.0,0.0,0.0,0.0,0.0,0.0,0.0,0.0,0.0,0.0,0.0,0.0,0.0,0.0,1.6271,0.0,0.0,0.0,0.0,0.0,0.0,0.0,0.0,0.0,2.2478,2.5228,2.7993,3.0137,3.1793,3.2899,3.3237,0.0,0.0,0.0,0.0,0.0,0.0,0.0,3.124,3.2128,3.1096,3.0329,3.0831,3.2227,3.2947,3.1887,0.0,0.0,2.7229,2.5997,2.5799,2.5991,2.6689,2.72,2.7031,2.7849,2.8715,0.0,0.0,0.0,0.0,0.0,0.0,0.0,0.0,1.775,1.7731,0.0,1.703,0.0,0.0,0.0,0.0,0.0,1.653,0.0,0.0,2.0713,2.166,2.1522,2.2077,2.1555,2.0136,2.1361,2.0493,1.755,1.4562,0.0,0.0,0.0,0.0,0.0,0.0,1.6762,1.8724,2.0338,2.1324,2.1691,2.195,2.2102,2.2087,2.2149,2.1792,2.0945,2.0275,1.918,1.7536,1.5396,0.0,0.0,0.0,0.0,0.0,0.0,0.0,0.0,0.0,0.0,0.0,0.0,0.0,0.0,0.0,0.0,0.0,0.0,0.0,0.0,1.7111,0.0,0.0,0.0,0.0,0.0,0.0,0.0,0.0,0.0,0.0,2.6221,2.8079,3.0567,3.3549,0.0,0.0,0.0,0.0,3.3478,3.3839,3.3575,3.3432,3.3887,3.3887,3.372,3.336,0.0,0.0,3.2878,3.3886,3.4294,3.2321,3.3308,3.4126,3.403,3.2154,3.1021,3.1454,3.1214,3.1238,3.1741,3.2393,3.3188,2.4151,0.0,0.0,0.0,0.0,2.117,2.2066,2.3804,2.2592,2.1737,2.1171,2.0256,0.0,0.0,0.0,0.0,0.0,0.0,1.9678,2.0515,2.1211,2.1995,2.2878,2.2801,2.2502,2.2053,2.2199,2.1629,2.0463,1.8999,1.6669,1.358,0.0,0.0,0.0,0.0,1.8705,1.9602,2.1141,2.1874,2.1687,2.2052,2.2115,2.1817,2.2152,2.209,2.1558,2.1397,2.0664,1.9238,1.7734,0.0,0.0,0.0,0.0,0.0,0.0,0.0,0.0,0.0,0.0,0.0,0.0,0.0,0.0,0.0,0.0,0.0,0.0,0.0,1.6991,1.764,1.8085,0.0,0.0,0.0,0.0,0.0,0.0,0.0,0.0,0.0,2.8746,3.0737,3.2611,0.0,0.0,3.403,3.3136,3.3386,3.3411,3.2718,3.2865,0.0,3.3205,3.2546,3.2412,3.3358,3.4791,3.5643,3.5199,3.623,3.6892,3.6218,3.6531,3.6843,3.6723,3.4823,3.3309,3.3333,3.379,3.427,3.4487,3.504,3.5617,2.7791,2.5631,2.4036,2.4008,2.4931,2.4513,2.5199,2.6512,2.5411,2.4675,2.412,2.3227,2.1785,1.9957,1.901,0.0,0.0,0.0,2.1747,2.2691,2.2737,2.3275,2.4207,2.3999,2.3798,2.3651,2.3394,2.3088,2.2685,2.2208,2.0411,1.7441,0.0,0.0,1.7073,1.8833,2.0134,2.0866,2.1961,2.2442,2.2181,2.2277,2.2185,2.1947,2.218,2.2174,2.1929,2.2155,2.1788,2.0858,1.9651,1.8008,0.0,0.0,0.0,0.0,0.0,0.0,0.0,0.0,0.0,0.0,0.0,1.2873,1.1073,0.0,0.0,0.0,1.5384,1.7304,1.8618,1.9591,0.0,0.0,0.0,0.0,0.0,0.0,0.0,2.5886,2.8447,3.0236,3.0703,3.2279,3.354,3.3817,3.3794,3.3497,3.2903,0.0,3.3016,3.2734,3.2986,3.3225,3.3448,3.2959,3.2845,3.3753,3.4775,3.5533,3.5763,3.6393,3.69,3.709,3.7516,3.7824,3.7611,3.6601,3.5832,3.564,3.6073,3.6531,3.6555,3.6819,3.7132,3.0239,2.9659,2.8129,2.7271,2.7017,2.7427,2.7427,2.711,2.6682,2.6575,2.6596,2.5783,2.455,2.3072,2.1942,0.0,2.288,2.3288,2.3993,2.4948,2.4911,2.5095,2.5425,2.5407,2.5205,2.4812,2.4856,2.4654,2.4312,2.4269,2.3516,2.1984,2.0134,1.9492,2.0005,2.0445,2.1233,2.2332,2.2748,2.295,2.295,2.2547,2.2332,2.2295,2.2195,2.2124,2.2106,2.253,2.2642,2.2238,2.1286,1.998,1.8244,0.0,0.0,0.0,0.0,0.0,0.0,0.0,0.0,0.0,0.0,0.0,0.0,0.0,0.0,0.0,1.8934,0.0,2.086,2.2184,0.0,0.0,0.0,2.2024,2.2734,2.4828,2.6553,2.7379,0.0,0.0,3.1904,3.2857,3.3502,3.3392,3.2738,3.2579,3.3356,3.269,3.2447,3.3153,3.3338,3.3538,3.3795,3.3909,3.3924,3.4017,3.4304,3.4578,3.4925,3.5205,3.5322,3.5736,3.6726,3.7439,3.7033,3.768,3.8421,3.7848,3.7868,3.7976,3.8,3.7998,3.7998,3.0016,2.9852,2.9443,2.8828,2.8104,2.7967,2.8013,2.8185,2.7766,2.7481,2.718,2.6615,2.5892,2.5032,2.5026,2.5092,2.5227,2.5606,2.5929,2.6133,2.5847,2.5756,2.5829,2.5535,2.5352,2.526,2.526,2.5205,2.5113,2.5095,2.4911,2.4526,2.4048,2.2818,2.0921,2.1815,2.2474,2.2748,2.3151,2.3352,2.3352,2.2968,2.2625,2.2314,2.2473,2.2404,2.2124,2.2552,2.2755,2.2662,2.2256,2.1406,2.0038,1.7503,0.0,0.0,0.0,0.0,0.0,0.0,0.0,0.0,0.0,1.7193,1.2967,0.0,1.9539,0.0,1.91,2.0665,2.1419,2.215,0.0,0.0,2.4742,2.5637,2.7695,2.8449,2.8867,2.9026,3.1118,3.2051,3.0785,3.1978,3.2576,3.1721,3.2875,3.3467,3.251,3.249,3.2279,3.1718,3.1606,3.1681,3.214,3.2513,3.2773,3.2734,3.3434,3.4043,3.4177,3.496,3.5613,3.5693,3.5925,3.646,3.717,3.6926,3.6837,3.7434,3.7821,3.8118,3.8527,3.8596,3.8596,2.9922,2.9892,2.9774,2.9408,2.8956,2.888,2.8984,2.9145,2.8946,2.8521,2.7986,2.7436,2.6982,2.6661,2.6883,2.6893,2.6829,2.7041,2.7132,2.7132,2.6894,2.6784,2.6765,2.638,2.6196,2.6196,2.6013,2.5939,2.5939,2.5913,2.5847,2.5664,2.5664,2.4783,2.3107,2.3669,2.3926,2.3743,2.3785,2.3895,2.406,2.3297,2.2785,2.2588,2.2377,2.2057,2.1673,2.2026,2.219,2.2107,2.2069,2.1694,2.0898,1.9122,1.764,0.0,0.0,0.0,0.0,0.0,0.0,0.0,0.0,0.0,0.0,0.0,2.0831,1.9675,2.1162,2.2566,2.3574,2.4493,2.5406,2.6349,2.6931,2.7795,2.9199,2.9693,2.9995,3.0163,3.1413,3.1896,3.0936,3.1593,3.1909,3.1073,3.1933,3.2387,3.1677,3.1713,3.1643,3.1015,3.0791,3.081,3.1218,3.1815,3.2198,3.2259,3.2724,3.3196,3.3397,3.393,3.4452,3.4639,3.5152,3.5648,3.6102,3.6208,3.6319,3.6786,3.7003,3.7331,3.8122,3.8768,3.9043,2.9906,2.985,2.9613,2.9487,2.945,2.9686,2.9774,2.9774,2.9774,2.9421,2.8803,2.822,2.7958,2.794,2.7958,2.7958,2.7958,2.794,2.7922,2.7867,2.7867,2.7848,2.7775,2.7444,2.7279,2.7261,2.693,2.6747,2.6692,2.6692,2.6508,2.6186,2.6086,2.5921,2.5645,2.559,2.5333,2.4893,2.4551,2.4489,2.4783,2.3706,2.3059,2.2895,2.2163,2.1562,2.1126,2.1346,2.1433,2.1265,2.1473,2.1546,2.1383,2.0489,1.9593,0.0,1.7564,0.0,0.0,0.0,0.0,0.0,0.0,0.0,0.0,2.0988,2.2049,2.2797,2.4013,2.5171,2.6226,2.7516,2.8031,2.7467,2.8352,2.9074,2.918,2.9815,3.0392,3.0859,3.12,3.1374,3.1403,3.151,3.1386,3.1071,3.0874,3.0909,3.0897,3.0869,3.0811,3.082,3.0702,3.0851,3.1159,3.1786,3.223,3.2241,3.2352,3.243,3.2812,3.2933,3.3051,3.3458,3.4354,3.4934,3.4523,3.5351,3.6101,3.6367,3.6088,3.6158,3.7297,3.8512,3.8985,2.9947,2.9682,2.9603,2.9389,2.9094,2.9124,2.9153,2.9172,2.9183,2.9087,2.8954,2.8851,2.8785,2.8755,2.8785,2.8785,2.8755,2.8785,2.8601,2.8278,2.8278,2.8124,2.7812,2.772,2.7683,2.7683,2.761,2.7408,2.7096,2.7096,2.7059,2.6967,2.6655,2.6618,2.6839,0.0,0.0,0.0,2.5231,2.5058,2.4819,2.4556,2.395,2.2931,2.246,0.0,2.1163,2.1346,2.1481,2.1467,2.196,0.0,0.0,0.0,0.0,0.0,0.0,0.0,0.0,0.0,0.0,0.0,2.2177,2.1964,2.066,2.286,2.4656,2.5335,2.5819,2.6424,2.7326,2.7937,2.8534,2.9078,2.9609,3.0098,3.0469,3.0442,3.0518,3.0932,3.0839,3.083,3.1173,3.1214,3.1153,3.1108,3.1027,3.1009,3.1036,3.0526,3.0251,3.0526,3.1047,3.1511,3.1644,3.2048,3.2371,3.2365,3.2586,3.2763,3.2852,3.308,3.3269,3.3386,3.3607,3.3776,3.3677,3.3845,3.455,3.5832,3.5757,3.5704,3.6574,3.7737,3.8257,3.0075,0.0,2.9892,2.9764,0.0,2.939,2.9299,2.9299,2.9067,2.8975,2.8975,2.8975,2.8975,2.8975,2.8975,2.8975,2.8975,2.8975,2.8895,2.8729,2.8682,2.8601,2.8399,2.8197,2.8105,2.8105,2.7903,2.7711,2.75,2.75,2.75,2.75,2.7298,2.7298,2.7481,2.7096,2.66,2.6013,2.559,2.5388,2.537,2.4801,2.4195,2.3547,2.2717,0.0,0.0,0.0,0.0,0.0,0.0,0.0,0.0,2.1755,0.0,2.221,2.1668,2.1397,2.1609,2.2382,2.3188,2.394,2.4977,2.4962,2.3574,2.5258,2.655,2.6917,2.724,2.7716,2.8391,2.868,2.9064,2.968,2.993,3.0238,3.0593,3.0551,3.0604,3.0994,3.11,3.1236,3.1413,3.1465,3.1421,3.1233,3.104,3.0891,3.0698,3.0588,3.0551,3.0618,3.1268,3.1703,3.1646,3.2043,3.239,3.2422,3.2549,3.2645,3.2645,3.2804,3.2943,3.3121,3.3165,3.3255,3.3659,3.373,3.4091,3.5056,3.5208,3.5165,3.5634,3.6923,3.7768,3.0369,3.0314,3.0296,3.0259,3.0167,2.9868,2.9721,2.9684,0.0,0.0,0.0,2.8975,2.8975,2.8975,2.8975,2.8975,2.8975,2.8975,2.8975,2.8975,2.8975,2.8975,2.8957,2.8663,2.8498,2.848,2.8179,2.7977,2.7903,2.7903,2.7903,2.7903,2.783,2.7793,2.7803,2.7463,2.7151,2.6802,2.6031,2.5737,2.5958,2.5029,2.4422,2.422,2.3107,2.2295,2.1837,2.1489,2.1228,2.1086,2.1197,2.1718,2.2591,2.2727,2.3354,2.4598,2.4818,2.5,2.5421,2.5881,2.6161,2.6177,2.7122,2.7431,2.673,2.7402,2.7917,2.8052,2.8416,2.8849,2.9383,2.94,2.9514,2.9884,2.9922,3.0044,3.0441,3.0438,3.0596,3.1056,3.1383,3.1646,3.169,3.1731,3.1702,3.1355,3.1104,3.0791,3.0541,3.0754,3.0878,3.0779,3.1277,3.1615,3.1476,3.1763,3.2211,3.2166,3.2262,3.2294,3.2345,3.2414,3.258,3.2906,3.2899,3.3219,3.3824,3.394,3.4193,3.4628,3.4713,3.4726,3.4962,3.6204,3.697,3.1011,3.073,3.0699,3.0516,3.0204,3.013,3.0112,3.0057,2.9305,2.8975,2.8975,2.8975,2.8975,2.8975,2.8975,2.8975,2.8975,2.8975,2.8975,2.8975,2.8975,2.8975,2.9005,2.895,2.8902,2.8902,2.8858,2.8674,2.8362,2.8297,2.8344,2.826,2.7977,2.7793,2.7793,2.7738,2.7683,2.761,2.6839,2.6306,2.5994,2.5837,2.5249,2.4238,2.3633,2.2991,2.224,2.2167,2.2135,2.2102,2.274,2.3299,2.3648,2.4012,2.4414,2.4846,2.5206,2.556,2.5976,2.674,2.763,2.8644,2.8927,2.8681,2.7883,2.8197,2.8652,2.9022,2.9146,2.9364,2.976,2.9768,2.9806,2.9863,2.9892,3.0063,3.0449,3.0313,3.048,3.1158,3.1069,3.1128,3.1436,3.1501,3.1488,3.14,3.1295,3.1249,3.1153,3.1014,3.0843,3.0849,3.1175,3.1396,3.1428,3.1451,3.1603,3.1538,3.1814,3.1942,3.1974,3.2392,3.2755,3.2946,3.2908,3.3149,3.3595,3.3666,3.4021,3.4613,3.4741,3.4836,3.5148,3.566,3.5666,3.13,3.1153,3.1134,3.1043,3.0827,3.0607,3.0387,3.0185,2.9819,2.9507,2.9335,2.9335,2.9225,2.8993,2.8975,2.8975,2.8975,2.8975,2.8975,2.8975,2.8975,2.8975,2.8975,2.8975,2.8975,2.8975,2.8975,2.8913,2.8737,2.87,2.87,2.87,2.8546,2.8344,2.816,2.8142,2.8014,2.7775,2.7224,2.6839,2.6637,2.6215,2.5745,2.5168,2.4537,2.4042,2.3675,2.3437,2.3351,2.3332,2.3681,2.4153,2.467,2.4898,2.5414,2.63,2.6525,2.6825,2.7218,2.766,2.8293,2.9056,2.9141,2.901,2.8591,2.901,2.9313,2.9415,2.9404,2.9391,2.942,2.9625,2.9662,2.9439,2.9781,3.0134,3.032,3.0439,3.0729,3.1215,3.1248,3.1208,3.1391,3.141,3.141,3.141,3.141,3.141,3.141,3.1231,3.1134,3.1121,3.13,3.1391,3.141,3.141,3.141,3.141,3.1506,3.1621,3.1653,3.2,3.2171,3.237,3.2552,3.2969,3.3496,3.3861,3.4227,3.4647,3.4844,3.4941,3.5075,3.5302,3.5428,3.141,3.141,3.141,3.141,3.1391,3.1047,3.0786,3.0479,3.0461,3.0272,2.9874,2.9776,2.9574,2.9299,2.9188,2.9207,2.9232,2.9067,2.906,2.9133,2.903,2.8975,2.8975,2.8975,2.8975,2.8975,2.8975,2.8975,2.8975,2.8975,2.8975,2.8975,2.8975,2.8858,2.8535,2.8535,2.837,2.805,2.7683,2.7389,2.7187,2.6582,2.6205,2.5984,2.5407,2.504,2.4929,2.4617,2.4514,2.4606,2.4698,2.5084,2.5756,2.5884,2.6469,2.7503,2.7735,2.7976,2.8337,2.8449,2.8663,2.8938,2.8975,2.8975,2.9053,2.942,2.9597,2.942,2.9372,2.9272,2.9119,2.9372,2.9482,2.9225,2.9764,3.0235,3.0351,3.0607,3.0937,3.1318,3.141,3.1391,3.141,3.141,3.141,3.141,3.141,3.141,3.141,3.141,3.141,3.141,3.141,3.141,3.141,3.141,3.1446,3.1469,3.1543,3.1648,3.1754,3.1777,3.1934,3.2292,3.2506,3.2943,3.3579,3.392,3.4275,3.4667,3.4792,3.4952,3.5089,3.5295,3.5587,3.141,3.141,3.141,3.141,3.141,3.1355,3.1318,3.1263,3.13,3.1079,3.0644,3.0296,3.013,3.0039,2.9672,2.9709,2.9984,2.9354,2.9207,2.9464,2.9188,2.8993,2.9012,2.9023,2.8975,2.9012,2.9023,2.8993,2.903,2.9023,2.8975,2.8975,2.8975,2.8957,2.892,2.895,2.8902,2.8895,2.848,2.793,2.7243,2.7132,2.6747,2.6039,2.5939,2.57,2.5425,2.5315,2.5462,2.5837,2.6159,2.6582,2.7004,2.7371,2.7638,2.7785,2.8134,2.852,2.8869,2.8931,2.8938,2.8975,2.8975,2.8975,2.8975,2.9035,2.9083,2.9101,2.9083,2.9053,2.9012,2.939,2.9611,2.9592,2.9965,3.0351,3.0644,3.0754,3.0937,3.1373,3.141,3.141,3.141,3.141,3.141,3.141,3.141,3.1428,3.1483,3.1483,3.1465,3.1446,3.141,3.1428,3.1428,3.141,3.1561,3.1836,3.1946,3.2056,3.2294,3.2643,3.301,3.2688,3.3004,3.3255,3.3545,3.3848,3.3991,3.4268,3.4571,3.4937,3.5299,3.5367,3.5557,3.163,3.141,3.141,3.141,3.141,3.141,3.141,3.141,3.141,3.1318,3.1171,3.0974,3.0644,3.0185,3.002,3.0039,3.0167,2.9855,2.9635,2.9629,2.9654,2.958,2.9372,2.9324,2.9482,2.9635,2.9214,2.9133,2.928,2.9133,2.8975,2.8975,2.8975,2.8975,2.8975,2.8975,2.8975,2.9005,2.8858,2.8491,2.7977,2.7683,2.7408,2.7096,2.7087,2.6986,2.6839,2.682,2.6894,2.7068,2.7206,2.75,2.7875,2.8069,2.8271,2.8491,2.8674,2.881,2.8975,2.8975,2.8975,2.8975,2.8975,2.8975,2.8975,2.8975,2.9097,2.9299,2.9122,2.9097,2.9354,2.969,2.9947,3.002,3.0497,3.0914,3.0772,3.0992,3.1212,3.1391,3.141,3.141,3.141,3.141,3.141,3.141,3.141,3.1501,3.1689,3.1744,3.1744,3.1763,3.1763,3.1634,3.1501,3.1648,3.1799,3.1983,3.2203,3.2459,3.2588,3.2698,3.2845,3.2881,3.3067,3.3251,3.3358,3.3647,3.3856,3.389,3.3761,3.4072,3.4693,3.4853,3.499,3.1983,3.1726,3.174,3.1708,3.1708,3.1598,3.1575,3.1557,3.1465,3.141,3.141,3.141,3.1066,3.0571,3.0424,3.0406,3.0497,3.0296,3.0094,2.9959,3.0112,3.0039,2.9794,2.9776,2.9923,3.0039,2.9489,2.9232,2.9409,2.914,2.8975,2.8975,2.8975,2.8975,2.8975,2.8975,2.8975,2.8975,2.8975,2.8847,2.8553,2.8289,2.8014,2.783,2.7793,2.7793,2.7793,2.7793,2.7848,2.7958,2.7958,2.8132,2.8517,2.8553,2.8682,2.8938,2.8975,2.8975,2.8975,2.8975,2.8975,2.8975,2.8975,2.8975,2.8975,2.8975,2.9188,2.9519,2.9335,2.9354,2.9709,3.0112,3.0351,3.0406,3.0992,3.1263,3.1061,3.1231,3.1391,3.141,3.141,3.141,3.141,3.141,3.1446,3.1575,3.1579,3.1689,3.2056,3.2166,3.2166,3.2166,3.2166,3.1946,3.1543,3.1708,3.1983,3.2239,3.2496,3.2808,3.2881,3.2936,3.2955,3.3321,3.3306,3.3342,3.3523,3.3688,3.3688,3.3376,3.3248,3.3458,3.4125,3.4293,3.4558,3.2551,3.2533,3.2533,3.2496,3.2514,3.2129,3.1983,3.1946,3.1579,3.1428,3.1446,3.1428,3.1391,3.13,3.0987,3.0974,3.1208,3.0571,3.0424,3.0639,3.0387,3.0204,3.0167,3.0167,3.0204,3.0259,2.98,2.9409,2.9085,2.8982,2.8975,2.8975,2.8916,2.8945,2.8975,2.8975,2.8975,2.8856,2.8856,2.8868,2.8849,2.8842,2.8429,2.7721,2.7812,2.7848,2.783,2.7812,2.7995,2.8352,2.837,2.8535,2.8931,2.8938,2.8957,2.8975,2.8975,2.8975,2.8975,2.8975,2.8975,2.8975,2.8975,2.8975,2.9023,2.903,2.9214,2.9574,2.9647,2.9794,3.0167,3.0497,3.0736,3.0791,3.1153,3.1355,3.1373,3.141,3.141,3.141,3.141,3.1446,3.1428,3.141,3.1612,3.1854,3.1983,3.2111,3.2459,3.257,3.257,3.2588,3.2514,3.2294,3.1634,3.1928,3.2276,3.2514,3.2884,3.3232,3.356,3.3762,3.3725,3.3688,3.367,3.3688,3.3762,3.3725,3.3596,3.3379,3.3232,3.3458,3.3901,3.4187,3.4383,3.2845,3.2606,3.2606,3.2606,3.2588,3.2441,3.2386,3.2349,3.1964,3.1781,3.1781,3.1781,3.1634,3.1428,3.1814,3.1758,3.141,3.1098,3.0901,3.0827,3.0901,3.0841,3.0589,3.0571,3.0717,3.0859,3.0296,2.9794,2.9306,2.8556,2.8414,2.8744,2.8122,2.8122,2.8826,2.8975,2.8618,2.7792,2.7714,2.7323,2.6689,2.7263,2.7185,2.618,2.7694,2.8553,2.8583,2.8583,2.8638,2.8785,2.8773,2.8858,2.8986,2.8975,2.8975,2.8975,2.8975,2.8975,2.8975,2.8975,2.8975,2.8975,2.8975,2.9012,2.903,2.9243,2.9556,2.9923,3.0253,3.0547,3.0841,3.0864,3.0932,3.1171,3.1318,3.141,3.1465,3.1598,3.1671,3.1451,3.141,3.1501,3.1703,3.1543,3.1653,3.2203,3.2166,3.2349,3.2793,3.2991,3.2991,3.301,3.2991,3.2808,3.2276,3.2514,3.2863,3.3012,3.3269,3.3523,3.378,3.3817,3.3762,3.3743,3.3817,3.3817,3.3798,3.356,3.3468,3.3525,3.3379,3.3356,3.3732,3.3964,3.4073,3.3248,3.301,3.2991,3.2991,3.2973,3.2845,3.2486,3.2043,3.1617,3.1172,3.0772,3.0705,3.0548,3.0406,3.0789,3.0702,3.0374,3.1107,3.1359,3.1061,3.1249,3.1263,3.1011,3.1006,3.0879,3.0556,2.9542,2.8793,2.8425,2.7854,2.7695,2.7743,2.7211,2.7203,2.7654,2.7684,2.7203,2.6459,2.6368,2.5882,2.5209,2.5882,2.5942,2.5393,2.6779,2.7942,2.8331,2.8767,2.8975,2.8975,2.8975,2.8975,2.8993,2.9133,2.9177,2.9177,2.9305,2.9379,2.9379,2.9409,2.9379,2.9379,2.9409,2.9379,2.9397,2.9617,2.9947,3.0332,3.0607,3.0987,3.1244,3.1139,3.1102,3.1355,3.141,3.1483,3.1579,3.1836,3.1909,3.1887,3.1869,3.1946,3.2093,3.1946,3.2148,3.2716,3.2551,3.2716,3.3214,3.3379,3.3379,3.3379,3.3379,3.3269,3.3046,3.3193,3.3122,3.3251,3.3397,3.367,3.378,3.3798,3.3798,3.3798,3.3817,3.3817,3.3688,3.345,3.3434,3.3562,3.3415,3.3285,3.3539,3.3688,3.3865,3.3606,3.3466,3.3694,3.336,3.3237,3.286,3.2167,3.0926,3.0446,2.9628,2.8668,2.827,2.8498,2.8175,2.8374,2.7926,2.8404,3.0481,3.1306,3.0922,3.0987,3.1037,3.0918,3.0836,3.0254,2.9248,2.7507,2.6503,2.6328,2.6874,2.6724,2.6017,2.6466,2.6258,2.5149,2.5473,2.5226,2.5041,2.501,2.4934,2.4963,2.4902,2.4902,2.4748,2.5117,2.5821,2.6853,2.8092,2.8618,2.8707,2.8737,2.8916,2.8738,2.9119,2.9489,2.9495,2.9886,3.0149,3.0149,3.0112,3.0075,3.0057,3.0149,3.0075,3.0039,3.0149,3.0351,3.0644,3.0809,3.1006,3.1336,3.1373,3.1373,3.141,3.1446,3.1598,3.1873,3.2019,3.2166,3.2441,3.2496,3.257,3.2588,3.2496,3.2643,3.3046,3.3104,3.3177,3.3615,3.3672,3.378,3.378,3.3725,3.3596,3.3688,3.378,3.3507,3.336,3.3541,3.3707,3.3707,3.3707,3.3651,3.367,3.3817,3.3817,3.3798,3.3578,3.345,3.3486,3.3287,3.3306,3.347,3.3672,3.3762,3.0643,3.0643,3.0643,3.0643,3.0626,3.0491,3.0123,2.9721,2.9309,2.8849,2.8465,2.843,2.8234,2.8155,2.8465,2.8367,2.8005,2.913,2.9225,2.8577,2.8493,2.8559,2.8526,2.8476,2.8213,2.7768,2.7224,2.6673,2.6226,2.5777,2.5476,2.5659,2.5168,2.5108,2.525,2.5502,2.5109,2.3851,2.3861,2.3468,2.2557,2.3232,2.3263,2.2623,2.4008,2.4871,2.4425,2.5576,2.6216,2.6308,2.6247,2.6333,2.677,2.7851,2.8525,2.8667,2.963,3.0204,3.0204,3.0222,3.0241,3.0222,3.0222,3.0204,3.0241,3.0461,3.0662,3.0859,3.1029,3.13,3.1373,3.141,3.1428,3.141,3.1634,3.1854,3.2074,3.2276,3.2588,3.29,3.2771,3.2735,3.29,3.2845,3.2918,3.345,3.3379,3.336,3.3707,3.3817,3.3817,3.3817,3.3817,3.3817,3.3817,3.3817,3.3707,3.3507,3.3596,3.3707,3.3688,3.3615,3.3578,3.3633,3.3762,3.3798,3.378,3.3707,3.3596,3.3578,3.3615,3.3633,3.3617,3.3707,3.378,2.9059,2.9218,2.9218,2.9218,2.9218,2.9218,2.886,2.8362,2.8069,2.7656,2.7191,2.7084,2.698,2.684,2.7171,2.7051,2.6622,2.6628,2.6349,2.619,2.7147,2.7354,2.716,2.6535,2.6321,2.6188,2.5786,2.5427,2.5167,2.4782,2.4554,2.4443,2.4148,2.4001,2.4227,2.4329,2.3732,2.2705,2.2695,2.2239,2.1511,2.1933,2.1978,2.1502,2.2832,2.3162,2.2495,2.3359,2.4267,2.4858,2.5105,2.5359,2.5723,2.6853,2.7736,2.8406,2.9242,3.0077,3.0531,3.0681,3.0644,3.0644,3.0644,3.0675,3.0681,3.0901,3.0992,3.1047,3.1244,3.141,3.141,3.1543,3.1598,3.1616,3.1836,3.2148,3.2386,3.2808,3.312,3.334,3.323,3.323,3.3285,3.3285,3.323,3.367,3.3596,3.3452,3.3743,3.3817,3.3817,3.3817,3.3817,3.3817,3.3817,3.3817,3.3817,3.3725,3.3651,3.3725,3.3709,3.3615,3.3541,3.367,3.3817,3.3817,3.3798,3.3798,3.3743,3.3817,3.3817,3.378,3.3743,3.3762,3.3817,2.8541,2.8916,2.888,2.8716,2.8716,2.8665,2.7924,2.6903,2.6743,2.605,2.5001,2.4987,2.4854,2.4653,2.4893,2.4734,2.4214,2.4151,2.4176,2.4833,2.6248,2.7231,2.6679,2.5504,2.4965,2.4704,2.3768,2.3154,2.3372,2.3874,2.3671,2.2921,2.3511,2.3332,2.2657,2.2163,2.2219,2.1889,2.1779,2.1606,2.1229,2.1266,2.1266,2.1229,2.1654,2.1745,2.1605,2.2032,2.3014,2.4548,2.4843,2.5072,2.5607,2.6129,2.7003,2.8074,2.8816,2.9812,3.0839,3.091,3.1143,3.1341,3.1359,3.1433,3.1451,3.1261,3.1265,3.1492,3.1381,3.1362,3.1533,3.1818,3.2038,3.206,3.2203,3.2481,3.3122,3.3541,3.367,3.3743,3.3798,3.3764,3.3762,3.3725,3.3709,3.3745,3.378,3.378,3.3798,3.3817,3.3817,3.3817,3.3817,3.3817,3.3817,3.3817,3.3817,3.3798,3.3725,3.3743,3.3745,3.367,3.3486,3.3633,3.3817,3.3817,3.3817,3.3817,3.3817,3.3817,3.3817,3.3817,3.3817,3.3817,3.3817,2.5258,2.5368,2.5662,2.5822,2.5808,2.5822,2.5639,2.5249,2.5249,2.5028,2.4636,2.4599,2.4599,2.4586,2.4519,2.4479,2.4412,2.4292,2.4279,2.4469,2.5016,2.505,2.454,2.4032,2.3694,2.3482,2.3147,2.2893,2.2928,2.3209,2.3134,2.282,2.3039,2.2936,2.2398,2.2532,2.2385,2.201,2.2098,2.2031,2.1777,2.1724,2.175,2.1764,2.183,2.1863,2.1764,2.193,2.2167,2.2702,2.3037,2.3252,2.3596,2.4667,2.5631,2.6165,2.714,2.8328,2.9511,2.9855,3.0434,3.1669,3.1542,3.1964,3.2225,3.1192,3.1276,3.1694,3.1376,3.1007,3.1926,3.2301,3.2484,3.2811,3.2829,3.3065,3.347,3.3743,3.3817,3.3817,3.3817,3.3817,3.3817,3.3817,3.3817,3.3817,3.3817,3.3817,3.3817,3.3817,3.3817,3.3817,3.3817,3.3817,3.3817,3.3817,3.3817,3.3817,3.3798,3.378,3.3798,3.3762,3.356,3.3434,3.3709,3.3817,3.3817,3.3817,3.3817,3.3817,3.3817,3.3817,3.3817,3.3817,3.3817,2.4037,2.4267,2.4488,2.4599,2.4599,2.4599,2.4599,2.4599,2.4599,2.4599,2.4599,2.4599,2.4599,2.4599,2.4599,2.4599,2.4586,2.4479,2.4479,2.4586,2.4646,2.4335,2.3803,2.35,2.3233,2.306,2.296,2.2907,2.2893,2.2893,2.2893,2.288,2.2893,2.2766,2.2666,2.2773,2.2679,2.2271,2.2305,2.2251,2.205,2.2024,2.201,2.2017,2.2084,2.2205,2.2345,2.2245,2.2164,2.2224,2.2325,2.2438,2.2686,2.3639,2.4508,2.495,2.6009,2.7181,2.8294,2.8693,2.9228,3.0052,3.0355,3.0408,3.0394,2.9765,2.9867,3.0225,2.9731,2.9867,3.0565,3.1349,3.2348,3.3221,3.3468,3.356,3.3798,3.3798,3.3817,3.3817,3.3817,3.3817,3.3817,3.3817,3.3817,3.3817,3.3817,3.3817,3.3817,3.3817,3.3817,3.3817,3.3817,3.3817,3.3817,3.3817,3.3817,3.3817,3.3817,3.3817,3.3817,3.3817,3.3707,3.3562,3.369,3.3782,3.3817,3.3817,3.3817,3.3817,3.3817,3.3817,3.3817,3.3817,3.3817,2.403,2.4488,2.4525,2.4562,2.4599,2.4599,2.4599,2.4599,2.4599,2.4599,2.4599,2.4599,2.4599,2.4599,2.4599,2.4599,2.4586,2.4436,2.4462,2.4532,2.4586,2.4412,2.4182,2.3692,2.3439,2.3354,2.3073,2.2993,2.2979,2.2987,2.292,2.2907,2.2893,2.2893,2.2853,2.2893,2.2746,2.2525,2.2498,2.2418,2.2265,2.2211,2.2191,2.2251,2.2365,2.2565,2.2686,2.2645,2.2505,2.2525,2.2512,2.2686,2.296,2.3241,2.3824,2.463,2.5296,2.6116,2.7205,2.762,2.7978,2.8355,2.8387,2.8108,2.8464,2.8338,2.8234,2.8841,2.8035,2.8218,2.8806,2.9871,3.1392,3.2785,3.338,3.3555,3.3782,3.3817,3.3835,3.3872,3.3872,3.3817,3.3872,3.3835,3.3817,3.3817,3.3817,3.3817,3.3817,3.3817,3.3817,3.3817,3.3817,3.3817,3.3817,3.3817,3.3817,3.3817,3.3817,3.3817,3.3817,3.3817,3.3817,3.3817,3.3817,3.3817,3.3817,3.3817,3.3835,3.3817,3.3817,3.3817,3.3817,3.3817,3.3817,2.3467,2.3661,2.4007,2.4304,2.4562,2.4599,2.4599,2.4599,2.4599,2.4613,2.4599,2.4599,2.4613,2.4599,2.4599,2.4599,2.4599,2.4506,2.4559,2.4572,2.4599,2.4572,2.4439,2.4106,2.3888,2.3736,2.3643,2.3447,2.3287,2.3207,2.31,2.2947,2.296,2.2907,2.292,2.2907,2.288,2.28,2.2786,2.276,2.2719,2.2653,2.2666,2.2693,2.2739,2.2827,2.2934,2.3033,2.3092,2.3105,2.3105,2.3145,2.326,2.3514,2.3841,2.4075,2.4284,2.4932,2.5985,2.6414,2.6954,2.8006,2.8072,2.8604,2.8838,2.7645,2.7768,2.8319,2.7926,2.7579,2.8577,2.9205,3.0364,3.1577,3.2052,3.2474,3.3434,3.3747,3.3787,3.4057,3.3912,3.3873,3.4183,3.3927,3.3853,3.3835,3.3817,3.3817,3.3835,3.3853,3.3872,3.389,3.3817,3.3817,3.3817,3.3817,3.3817,3.3817,3.3817,3.3817,3.3817,3.3817,3.3817,3.3817,3.3817,3.3817,3.3853,3.389,3.3908,3.3872,3.3817,3.3817,3.3817,3.3817,3.3817,2.3656,2.3711,2.4119,2.4414,2.4599,2.4599,2.4599,2.4626,2.4796,2.4719,2.4653,2.477,2.477,2.4599,2.4599,2.4599,2.4599,2.4599,2.4599,2.4599,2.4599,2.4599,2.4586,2.4439,2.4249,2.3995,2.3843,2.3674,2.3567,2.3527,2.3496,2.3322,2.3188,2.31,2.3033,2.2987,2.2907,2.2893,2.2907,2.296,2.3046,2.2974,2.2966,2.3134,2.3207,2.3322,2.3362,2.3434,2.3527,2.3567,2.3661,2.3661,2.3607,2.3808,2.3901,2.3843,2.4075,2.435,2.5013,2.5262,2.569,2.6697,2.6748,2.6836,2.6917,2.621,2.621,2.667,2.6452,2.643,2.7903,2.8288,2.9116,3.0212,3.0659,3.1052,3.1783,3.2351,3.3157,3.3564,3.3228,3.342,3.3543,3.3684,3.3855,3.3818,3.3853,3.3872,3.4037,3.4055,3.4037,3.4,3.389,3.3817,3.3817,3.3817,3.3817,3.3817,3.3817,3.3817,3.3817,3.3817,3.3817,3.3853,3.3908,3.3908,3.3945,3.3963,3.3945,3.3853,3.3817,3.3817,3.3835,3.3853,3.3835,2.4074,2.41,2.4473,2.4658,2.4658,2.4693,2.4642,2.4595,2.4879,2.4823,2.4679,2.4917,2.4773,2.4653,2.4666,2.4666,2.4679,2.4679,2.4743,2.4599,2.4599,2.4599,2.4586,2.4546,2.4452,2.4249,2.4075,2.3941,2.3897,2.387,2.3768,2.375,2.3527,2.3354,2.326,2.3188,2.3067,2.3006,2.3108,2.3201,2.334,2.3228,2.3207,2.338,2.3567,2.371,2.3723,2.3803,2.387,2.3848,2.4115,2.4102,2.4048,2.4088,2.4182,2.3941,2.4319,2.4536,2.4605,2.4649,2.4743,2.4639,2.471,2.4733,2.477,2.4972,2.5022,2.4898,2.4972,2.5423,2.6514,2.6928,2.7837,2.8979,2.942,2.9529,2.9868,3.0598,3.1407,3.2456,3.2102,3.1977,3.2844,3.3355,3.3598,3.3839,3.3873,3.3982,3.4183,3.433,3.4348,3.435,3.4295,3.4128,3.4092,3.4238,3.4183,3.4055,3.4,3.4018,3.4037,3.4183,3.4238,3.4037,3.4037,3.4037,3.4037,3.4018,3.3963,3.3872,3.3927,3.4037,3.4,3.3908,3.3963,2.3984,2.4291,2.4672,2.4863,2.4862,2.4953,2.4796,2.4507,2.4648,2.4653,2.4626,2.4653,2.4693,2.4653,2.4917,2.4997,2.4997,2.4997,2.4877,2.4679,2.4653,2.4666,2.4653,2.4653,2.4599,2.4546,2.4412,2.4315,2.4168,2.4128,2.4035,2.387,2.3763,2.3607,2.35,2.3474,2.3455,2.33,2.3455,2.3616,2.3683,2.3674,2.3643,2.3714,2.3857,2.3884,2.3875,2.4022,2.4128,2.4155,2.4372,2.4452,2.4426,2.4466,2.4452,2.4439,2.4569,2.4716,2.481,2.4743,2.481,2.4877,2.4836,2.4653,2.4693,2.485,2.4866,2.4786,2.4917,2.5265,2.5634,2.5992,2.6626,2.763,2.8193,2.8552,2.9282,2.9211,2.9057,3.0111,3.0203,3.0799,3.2109,3.3109,3.341,3.3815,3.4167,3.433,3.4532,3.4715,3.4789,3.4826,3.4863,3.4642,3.4403,3.4642,3.468,3.4478,3.4405,3.4477,3.4515,3.4698,3.468,3.455,3.433,3.4238,3.4202,3.4165,3.4128,3.4128,3.4202,3.4293,3.4312,3.433,3.4441,2.3592,2.3909,2.4416,2.4592,2.455,2.494,2.4759,2.4304,2.4664,2.4783,2.4679,2.4783,2.477,2.4719,2.4943,2.5144,2.5277,2.5304,2.513,2.4943,2.501,2.4983,2.4877,2.4863,2.4863,2.4823,2.4716,2.4546,2.4399,2.4399,2.4329,2.4235,2.4088,2.3915,2.3794,2.379,2.375,2.3621,2.3714,2.3861,2.3995,2.4102,2.4142,2.4062,2.4142,2.4209,2.4249,2.4292,2.4386,2.4412,2.4519,2.4586,2.4599,2.4599,2.4599,2.4626,2.477,2.4917,2.5128,2.505,2.5184,2.5251,2.5106,2.5066,2.5079,2.5211,2.5211,2.5184,2.5157,2.5358,2.5516,2.5651,2.6142,2.6641,2.6909,2.7292,2.7592,2.7112,2.7386,2.7954,2.8409,2.9744,3.2106,3.2851,3.3214,3.3732,3.4336,3.4678,3.4899,3.5064,3.5192,3.5247,3.5266,3.5028,3.4862,3.4954,3.5064,3.4899,3.4863,3.4899,3.4899,3.5028,3.5155,3.5119,3.488,3.4678,3.457,3.4625,3.4496,3.4385,3.444,3.4513,3.466,3.477,3.4863,2.3467,2.3642,2.4441,2.4489,2.4204,2.4801,2.4674,2.4279,2.4809,2.4943,2.4783,2.4943,2.4943,2.4877,2.509,2.5371,2.5531,2.5545,2.5438,2.5237,2.5264,2.5251,2.513,2.5064,2.501,2.4863,2.4863,2.4653,2.4572,2.4559,2.4586,2.4492,2.4356,2.4235,2.4142,2.4062,2.3964,2.391,2.3941,2.4088,2.4289,2.4452,2.4506,2.4329,2.4479,2.4599,2.4676,2.4703,2.4693,2.4693,2.4693,2.4666,2.4613,2.4599,2.4626,2.4719,2.4957,2.509,2.5304,2.5344,2.5464,2.5585,2.5531,2.5466,2.5491,2.5451,2.5531,2.5638,2.5611,2.5665,2.5785,2.5957,2.6104,2.6156,2.6195,2.6156,2.6336,2.6268,2.625,2.6679,2.7044,2.843,3.0591,3.2023,3.2253,3.3728,3.4379,3.5064,3.5265,3.5412,3.5559,3.5614,3.5596,3.5412,3.5302,3.5302,3.5339,3.5211,3.5266,3.5412,3.5339,3.5302,3.5394,3.5522,3.5632,3.5449,3.5284,3.5028,3.4808,3.4715,3.4697,3.4807,3.5045,3.5174,3.5229,2.4176,2.4252,2.5231,2.514,2.4367,2.4763,2.4699,2.4392,2.4842,2.5064,2.5024,2.505,2.5101,2.5195,2.5623,2.573,2.5678,2.5772,2.5745,2.5491,2.5344,2.5275,2.5141,2.5077,2.4957,2.485,2.4917,2.485,2.4666,2.4599,2.4599,2.4572,2.4532,2.4439,2.4289,2.4356,2.4359,2.4249,2.4382,2.4479,2.4519,2.4572,2.4559,2.4546,2.4613,2.4733,2.4943,2.497,2.4983,2.4983,2.4997,2.4877,2.4666,2.4599,2.4746,2.4943,2.5155,2.5304,2.5703,2.5692,2.5705,2.5812,2.5718,2.5558,2.5611,2.5638,2.5798,2.6253,2.6066,2.5999,2.6132,2.6279,2.6333,2.6306,2.6279,2.6293,2.6279,2.6172,2.6092,2.6145,2.6779,2.7393,2.8741,3.014,3.1446,3.3026,3.4389,3.4938,3.5321,3.5208,3.5427,3.5424,3.5997,3.5962,3.576,3.576,3.565,3.5522,3.565,3.5834,3.5724,3.565,3.5705,3.5834,3.5981,3.5962,3.565,3.5357,3.5119,3.5064,3.5155,3.532,3.5522,3.5559,3.5614,2.3757,2.3858,2.4598,2.4624,2.4224,2.4672,2.4724,2.4543,2.488,2.517,2.5264,2.5144,2.5208,2.5371,2.5824,2.6011,2.6051,2.6172,2.6078,2.585,2.565,2.5516,2.5317,2.5157,2.497,2.4917,2.4836,2.4743,2.4613,2.4599,2.4599,2.4599,2.4599,2.4559,2.4386,2.4532,2.4506,2.4466,2.4519,2.4586,2.4599,2.4599,2.4599,2.4599,2.4783,2.4943,2.505,2.5077,2.5077,2.505,2.4943,2.4877,2.4823,2.4796,2.4839,2.5569,2.5411,2.5545,2.5904,2.5959,2.6066,2.6132,2.6079,2.6039,2.6012,2.5999,2.6052,2.6333,2.6279,2.6279,2.6346,2.6386,2.64,2.64,2.64,2.64,2.64,2.64,2.6333,2.6373,2.6465,2.6985,2.7509,2.8514,3.0067,3.1723,3.2909,3.3489,3.3938,3.4156,3.4505,3.495,3.5795,3.6566,3.6347,3.62,3.6035,3.5944,3.5962,3.6091,3.6054,3.6017,3.6109,3.6091,3.6127,3.6054,3.587,3.5687,3.5449,3.5504,3.565,3.5742,3.5815,3.5962,3.5999,2.3254,2.3465,2.3934,2.4023,2.3911,2.439,2.4518,2.4412,2.4889,2.5197,2.5331,2.5251,2.5291,2.5491,2.5877,2.6172,2.6239,2.6386,2.6292,2.6145,2.6011,2.585,2.5598,2.5358,2.5157,2.5077,2.4903,2.4756,2.4589,2.4525,2.4451,2.4599,2.4599,2.4586,2.4599,2.4586,2.4572,2.4572,2.4586,2.4599,2.4599,2.4599,2.4599,2.4666,2.485,2.5037,2.517,2.5197,2.5197,2.5291,2.5197,2.5184,2.5157,2.5039,2.5237,2.5743,2.5743,2.581,2.6078,2.6252,2.6373,2.64,2.64,2.6306,2.6333,2.64,2.6386,2.6386,2.6373,2.6373,2.64,2.64,2.64,2.64,2.64,2.64,2.64,2.644,2.6426,2.64,2.64,2.64,2.6895,2.7343,2.8622,3.0361,3.1379,3.1983,3.2642,3.3144,3.3927,3.459,3.5887,3.678,3.6803,3.6602,3.6475,3.6402,3.6383,3.6438,3.6512,3.6531,3.6548,3.6475,3.6347,3.6219,3.609,3.5925,3.5797,3.5889,3.5925,3.5981,3.6072,3.6219,3.6421,2.3129,2.3415,2.3617,2.3631,2.3514,2.3719,2.3921,2.4097,2.4776,2.509,2.5222,2.5331,2.5317,2.5358,2.5825,2.6172,2.6051,2.6305,2.6306,2.6239,2.6145,2.5984,2.5772,2.5571,2.5293,2.5106,2.49,2.4717,2.4581,2.4262,2.4332,2.4525,2.4502,2.4562,2.4599,2.4562,2.4599,2.4599,2.4599,2.4599,2.4599,2.4599,2.4599,2.4599,2.4666,2.4866,2.54,2.5438,2.5545,2.5784,2.569,2.5585,2.5478,2.5333,2.5571,2.5917,2.5957,2.6051,2.6279,2.6333,2.6373,2.64,2.64,2.64,2.64,2.64,2.64,2.64,2.64,2.64,2.64,2.64,2.6466,2.644,2.6453,2.6493,2.6507,2.6547,2.652,2.6426,2.6466,2.6587,2.66,2.7155,2.7301,2.8934,2.9696,3.0354,3.1695,3.2404,3.3475,3.4506,3.6011,3.6839,3.7071,3.6983,3.6951,3.686,3.6841,3.6951,3.7061,3.7061,3.6823,3.675,3.6566,3.6438,3.6292,3.6127,3.6035,3.6146,3.6182,3.6146,3.6256,3.6383,3.6695,2.2744,2.3067,2.2903,2.3192,2.3724,2.3543,2.3745,2.4248,2.4588,2.4889,2.5128,2.5358,2.5358,2.5304,2.5531,2.5905,2.5984,2.6091,2.6265,2.6292,2.6158,2.6011,2.5852,2.5499,2.5056,2.4939,2.4723,2.4506,2.4327,2.4135,2.4058,2.4144,2.4197,2.4243,2.4267,2.4488,2.4599,2.4599,2.4599,2.4599,2.4599,2.4599,2.4599,2.4599,2.4863,2.509,2.5451,2.5504,2.573,2.5877,2.5798,2.5772,2.5797,2.5651,2.5798,2.6145,2.6105,2.6172,2.6319,2.64,2.64,2.64,2.64,2.64,2.64,2.64,2.64,2.64,2.64,2.64,2.64,2.6533,2.664,2.656,2.656,2.6627,2.664,2.668,2.668,2.6613,2.68,2.7041,2.7028,2.7042,2.7119,2.7402,2.8029,2.8831,3.0224,3.1368,3.2309,3.3457,3.4867,3.5924,3.6198,3.67,3.7334,3.7318,3.7263,3.7281,3.7299,3.7024,3.6823,3.6823,3.6841,3.6731,3.6566,3.6328,3.6256,3.6237,3.6219,3.6182,3.6366,3.6566,3.6915,2.252,2.2819,2.2446,2.2819,2.3551,2.3279,2.3505,2.4119,2.4294,2.4569,2.497,2.5237,2.5291,2.5197,2.5398,2.5692,2.5931,2.6038,2.6198,2.6265,2.6252,2.6053,2.5752,2.5412,2.501,2.4804,2.4444,2.424,2.424,2.4023,2.3808,2.3669,2.3678,2.3737,2.4105,2.4377,2.4599,2.4599,2.4599,2.4599,2.4599,2.4599,2.4599,2.4613,2.481,2.5104,2.5384,2.5545,2.5745,2.5919,2.5985,2.5932,2.5932,2.5972,2.6026,2.6159,2.6279,2.6199,2.6319,2.64,2.64,2.64,2.64,2.64,2.64,2.64,2.64,2.64,2.64,2.64,2.6413,2.66,2.6734,2.6667,2.6974,2.7055,2.6867,2.6841,2.6841,2.6787,2.7041,2.7242,2.7229,2.7188,2.7216,2.7188,2.7331,2.7988,2.8849,2.9884,3.067,3.1891,3.3278,3.4216,3.505,3.629,3.7426,3.7519,3.7446,3.7373,3.7299,3.7079,3.6896,3.6841,3.6878,3.6951,3.6878,3.6695,3.6457,3.62,3.6219,3.6219,3.6548,3.6805,3.7079,2.252,2.2819,2.2446,2.2558,2.293,2.2905,2.3104,2.3539,2.3898,2.4269,2.4655,2.4933,2.5077,2.509,2.5277,2.5545,2.5825,2.5944,2.6118,2.6293,2.6333,2.6149,2.578,2.5414,2.4997,2.4699,2.4287,2.4071,2.4111,2.3615,2.3352,2.3215,2.3229,2.339,2.3983,2.4428,2.4613,2.4613,2.4589,2.4639,2.4653,2.4639,2.4599,2.4693,2.477,2.505,2.5398,2.5585,2.5838,2.6172,2.6253,2.6253,2.6266,2.6279,2.6319,2.6346,2.6373,2.6373,2.64,2.64,2.64,2.64,2.64,2.64,2.64,2.64,2.64,2.64,2.64,2.6413,2.6493,2.6653,2.6774,2.6881,2.7162,2.7188,2.6987,2.7014,2.7014,2.7054,2.7161,2.7322,2.7322,2.7336,2.7349,2.7243,2.6961,2.7351,2.8058,2.855,2.9384,3.0285,3.166,3.3013,3.4222,3.6365,3.746,3.7572,3.7574,3.7428,3.7446,3.7428,3.7226,3.697,3.7061,3.7263,3.7208,3.7098,3.686,3.6603,3.6255,3.6311,3.6658,3.7006,3.7244,2.2371,2.2495,2.2334,2.2371,2.2483,2.2483,2.2707,2.3116,2.3674,2.4081,2.428,2.4608,2.4746,2.4799,2.493,2.5224,2.5611,2.5678,2.5865,2.636,2.6347,2.6149,2.578,2.5345,2.4952,2.4506,2.4044,2.3714,2.3634,2.3277,2.3058,2.2923,2.3153,2.3392,2.3943,2.4444,2.4818,2.4593,2.4706,2.493,2.4903,2.477,2.4706,2.4903,2.4917,2.5144,2.5518,2.5678,2.5985,2.6333,2.6386,2.64,2.64,2.64,2.64,2.64,2.64,2.64,2.64,2.64,2.64,2.64,2.64,2.64,2.64,2.64,2.64,2.64,2.64,2.6466,2.6667,2.6947,2.7068,2.6974,2.7054,2.6987,2.6921,2.7108,2.7215,2.7268,2.7403,2.7657,2.7764,2.759,2.755,2.7563,2.7348,2.7348,2.7905,2.7864,2.8304,2.8917,3.0046,3.1626,3.3355,3.5517,3.7008,3.7299,3.7318,3.7281,3.7391,3.7519,3.7409,3.7098,3.7336,3.7594,3.7556,3.7519,3.7299,3.7024,3.6695,3.6512,3.6786,3.7079,3.7356,2.2308,2.2308,2.2308,2.2308,2.2308,2.2308,2.252,2.2968,2.3525,2.3809,2.3896,2.423,2.4377,2.4428,2.4578,2.4919,2.5426,2.534,2.5632,2.6122,2.6188,2.5911,2.5514,2.5236,2.4804,2.4291,2.38,2.3418,2.3339,2.3155,2.3036,2.303,2.3313,2.3552,2.396,2.429,2.4778,2.4678,2.4918,2.505,2.5037,2.501,2.4997,2.5077,2.5184,2.5384,2.5625,2.5904,2.6131,2.6306,2.64,2.64,2.64,2.64,2.64,2.64,2.64,2.64,2.64,2.64,2.64,2.64,2.64,2.64,2.64,2.64,2.64,2.64,2.64,2.6573,2.68,2.7108,2.7134,2.7028,2.7068,2.7001,2.6894,2.7068,2.7161,2.7241,2.7495,2.7844,2.8085,2.7924,2.7722,2.7777,2.7764,2.7777,2.7736,2.7762,2.7863,2.8467,2.9546,3.1428,3.3136,3.4781,3.6053,3.6854,3.6887,3.6782,3.7189,3.7318,3.7263,3.7336,3.7702,3.7977,3.8071,3.7979,3.7778,3.7482,3.7189,3.7043,3.7024,3.7226,3.7558,2.2308,2.2308,2.2308,2.2308,2.2308,2.2308,2.252,2.2893,2.3215,2.3401,2.3451,2.3822,2.3957,2.4068,2.4377,2.4794,2.5156,2.4981,2.527,2.5623,2.5753,2.5462,2.5249,2.4998,2.4591,2.4128,2.3641,2.33,2.3118,2.3137,2.3113,2.334,2.3803,2.3915,2.3993,2.4227,2.4609,2.4661,2.5066,2.519,2.5177,2.5306,2.5317,2.5358,2.5438,2.5677,2.5877,2.6051,2.6159,2.6306,2.64,2.64,2.64,2.64,2.64,2.64,2.64,2.64,2.64,2.64,2.64,2.64,2.64,2.64,2.64,2.64,2.6426,2.6466,2.6507,2.6667,2.6854,2.6974,2.7081,2.7121,2.7242,2.7108,2.6867,2.6894,2.6961,2.7148,2.7468,2.7762,2.8045,2.8005,2.7736,2.7791,2.7764,2.7697,2.7764,2.8031,2.8191,2.8589,2.9866,3.1682,3.3185,3.43,3.5171,3.6019,3.6029,3.6012,3.651,3.7226,3.7391,3.7647,3.8124,3.8362,3.8325,3.8289,3.8197,3.794,3.7702,3.7519,3.7464,3.7592,3.7888,2.2308,2.2308,2.2308,2.2308,2.2308,2.2308,2.2371,2.252,2.2856,2.3042,2.3079,2.3414,2.3587,2.3587,2.3711,2.4017,2.4288,2.447,2.4714,2.4957,2.52,2.4972,2.4811,2.4691,2.4338,2.3928,2.3499,2.3257,2.3355,2.3283,2.3538,2.3983,2.4222,2.4243,2.4348,2.4532,2.4506,2.4558,2.51,2.5279,2.5264,2.5381,2.5445,2.5588,2.5706,2.5919,2.6024,2.6198,2.6306,2.636,2.64,2.64,2.64,2.64,2.64,2.64,2.64,2.64,2.64,2.64,2.64,2.64,2.64,2.64,2.64,2.6413,2.6466,2.652,2.6587,2.672,2.6921,2.7068,2.7081,2.7094,2.7148,2.6974,2.6734,2.6653,2.6747,2.7081,2.7402,2.7696,2.7978,2.7884,2.7655,2.7724,2.7697,2.7617,2.7657,2.7898,2.808,2.8411,2.9902,3.1638,3.2497,3.353,3.4341,3.504,3.502,3.5518,3.6754,3.7391,3.7592,3.7904,3.8307,3.849,3.8545,3.849,3.8398,3.8453,3.827,3.8087,3.7998,3.8032,3.8069,2.2308,2.2308,2.2308,2.2308,2.2308,2.2308,2.2308,2.2334,2.2558,2.2669,2.2707,2.3042,2.3191,2.3228,2.3389,2.3641,2.3946,2.3871,2.4072,2.4462,2.4626,2.4606,2.4522,2.4427,2.4273,2.3851,2.3414,2.315,2.3307,2.3512,2.3741,2.4321,2.4537,2.464,2.4784,2.5007,2.4771,2.4655,2.4761,2.514,2.5244,2.5257,2.5491,2.5673,2.5805,2.5949,2.6119,2.6333,2.6373,2.6386,2.64,2.64,2.64,2.64,2.64,2.64,2.64,2.64,2.64,2.64,2.64,2.64,2.64,2.64,2.64,2.64,2.648,2.6547,2.6627,2.676,2.7001,2.7201,2.7108,2.7028,2.6894,2.6747,2.6587,2.644,2.6653,2.6987,2.7308,2.7602,2.7696,2.7602,2.7509,2.7442,2.7375,2.7281,2.7376,2.7576,2.7593,2.7743,2.9561,3.1426,3.2047,3.2422,3.3286,3.3792,3.3848,3.4664,3.6507,3.7592,3.7849,3.8124,3.8435,3.8545,3.86,3.86,3.8563,3.86,3.86,3.8417,3.827,3.8289,3.8307,2.2308,2.2308,2.2308,2.2308,2.2308,2.2308,2.2308,2.2308,2.2334,2.2308,2.2408,2.2707,2.2856,2.2856,2.3042,2.3304,2.3405,2.3315,2.3474,2.3996,2.4009,2.4041,2.4202,2.435,2.4056,2.3823,2.3548,2.3208,2.3129,2.3446,2.4025,2.4587,2.5158,2.5304,2.5172,2.549,2.5199,2.4539,2.4467,2.4681,2.4837,2.4966,2.5187,2.5309,2.557,2.5845,2.6122,2.6307,2.6347,2.6347,2.6386,2.6386,2.64,2.64,2.64,2.64,2.64,2.64,2.64,2.64,2.64,2.64,2.64,2.64,2.64,2.64,2.6453,2.6587,2.668,2.6774,2.6987,2.7068,2.7055,2.6907,2.6774,2.6627,2.6493,2.644,2.66,2.6894,2.7081,2.7375,2.7509,2.7415,2.7228,2.7161,2.7041,2.6947,2.7014,2.7215,2.7432,2.7457,2.9234,3.0719,3.0276,3.0829,3.1976,3.249,3.2789,3.444,3.67,3.7607,3.8105,3.8325,3.8527,3.8563,3.86,3.86,3.86,3.86,3.86,3.86,3.8563,3.8527,3.849,2.2308,2.2308,2.2308,2.2308,2.2308,2.2308,2.2308,2.2308,2.2308,2.2308,2.2334,2.2408,2.2483,2.252,2.2595,2.2743,2.2717,2.2877,2.2896,2.3153,2.3275,2.3512,2.3531,2.3714,2.3636,2.3545,2.3396,2.3378,2.3563,2.3907,2.4422,2.5277,2.5514,2.5289,2.5514,2.5805,2.5117,2.448,2.4286,2.4331,2.45,2.4842,2.5119,2.5147,2.5289,2.5329,2.5554,2.5792,2.5872,2.5951,2.6268,2.6347,2.64,2.64,2.64,2.64,2.64,2.64,2.64,2.64,2.64,2.64,2.64,2.64,2.64,2.64,2.6466,2.6613,2.668,2.6814,2.6881,2.6907,2.6948,2.6787,2.6667,2.6533,2.64,2.648,2.6573,2.6747,2.6907,2.7068,2.7241,2.7188,2.7001,2.6827,2.664,2.6547,2.6587,2.6774,2.7523,2.7896,2.9141,3.0009,2.9239,2.9651,3.102,3.2031,3.2484,3.4486,3.6857,3.7639,3.8234,3.8435,3.86,3.86,3.86,3.86,3.86,3.86,3.86,3.86,3.86,3.8563,3.8582,2.2308,2.2308,2.2308,2.2308,2.2308,2.2308,2.2308,2.2308,2.2308,2.2308,2.2308,2.2308,2.2308,2.2308,2.2308,2.2308,2.2332,2.2441,2.2636,2.277,2.2816,2.3024,2.3106,2.3188,2.3263,2.3261,2.3273,2.3429,2.381,2.4044,2.4497,2.5158,2.509,2.5249,2.5634,2.517,2.4891,2.4492,2.416,2.416,2.4252,2.4412,2.4691,2.4731,2.4851,2.4891,2.513,2.5408,2.5554,2.5832,2.6188,2.6347,2.64,2.64,2.64,2.64,2.64,2.64,2.64,2.64,2.64,2.64,2.64,2.64,2.64,2.64,2.64,2.652,2.6533,2.66,2.6734,2.6774,2.68,2.672,2.6587,2.6453,2.64,2.6426,2.6587,2.6774,2.6881,2.6907,2.7028,2.7014,2.6827,2.6627,2.6426,2.6413,2.64,2.64,2.7167,2.7794,2.8752,2.874,2.7848,2.8777,3.0455,3.1338,3.2275,3.4595,3.6818,3.7709,3.8362,3.8508,3.86,3.86,3.86,3.86,3.86,3.86,3.86,3.86,3.8618,3.8637,3.8637,2.2308,2.2308,2.2308,2.2308,2.2308,2.2308,2.2308,2.2308,2.2308,2.2308,2.2308,2.2308,2.2308,2.2308,2.2308,2.2308,2.232,2.2357,2.2478,2.2562,2.2661,2.2707,2.284,2.2997,2.3058,2.3143,2.3203,2.3297,2.3493,2.3842,2.4175,2.4495,2.4731,2.4891,2.4771,2.4731,2.4731,2.4332,2.408,2.408,2.396,2.38,2.4092,2.4292,2.4452,2.4572,2.4811,2.509,2.5289,2.5713,2.607,2.6228,2.6307,2.6307,2.64,2.64,2.64,2.64,2.64,2.64,2.64,2.64,2.6386,2.64,2.64,2.64,2.64,2.6453,2.6453,2.6466,2.6587,2.664,2.6653,2.672,2.6587,2.6453,2.644,2.6426,2.6587,2.6734,2.6774,2.6774,2.676,2.672,2.6653,2.6466,2.64,2.64,2.64,2.64,2.6756,2.6969,2.7386,2.7091,2.665,2.8295,3.0246,3.1434,3.2615,3.4855,3.6685,3.7597,3.827,3.8545,3.86,3.86,3.86,3.86,3.86,3.86,3.86,3.8618,3.8765,3.8765,3.871,2.2308,2.2308,2.2308,2.2308,2.2308,2.2308,2.2308,2.2308,2.2296,2.2308,2.2296,2.2296,2.2308,2.2308,2.2308,2.2308,2.2308,2.2308,2.2308,2.2369,2.2429,2.2441,2.2526,2.2719,2.2889,2.3046,2.3176,2.3342,2.3451,2.3726,2.4099,2.444,2.4467,2.4679,2.4931,2.4798,2.4455,2.4188,2.4,2.392,2.388,2.38,2.3852,2.3932,2.3932,2.396,2.412,2.4452,2.4811,2.5329,2.5872,2.607,2.6188,2.6228,2.6347,2.64,2.64,2.6347,2.6347,2.6386,2.6386,2.6307,2.6307,2.64,2.64,2.64,2.6453,2.6587,2.6573,2.648,2.6533,2.6493,2.6507,2.672,2.6734,2.6613,2.6547,2.652,2.656,2.66,2.6573,2.656,2.6533,2.6533,2.652,2.64,2.64,2.64,2.64,2.64,2.64,2.6426,2.648,2.6479,2.6558,2.8432,3.0227,3.1454,3.3049,3.5313,3.6893,3.7566,3.8105,3.849,3.86,3.86,3.86,3.86,3.86,3.86,3.86,3.8655,3.882,3.8856,3.8765]},{"header":{"parameterUnit":"m.s-1","parameterCategory":1,"la1":31.0,"la2":29.5877,"lo1":-88.7671,"lo2":-86.6584,"dy":0.0162,"dx":0.0185,"nx":115,"ny":88,"refTime":"2023-11-04T06:00:00:Z","depth":0,"parameterNumber":3,"parameterNumberName":"V-component_of_WINDS"},"data":[0.0,0.0,0.0,0.0,0.0,0.0,0.0,0.0,0.0,0.0,0.0,0.0,0.0,0.0,0.0,0.0,0.0,0.0,0.0,0.0,0.0,0.0,0.0,0.0,0.0,0.0,0.0,0.0,0.0,0.0,0.0,0.0,0.0,0.0,0.0,0.0,0.0,0.0,0.0,0.0,0.0,0.0,0.0,0.0,0.0,0.0,0.0,0.0,0.0,0.0,0.0,0.0,0.0,0.0,0.0,0.0,0.0,0.0,0.0,0.0,0.0,0.0,0.0,0.0,0.0,0.0,0.0,0.0,0.0,0.0,0.0,0.0,0.0,0.0,0.0,0.0,0.0,0.0,0.0,0.0,0.0,0.0,0.0,0.0,0.0,0.0,0.0,0.0,0.0,0.0,0.0,0.0,0.0,0.0,0.0,0.0,0.0,0.0,0.0,0.0,0.0,0.0,0.0,0.0,0.0,0.0,0.0,0.0,0.0,0.0,0.0,0.0,0.0,0.0,0.0,0.0,0.0,0.0,0.0,0.0,0.0,0.0,0.0,0.0,0.0,0.0,0.0,0.0,0.0,0.0,0.0,0.0,0.0,0.0,0.0,0.0,0.0,0.0,0.0,0.0,0.0,0.0,0.0,0.0,0.0,0.0,0.0,0.0,0.0,0.0,0.0,0.0,0.0,0.0,0.0,0.0,0.0,0.0,0.0,0.0,0.0,0.0,0.0,0.0,0.0,0.0,0.0,0.0,0.0,0.0,0.0,0.0,0.0,0.0,0.0,0.0,0.0,0.0,0.0,0.0,0.0,0.0,0.0,0.0,0.0,0.0,0.0,0.0,0.0,0.0,0.0,0.0,0.0,0.0,0.0,0.0,0.0,0.0,0.0,0.0,0.0,0.0,0.0,0.0,0.0,0.0,0.0,0.0,0.0,0.0,0.0,0.0,0.0,0.0,0.0,0.0,0.0,0.0,0.0,0.0,0.0,0.0,0.0,0.0,0.0,0.0,0.0,0.0,0.0,0.0,0.0,0.0,0.0,0.0,0.0,0.0,0.0,0.0,0.0,0.0,0.0,0.0,0.0,0.0,0.0,0.0,0.0,0.0,0.0,0.0,0.0,0.0,0.0,0.0,0.0,0.0,0.0,0.0,0.0,0.0,0.0,0.0,0.0,0.0,0.0,0.0,0.0,0.0,0.0,0.0,0.0,0.0,0.0,0.0,0.0,0.0,0.0,0.0,0.0,0.0,0.0,0.0,0.0,0.0,0.0,0.0,0.0,0.0,0.0,0.0,0.0,0.0,0.0,0.0,0.0,0.0,0.0,0.0,0.0,0.0,0.0,0.0,0.0,0.0,0.0,0.0,0.0,0.0,0.0,0.0,0.0,0.0,0.0,0.0,0.0,0.0,0.0,0.0,0.0,0.0,0.0,0.0,0.0,0.0,0.0,0.0,0.0,0.0,0.0,0.0,0.0,0.0,0.0,0.0,0.0,0.0,0.0,0.0,0.0,0.0,0.0,0.0,0.0,0.0,0.0,0.0,0.0,0.0,0.0,0.0,0.0,0.0,0.0,0.0,0.0,0.0,0.0,0.0,0.0,0.0,0.0,0.0,0.0,0.0,0.0,0.0,0.0,0.0,0.0,0.0,0.0,0.0,0.0,0.0,0.0,0.0,0.0,0.0,0.0,0.0,0.0,0.0,0.0,0.0,0.0,0.0,0.0,0.0,0.0,0.0,0.0,0.0,0.0,0.0,0.0,0.0,0.0,0.0,0.0,0.0,0.0,0.0,0.0,0.0,0.0,0.0,0.0,0.0,0.0,0.0,0.0,0.0,0.0,0.0,0.0,0.0,0.0,0.0,0.0,0.0,0.0,0.0,0.0,0.0,0.0,0.0,0.0,0.0,0.0,0.0,0.0,0.0,0.0,0.0,0.0,0.0,0.0,0.0,0.0,0.0,0.0,0.0,0.0,0.0,0.0,0.0,0.0,0.0,0.0,0.0,0.0,0.0,0.0,0.0,0.0,0.0,0.0,0.0,0.0,0.0,0.0,0.0,0.0,0.0,0.0,0.0,0.0,0.0,0.0,0.0,0.0,0.0,0.0,0.0,0.0,0.0,0.0,0.0,0.0,0.0,0.0,0.0,0.0,0.0,0.0,0.0,0.0,0.0,0.0,0.0,0.0,0.0,0.0,0.0,0.0,0.0,0.0,0.0,0.0,0.0,0.0,0.0,0.0,0.0,0.0,0.0,0.0,0.0,0.0,0.0,0.0,0.0,0.0,0.0,0.0,0.0,0.0,0.0,0.0,0.0,0.0,0.0,0.0,0.0,0.0,0.0,0.0,0.0,0.0,0.0,0.0,0.0,0.0,0.0,0.0,0.0,0.0,0.0,0.0,0.0,0.0,0.0,0.0,0.0,0.0,0.0,0.0,0.0,0.0,0.0,0.0,0.0,0.0,0.0,0.0,0.0,0.0,0.0,0.0,0.0,0.0,0.0,0.0,0.0,0.0,0.0,0.0,0.0,0.0,0.0,0.0,0.0,0.0,0.0,0.0,0.0,0.0,0.0,0.0,0.0,0.0,0.0,0.0,0.0,0.0,0.0,0.0,0.0,0.0,0.0,0.0,0.0,0.0,0.0,0.0,0.0,0.0,0.0,0.0,0.0,0.0,0.0,0.0,0.0,0.0,0.0,0.0,0.0,0.0,0.0,0.0,0.0,0.0,0.0,0.0,0.0,0.0,0.0,0.0,0.0,0.0,0.0,0.0,0.0,0.0,0.0,0.0,0.0,0.0,0.0,0.0,0.0,0.0,0.0,0.0,0.0,0.0,0.0,0.0,0.0,0.0,0.0,0.0,0.0,0.0,0.0,0.0,0.0,0.0,0.0,0.0,0.0,0.0,0.0,0.0,0.0,0.0,0.0,0.0,0.0,0.0,0.0,0.0,0.0,0.0,0.0,0.0,0.0,0.0,0.0,0.0,0.0,0.0,0.0,0.0,0.0,0.0,0.0,0.0,0.0,0.0,0.0,0.0,0.0,0.0,0.0,0.0,0.0,0.0,0.0,0.0,0.0,0.0,0.0,0.0,0.0,0.0,0.0,0.0,0.0,0.0,0.0,0.0,0.0,0.0,0.0,0.0,0.0,0.0,0.0,0.0,0.0,0.0,0.0,0.0,0.0,0.0,0.0,0.0,0.0,0.0,0.0,0.0,0.0,0.0,0.0,0.0,0.0,0.0,0.0,0.0,0.0,0.0,0.0,0.0,0.0,0.0,0.0,0.0,0.0,0.0,0.0,0.0,0.0,0.0,0.0,0.0,0.0,0.0,0.0,0.0,0.0,0.0,0.0,0.0,0.0,0.0,0.0,0.0,0.0,0.0,0.0,0.0,0.0,0.0,0.0,0.0,0.0,0.0,0.0,0.0,0.0,0.0,0.0,0.0,0.0,0.0,0.0,0.0,0.0,0.0,0.0,0.0,0.0,0.0,0.0,0.0,0.0,0.0,0.0,0.0,0.0,0.0,0.0,0.0,0.0,0.0,0.0,0.0,0.0,0.0,0.0,0.0,0.0,0.0,0.0,0.0,0.0,0.0,0.0,0.0,0.0,0.0,0.0,0.0,0.0,0.0,0.0,0.0,0.0,0.0,0.0,0.0,0.0,0.0,0.0,0.0,0.0,0.0,0.0,0.0,0.0,0.0,0.0,0.0,0.0,0.0,0.0,0.0,0.0,0.0,0.0,0.0,0.0,0.0,0.0,0.0,0.0,0.0,0.0,0.0,0.0,0.0,0.0,0.0,0.0,0.0,0.0,0.0,0.0,0.0,0.0,0.0,0.0,0.0,0.0,0.0,0.0,0.0,0.0,0.0,0.0,0.0,0.0,0.0,0.0,0.0,0.0,0.0,0.0,0.0,0.0,0.0,0.0,0.0,0.0,0.0,0.0,0.0,0.0,0.0,0.0,0.0,0.0,0.0,0.0,0.0,0.0,0.0,0.0,0.0,0.0,0.0,0.0,0.0,0.0,0.0,0.0,0.0,0.0,0.0,0.0,0.0,0.0,0.0,0.0,0.0,0.0,0.0,0.0,0.0,0.0,0.0,0.0,0.0,0.0,0.0,0.0,0.0,0.0,0.0,0.0,0.0,0.0,0.0,0.0,0.0,0.0,0.0,0.0,0.0,0.0,0.0,0.0,0.0,0.0,0.0,0.0,0.0,0.0,0.0,0.0,0.0,0.0,0.0,0.0,0.0,0.0,0.0,0.0,0.0,0.0,0.0,0.0,0.0,0.0,0.9903,0.0,0.0,0.0,0.0,0.0,0.0,0.0,0.0,0.0,0.0,0.0,0.0,0.0,0.0,0.0,0.0,0.0,0.0,0.0,0.0,0.0,0.0,0.0,0.0,0.0,0.0,0.0,0.0,0.0,0.0,0.0,0.0,0.0,0.0,0.0,0.0,0.0,0.0,0.0,0.0,0.0,0.0,0.0,0.0,0.0,0.0,0.0,0.0,0.0,0.0,0.0,0.0,0.0,0.0,0.0,0.0,0.0,0.0,0.0,0.0,0.0,0.0,0.0,0.0,0.0,0.0,0.0,0.0,0.0,0.0,0.0,0.0,0.0,0.0,0.0,0.0,0.0,0.0,0.0,0.0,0.0,0.0,0.0,0.0,0.0,0.0,0.0,0.0,0.0,0.0,0.0,0.0,0.0,0.0,0.0,0.0,0.0,0.0,0.0,0.0,0.0,0.0,0.0,0.0,0.0,0.0,0.0,0.0,0.0,0.0,1.0989,1.1635,1.0347,0.9789,1.0066,0.0,0.0,0.0,0.0,0.0,0.0,0.0,0.0,0.0,0.0,0.0,0.0,0.0,0.0,0.0,0.0,0.0,0.0,0.0,0.0,0.0,0.0,0.0,0.0,0.0,0.0,0.0,0.0,0.0,0.0,0.0,0.0,0.0,0.0,0.0,0.0,0.0,0.0,0.0,0.0,0.0,0.0,0.0,0.0,0.0,0.0,0.0,0.0,0.0,0.0,0.0,0.0,0.0,0.0,0.0,0.0,0.0,0.0,0.0,0.0,0.0,0.0,0.0,0.0,0.0,0.0,0.0,0.0,0.0,0.0,0.0,0.0,0.0,0.0,0.0,0.0,0.0,0.0,0.0,0.0,0.0,0.0,0.0,0.0,0.0,0.0,0.0,0.0,0.0,0.0,0.0,0.0,0.0,0.0,0.0,0.0,0.0,0.0,0.0,0.0,0.0,0.0,0.0,0.0,0.0,0.0,0.0,0.0,0.0,0.0,0.0,0.0,1.1461,1.08,1.0804,0.0,0.0,0.0,0.0,0.0,0.0,0.0,0.0,0.0,0.0,0.0,0.0,0.0,0.0,0.0,0.0,0.0,0.0,0.0,0.0,0.0,0.0,0.0,0.0,0.0,0.0,0.0,0.0,0.0,0.0,0.0,0.0,0.0,0.0,0.0,0.0,0.0,0.0,0.0,0.0,0.0,0.0,0.0,0.0,0.0,0.0,0.0,0.0,0.0,0.0,0.0,0.0,0.0,0.0,0.0,0.0,0.0,0.0,0.0,0.0,0.0,0.0,0.0,0.0,0.0,0.0,0.0,0.0,0.0,0.0,0.0,0.0,0.0,0.0,0.0,0.0,0.0,0.0,0.0,0.0,0.0,0.0,0.0,0.0,0.0,0.0,0.0,0.0,0.0,0.0,0.0,0.0,0.0,0.0,0.0,0.0,0.0,0.0,0.0,0.0,0.0,0.0,0.0,0.0,0.0,0.0,0.0,0.0,0.0,0.0,1.1415,1.3913,1.3267,0.0,1.2965,0.0,0.0,0.0,0.0,0.0,0.0,0.0,0.0,0.0,0.0,0.0,0.0,0.0,0.0,0.0,0.0,0.0,0.0,0.0,0.0,0.0,0.0,0.0,0.0,0.0,0.0,0.0,0.0,0.0,0.0,0.0,0.0,0.0,0.0,0.0,0.0,0.0,0.0,0.0,0.0,0.0,0.0,0.0,0.0,0.0,0.0,0.0,0.0,0.0,0.0,0.0,0.0,0.0,0.0,0.0,0.0,0.0,0.0,0.0,0.0,0.0,0.0,0.0,0.0,0.0,0.0,0.0,0.0,0.0,0.0,0.0,0.0,0.0,0.0,0.0,0.0,0.0,0.0,0.0,0.0,0.0,0.0,0.0,0.0,0.0,0.0,0.0,0.0,0.0,0.0,0.0,0.0,0.0,0.0,0.0,0.0,0.0,0.0,0.0,0.0,0.0,0.0,0.0,0.0,0.0,0.0,0.0,0.0,0.0,0.0,1.2072,1.3575,1.2965,1.2785,0.0,0.0,0.0,0.0,0.0,0.0,0.0,0.0,0.0,0.0,0.0,0.0,0.0,0.0,0.0,0.0,0.0,0.0,0.0,0.0,0.0,0.0,0.0,0.0,0.0,0.0,0.0,0.0,0.0,0.0,0.0,0.0,0.0,0.0,0.0,0.0,0.0,0.0,0.0,0.0,0.0,0.0,0.0,0.0,0.0,0.0,0.0,0.0,0.0,0.0,0.0,0.0,0.0,0.0,0.0,0.0,0.0,0.0,0.0,0.0,0.0,0.0,0.0,0.0,0.0,0.0,0.0,0.0,0.0,0.0,0.0,0.0,0.0,0.0,0.0,0.0,0.0,0.0,0.0,0.0,0.0,0.0,0.0,0.0,0.0,0.0,0.0,0.0,0.0,0.0,0.0,0.0,0.0,0.0,0.0,0.0,0.0,0.0,0.0,0.0,0.0,0.0,0.0,0.0,0.0,0.0,0.0,0.0,0.0,0.0,1.1861,1.2791,1.3944,1.3544,1.3273,1.3186,0.0,0.0,0.0,0.0,0.0,0.0,0.0,0.0,0.0,0.0,0.0,0.0,0.0,0.0,0.0,0.0,0.0,0.0,0.0,0.0,0.0,0.0,0.0,0.0,0.0,0.0,0.0,0.0,0.0,0.0,0.0,0.0,0.0,0.0,0.0,0.0,0.0,0.0,0.0,0.0,0.0,0.0,0.0,0.0,0.0,0.0,0.0,0.0,0.0,0.0,0.0,0.0,0.0,0.0,0.0,0.0,0.0,0.0,0.0,0.0,0.0,0.0,0.0,0.0,0.0,0.0,0.0,0.0,0.0,0.0,0.0,0.0,0.0,0.0,0.0,0.0,0.0,0.0,0.0,0.0,0.0,0.0,0.0,0.0,0.0,0.0,0.0,0.0,0.0,0.0,0.0,0.0,0.0,0.0,0.0,0.0,0.0,0.0,0.0,0.0,0.0,0.0,0.0,0.0,0.0,0.0,0.0,0.0,1.3734,1.2785,1.3421,1.5955,1.6024,1.5132,0.0,0.0,0.0,0.0,0.0,0.0,0.0,0.0,0.0,0.0,0.0,0.0,0.0,0.0,0.0,0.0,0.0,0.0,0.0,0.0,0.0,0.0,0.0,0.0,0.0,0.0,0.0,0.0,0.0,0.0,0.0,0.0,0.0,0.0,0.0,0.0,0.0,0.0,0.0,0.0,0.0,0.0,0.0,0.0,0.0,0.0,0.0,0.0,0.0,0.0,0.0,0.0,0.0,0.0,0.0,0.0,0.0,0.0,0.0,0.0,0.0,0.0,0.0,0.0,0.0,0.0,0.0,0.0,0.0,0.0,0.0,0.0,0.0,0.0,0.0,0.0,0.0,0.0,0.0,0.0,0.0,0.0,0.0,0.0,0.0,0.0,0.0,0.0,0.0,0.0,0.0,0.0,0.0,0.0,0.0,0.0,0.0,0.0,0.0,0.0,0.0,0.0,0.0,0.0,0.0,0.0,0.0,0.0,0.0,1.0294,1.1527,1.3883,1.7201,1.5009,1.3919,0.0,0.0,0.0,0.0,0.0,0.0,0.0,0.0,0.0,0.0,0.0,0.0,0.0,0.0,0.0,0.0,0.0,0.0,0.0,0.0,0.0,0.0,0.0,0.0,0.0,0.0,0.0,0.0,0.0,0.0,0.0,0.0,0.0,0.0,0.0,0.0,0.0,0.0,0.0,0.0,0.0,0.0,0.0,0.0,0.0,0.0,0.0,0.0,0.0,0.0,0.0,0.0,0.0,0.0,0.0,0.0,0.0,0.0,0.0,0.0,0.0,0.0,0.0,0.0,0.0,0.0,0.0,0.0,0.0,0.0,0.0,0.0,0.0,0.0,0.0,0.0,0.0,0.0,0.0,0.0,0.0,0.0,0.0,0.0,0.0,0.0,0.0,0.0,0.0,0.0,0.0,0.0,0.0,0.0,0.0,0.0,0.0,0.0,0.0,0.0,0.0,0.0,0.0,0.0,0.0,0.0,0.0,0.0,0.0,1.0101,0.0,1.5248,1.7293,1.4916,1.3513,0.0,0.0,0.0,0.0,0.0,0.0,0.0,0.0,0.0,0.0,0.0,0.0,0.0,0.0,0.0,0.0,0.0,0.0,0.0,0.0,0.0,0.0,0.0,0.0,0.0,0.0,0.0,0.0,0.0,0.0,0.0,0.0,0.0,0.0,0.0,0.0,0.0,0.0,0.0,0.0,0.0,0.0,0.0,0.0,0.0,0.0,0.0,0.0,0.0,0.0,0.0,0.0,0.0,0.0,0.0,0.0,0.0,0.0,0.0,0.0,0.0,0.0,0.0,0.0,0.0,0.0,0.0,0.0,0.0,0.0,0.0,0.0,0.0,0.0,0.0,0.0,0.0,0.0,0.0,0.0,0.0,0.0,0.0,0.0,0.0,0.0,0.0,0.0,0.0,0.0,0.0,0.0,0.0,0.0,0.0,0.0,0.0,0.0,0.0,0.0,0.0,0.0,0.0,0.0,0.0,0.0,0.0,0.0,1.0158,1.4006,1.6632,1.7431,1.6317,1.614,1.4264,0.0,0.0,0.0,0.0,0.0,0.0,0.0,0.0,0.0,0.0,0.0,0.0,0.0,0.0,0.0,0.0,0.0,0.0,0.0,0.0,0.0,0.0,0.0,0.0,0.0,0.0,0.0,0.0,0.0,0.0,0.0,0.0,0.0,0.0,0.0,0.0,0.0,0.0,0.0,0.0,0.0,0.0,0.0,0.0,0.0,0.0,0.0,0.0,0.0,0.0,0.0,0.0,0.0,0.0,0.0,0.0,0.0,0.0,0.0,0.0,0.0,0.0,0.0,0.0,0.0,0.0,0.0,0.0,0.0,0.0,0.0,0.0,0.0,0.0,0.0,0.0,0.0,0.0,0.0,0.0,0.0,0.0,0.0,0.0,0.0,0.0,0.0,0.0,0.0,0.0,0.0,0.0,0.0,0.0,0.0,0.0,0.0,0.0,0.0,0.0,0.0,0.0,0.0,0.0,0.0,0.0,0.0,0.0,0.0,1.355,1.5679,1.7523,1.8854,1.6283,1.4886,0.0,0.0,0.0,0.0,0.0,0.0,0.0,0.0,0.0,0.0,0.0,0.0,0.0,0.0,0.0,0.0,0.0,0.0,0.0,0.0,0.0,0.0,0.0,0.0,0.0,0.0,0.0,0.0,0.0,0.0,0.0,0.0,0.0,0.0,0.0,0.0,0.0,0.0,0.0,0.0,0.0,0.0,0.0,0.0,0.0,0.0,0.0,0.0,0.0,0.0,0.0,0.0,0.0,0.0,0.0,0.0,0.0,0.0,0.0,0.0,0.0,0.0,0.0,0.0,0.0,0.0,0.0,0.0,0.0,0.0,0.0,0.0,0.0,0.0,0.0,0.0,0.0,0.0,0.0,0.0,0.0,0.0,0.0,0.0,0.0,0.0,0.0,0.0,0.0,0.0,0.0,0.0,0.0,0.0,0.0,0.0,0.0,0.0,0.0,0.0,0.0,0.0,0.0,0.0,0.0,0.0,0.0,0.0,0.0,1.6321,1.7946,1.93,2.028,1.7814,1.6352,1.6017,0.0,0.0,0.0,0.0,0.0,0.0,0.0,0.0,0.0,0.0,0.0,0.0,0.0,0.0,0.0,0.0,0.0,0.0,0.0,0.0,0.0,0.0,0.0,0.0,0.0,0.0,0.0,0.0,0.0,0.0,0.0,0.0,0.0,0.0,0.0,0.0,0.0,0.0,0.0,0.0,0.0,0.0,0.0,0.0,0.0,0.0,0.0,0.0,0.0,0.0,0.0,0.0,0.0,0.0,0.0,0.0,0.0,0.0,0.0,0.0,0.0,0.0,0.0,0.0,0.0,0.0,0.0,0.0,0.0,0.0,0.0,0.0,0.0,0.0,0.0,0.0,0.0,0.0,0.0,0.0,0.0,0.0,0.0,0.0,0.0,0.0,0.0,0.0,0.0,0.0,0.0,0.0,0.0,0.0,0.0,0.0,0.0,0.0,0.0,0.0,0.0,0.0,0.0,0.0,0.0,0.0,0.0,0.0,2.1473,2.2902,2.2726,2.0826,2.0527,1.8585,0.0,0.0,0.0,0.0,0.0,0.0,0.0,0.0,0.0,0.0,0.0,0.0,0.0,0.0,0.0,0.0,0.0,0.0,0.0,0.0,0.0,0.0,0.0,0.0,0.0,0.0,0.0,0.0,0.0,0.0,0.0,0.0,0.0,0.0,0.0,0.0,0.0,0.0,0.0,0.0,0.0,0.0,0.0,0.0,0.0,0.0,0.0,0.0,0.0,0.0,0.0,0.0,0.0,0.0,0.0,0.0,0.0,0.0,0.0,0.0,0.0,0.0,0.0,0.0,0.0,0.0,0.0,0.0,0.0,0.0,0.0,0.0,0.0,0.0,0.0,0.0,0.0,0.0,0.0,0.0,0.0,0.0,0.0,0.0,0.0,0.0,0.0,0.0,0.0,0.0,0.0,0.0,0.0,0.0,0.0,0.0,0.0,0.0,0.0,0.0,0.0,0.0,0.0,0.0,0.0,0.0,0.0,0.0,0.0,2.4215,2.6584,2.7088,2.556,2.3096,2.1042,0.0,0.0,0.0,0.0,0.0,0.0,0.0,0.0,0.0,0.0,0.0,0.0,0.0,0.0,0.0,0.0,0.0,0.0,0.0,0.0,0.0,0.0,0.0,0.0,0.0,0.0,0.0,0.0,0.0,0.0,0.0,0.0,0.0,0.0,0.0,0.0,0.0,0.0,0.0,0.0,0.0,0.0,0.0,0.0,0.0,0.0,0.0,0.0,0.0,0.0,0.0,0.0,0.0,0.0,0.0,0.0,0.0,0.0,0.0,0.0,0.0,0.0,0.0,0.0,0.0,0.0,0.0,0.0,0.0,0.0,0.0,0.0,0.0,0.0,0.0,0.0,0.0,0.0,0.0,0.0,0.0,0.0,0.0,0.0,0.0,0.0,0.0,0.0,0.0,0.0,0.0,0.0,0.0,0.0,0.0,0.0,0.0,0.0,0.0,0.0,0.0,0.0,0.0,0.0,0.0,0.0,0.0,0.0,2.3743,2.6984,2.9415,3.0412,2.992,2.6934,2.4133,0.0,0.0,0.0,0.0,0.0,0.0,0.0,0.0,0.0,0.0,0.0,0.0,0.0,0.0,0.0,0.0,0.0,0.0,0.0,0.0,0.0,0.0,0.0,0.0,0.0,0.0,0.0,0.0,0.0,0.0,0.0,0.0,0.0,0.0,0.0,0.0,0.0,0.0,0.0,0.0,0.0,0.0,0.0,0.0,0.0,0.0,0.0,0.0,0.0,0.0,0.0,0.0,0.0,0.0,0.0,0.0,0.0,0.0,0.0,0.0,0.0,0.0,0.0,0.0,0.0,0.0,0.0,0.0,0.0,0.0,0.0,0.0,0.0,0.0,0.0,0.0,0.0,0.0,0.0,0.0,0.0,0.0,0.0,0.0,0.0,0.0,0.0,0.0,0.0,0.0,0.0,0.0,0.0,0.0,0.0,0.0,0.0,0.0,0.0,0.0,0.0,0.0,0.0,0.0,0.0,0.0,0.0,0.0,2.5641,2.9538,3.1582,3.292,3.3398,3.0896,2.7331,0.0,0.0,0.0,0.0,0.0,0.0,0.0,0.0,0.0,0.0,0.0,0.0,0.0,0.0,0.0,0.0,0.0,0.0,0.0,0.0,0.0,0.0,0.0,0.0,0.0,0.0,0.0,0.0,0.0,0.0,0.0,0.0,0.0,0.0,0.0,0.0,0.0,0.0,0.0,0.0,0.0,0.0,0.0,0.0,0.0,0.0,0.0,0.0,0.0,0.0,0.0,0.0,0.0,0.0,0.0,0.0,0.0,0.0,0.0,0.0,0.0,0.0,0.0,0.0,0.0,0.0,0.0,0.0,0.0,0.0,0.0,0.0,0.0,0.0,0.0,0.0,0.0,0.0,0.0,0.0,0.0,0.0,0.0,0.0,0.0,0.0,0.0,0.0,0.0,0.0,0.0,0.0,0.0,0.0,0.0,0.0,0.0,0.0,0.0,0.0,0.0,0.0,0.0,0.0,0.0,0.0,0.0,0.0,2.798,3.0918,3.2981,3.4121,3.4244,3.1464,2.8426,0.0,0.0,0.0,0.0,0.0,0.0,0.0,0.0,0.0,0.0,0.0,0.0,0.0,0.0,0.0,0.0,0.0,0.0,0.0,0.0,0.0,0.0,0.0,0.0,0.0,0.0,0.0,0.0,0.0,0.0,0.0,0.0,0.0,0.0,0.0,0.0,0.0,0.0,0.0,0.0,0.0,0.0,0.0,0.0,0.0,0.0,0.0,0.0,1.7425,0.0,0.0,0.0,0.0,0.0,0.0,0.0,0.0,0.0,0.0,0.0,0.0,0.0,0.0,0.0,0.0,0.0,0.0,0.0,0.0,0.0,0.0,0.0,0.0,0.0,0.0,0.0,0.0,0.0,0.0,0.0,0.0,0.0,0.0,0.0,0.0,0.0,0.0,0.0,0.0,0.0,0.0,0.0,0.0,0.0,0.0,0.0,0.0,0.0,0.0,0.0,0.0,0.0,0.0,0.0,0.0,0.0,0.0,0.0,2.9643,3.2273,3.4059,3.5121,3.5352,3.3199,3.027,0.0,0.0,0.0,0.0,0.0,0.0,0.0,0.0,0.0,0.0,0.0,0.0,0.0,0.0,0.0,0.0,0.0,0.0,0.0,0.0,0.0,0.0,0.0,0.0,0.0,0.0,0.0,0.0,0.0,0.0,0.0,0.0,0.0,0.0,0.0,0.0,0.0,0.0,0.0,0.0,0.0,0.0,0.0,0.0,0.0,0.0,0.0,0.0,0.0,0.0,0.0,0.0,0.0,0.0,0.0,0.0,0.0,0.0,0.0,0.0,0.0,0.0,0.0,0.0,0.0,0.0,0.0,0.0,0.0,0.0,0.0,0.0,0.0,0.0,0.0,0.0,0.0,0.0,0.0,0.0,0.0,0.0,0.0,0.0,0.0,0.0,0.0,0.0,0.0,0.0,0.0,0.0,0.0,0.0,0.0,0.0,0.0,0.0,0.0,0.0,0.0,0.0,0.0,0.0,0.0,0.0,0.0,2.7292,3.0751,3.349,3.4952,3.5937,3.6461,3.4991,3.211,2.7809,0.0,0.0,0.0,0.0,0.0,0.0,0.0,0.0,0.0,0.0,0.0,0.0,0.0,0.0,0.0,0.0,0.0,0.0,0.0,0.0,0.0,0.0,0.0,0.0,0.0,0.0,0.0,0.0,0.0,0.0,0.0,0.0,0.0,0.0,0.0,0.0,0.0,0.0,1.577,1.8559,0.0,0.0,0.0,0.0,0.0,0.0,0.0,0.0,1.9797,0.0,0.0,0.0,0.0,0.0,0.0,0.0,0.0,0.0,0.0,0.0,0.0,0.0,0.0,0.0,0.0,0.0,0.0,0.0,0.0,0.0,0.0,0.0,0.0,0.0,0.0,0.0,0.0,0.0,0.0,0.0,0.0,0.0,0.0,0.0,0.0,0.0,0.0,0.0,0.0,0.0,0.0,0.0,0.0,0.0,0.0,0.0,0.0,0.0,0.0,0.0,0.0,0.0,0.0,0.0,0.0,2.7303,2.8707,3.0997,3.4258,3.5629,3.6399,3.6461,3.515,3.2598,2.8838,0.0,0.0,0.0,0.0,0.0,0.0,0.0,0.0,0.0,0.0,0.0,0.0,0.0,0.0,0.0,0.0,0.0,0.0,0.0,0.0,0.0,0.0,0.0,0.0,0.0,0.0,0.0,0.0,0.0,0.0,0.0,0.0,0.0,0.0,0.0,0.0,0.0,0.0,0.0,2.2154,2.3292,0.0,0.0,0.0,0.0,0.0,0.0,0.0,0.0,1.9932,0.0,0.0,0.0,0.0,0.0,0.0,0.0,0.0,0.0,0.0,0.0,0.0,0.0,0.0,0.0,0.0,0.0,0.0,0.0,0.0,0.0,0.0,0.0,0.0,0.0,0.0,0.0,0.0,0.0,0.0,0.0,0.0,0.0,0.0,0.0,0.0,0.0,0.0,0.0,0.0,0.0,0.0,0.0,0.0,0.0,0.0,0.0,0.0,0.0,0.0,0.0,0.0,0.0,0.0,0.0,2.6615,2.9538,3.2238,3.489,3.628,3.7118,3.7352,3.4974,3.2291,0.0,0.0,0.0,0.0,0.0,0.0,0.0,0.0,0.0,0.0,0.0,0.0,0.0,0.0,0.0,0.0,0.0,0.0,0.0,0.0,0.0,0.0,0.0,0.0,0.0,0.0,0.0,0.0,0.0,0.0,0.0,0.0,0.0,0.0,0.0,0.0,0.0,0.0,0.0,0.0,2.387,2.4652,2.4909,0.0,0.0,0.0,0.0,0.0,0.0,2.2047,2.1188,0.0,0.0,0.0,0.0,0.0,0.0,0.0,0.0,0.0,0.0,0.0,0.0,0.0,0.0,0.0,0.0,0.0,0.0,0.0,0.0,0.0,0.0,0.0,0.0,0.0,0.0,0.0,0.0,0.0,0.0,0.0,0.0,0.0,0.0,0.0,0.0,0.0,0.0,0.0,0.0,0.0,0.0,0.0,0.0,0.0,0.0,0.0,0.0,0.0,0.0,0.0,0.0,0.0,0.0,0.0,2.5888,3.0185,3.348,3.5713,3.6956,3.781,3.8246,3.5156,3.2357,0.0,0.0,0.0,0.0,0.0,0.0,0.0,0.0,0.0,0.0,0.0,0.0,0.0,0.0,0.0,0.0,0.0,0.0,0.0,0.0,0.0,0.0,0.0,0.0,0.0,0.0,0.0,0.0,0.0,0.0,0.0,0.0,0.0,0.0,0.0,0.0,0.0,0.0,0.0,0.0,0.0,2.5959,2.6081,2.5487,0.0,0.0,0.0,0.0,2.5444,2.4707,0.0,0.0,0.0,0.0,0.0,0.0,0.0,0.0,0.0,0.0,0.0,0.0,0.0,0.0,0.0,0.0,0.0,0.0,0.0,0.0,0.0,0.0,0.0,0.0,0.0,0.0,0.0,0.0,0.0,0.0,0.0,0.0,0.0,0.0,0.0,0.0,0.0,0.0,0.0,0.0,0.0,0.0,0.0,0.0,0.0,0.0,0.0,0.0,0.0,0.0,0.0,0.0,0.0,0.0,0.0,0.0,2.7815,3.081,3.3865,3.6915,3.782,3.8222,3.8292,3.6691,3.4043,0.0,0.0,0.0,0.0,0.0,0.0,0.0,0.0,0.0,0.0,0.0,0.0,0.0,0.0,0.0,0.0,0.0,0.0,0.0,0.0,0.0,0.0,0.0,0.0,0.0,0.0,0.0,0.0,0.0,0.0,0.0,0.0,0.0,0.0,0.0,0.0,0.0,0.0,0.0,0.0,0.0,2.8033,2.6117,2.693,2.769,0.0,0.0,2.7549,3.0081,2.9917,0.0,0.0,0.0,0.0,0.0,0.0,0.0,0.0,0.0,0.0,0.0,0.0,0.0,0.0,0.0,0.0,0.0,0.0,0.0,0.0,0.0,0.0,0.0,0.0,0.0,0.0,0.0,0.0,0.0,0.0,0.0,0.0,0.0,0.0,0.0,0.0,0.0,0.0,0.0,0.0,0.0,0.0,0.0,0.0,0.0,0.0,0.0,0.0,0.0,0.0,0.0,0.0,0.0,0.0,0.0,2.3442,2.821,3.1995,3.515,3.7715,3.8477,3.8987,3.9276,3.6248,3.3428,0.0,0.0,0.0,0.0,0.0,0.0,0.0,0.0,0.0,0.0,0.0,0.0,0.0,0.0,0.0,0.0,0.0,0.0,0.0,0.0,0.0,0.0,0.0,0.0,0.0,0.0,0.0,0.0,0.0,0.0,0.0,0.0,0.0,0.0,0.0,0.0,0.0,0.0,0.0,0.0,0.0,0.0,2.8938,2.9513,0.0,0.0,0.0,3.0029,3.1668,0.0,0.0,0.0,0.0,0.0,0.0,0.0,0.0,0.0,0.0,0.0,0.0,0.0,0.0,0.0,0.0,0.0,0.0,0.0,0.0,0.0,0.0,0.0,0.0,0.0,0.0,0.0,0.0,0.0,0.0,0.0,0.0,0.0,0.0,0.0,0.0,0.0,0.0,0.0,0.0,0.0,0.0,0.0,0.0,0.0,0.0,0.0,0.0,0.0,0.0,0.0,0.0,0.0,0.0,0.0,0.0,0.0,2.8919,3.34,3.6668,3.871,3.9226,3.9683,4.007,3.6321,0.0,0.0,0.0,0.0,0.0,0.0,0.0,0.0,0.0,0.0,0.0,0.0,0.0,0.0,0.0,0.0,0.0,0.0,0.0,0.0,0.0,0.0,0.0,0.0,0.0,0.0,0.0,1.0153,0.0,0.0,0.0,0.0,0.0,0.0,0.0,0.0,0.0,0.0,0.0,0.0,0.0,0.0,2.9544,3.1388,3.2132,3.2609,0.0,0.0,3.2793,3.3538,3.3398,3.215,0.0,0.0,0.0,0.0,0.0,0.0,0.0,0.0,0.0,0.0,0.0,0.0,0.0,0.0,0.0,0.0,0.0,0.0,0.0,0.0,0.0,0.0,0.0,0.0,0.0,0.0,0.0,0.0,0.0,0.0,0.0,0.0,0.0,0.0,0.0,0.0,0.0,0.0,0.0,0.0,0.0,0.0,0.0,0.0,0.0,0.0,0.0,0.0,0.0,0.0,0.0,0.0,0.0,0.0,2.579,3.0764,3.4986,3.8148,4.0229,4.0266,4.0238,4.0241,3.787,3.4855,0.0,0.0,0.0,0.0,0.0,0.0,0.0,0.0,0.0,0.0,0.0,0.0,0.0,0.0,0.0,0.0,0.0,0.0,0.0,0.0,0.0,0.0,0.0,0.0,0.0,0.0,0.0,0.0,0.0,0.0,0.0,0.0,0.0,0.0,0.0,0.0,0.0,0.0,0.0,0.0,0.0,3.1359,3.2135,3.4478,3.6368,0.0,3.6569,3.6368,3.7061,3.7599,3.6061,3.0276,0.0,0.0,0.0,0.0,0.0,0.0,0.0,0.0,0.0,0.0,0.0,0.0,0.0,0.0,0.0,0.0,0.0,0.0,0.0,0.0,0.0,0.0,0.0,0.0,0.0,0.0,0.0,0.0,0.0,0.0,0.0,0.0,0.0,0.0,0.0,0.0,0.0,0.0,0.0,0.0,0.0,0.0,0.0,0.0,0.0,0.0,0.0,0.0,0.0,0.0,0.0,0.0,0.0,2.6924,3.0925,3.5509,3.8722,4.0395,4.0448,4.0375,4.0288,3.8111,3.5338,0.0,0.0,0.0,0.0,0.0,0.0,0.0,0.0,0.0,0.0,0.0,0.0,0.0,0.0,0.0,0.0,0.0,0.0,0.0,0.0,0.0,0.0,0.0,0.0,0.0,0.0,0.0,0.0,1.6293,1.7038,1.7585,0.0,0.0,0.0,0.0,0.0,0.0,0.0,0.0,0.0,0.0,3.4343,3.5892,3.7335,0.0,0.0,3.8071,3.7871,3.8645,3.7554,3.5553,3.2368,3.0153,0.0,0.0,0.0,0.0,0.0,0.0,0.0,0.0,0.0,0.0,0.0,0.0,0.0,0.0,0.0,0.0,0.0,0.0,0.0,0.0,0.0,0.0,0.0,0.0,0.0,0.0,0.0,0.0,0.0,0.0,0.0,0.0,0.0,0.0,0.0,0.0,0.0,0.0,0.0,0.0,0.0,0.0,0.0,0.0,0.0,0.0,0.0,0.0,0.0,0.0,0.0,0.0,2.7632,3.1142,3.5853,3.9018,4.0585,4.0546,4.0461,4.0316,3.8338,3.5926,0.0,0.0,0.0,0.0,0.0,0.0,0.0,0.0,0.0,0.0,0.0,0.0,0.0,0.0,0.0,0.0,0.0,0.0,0.0,0.0,0.0,0.0,0.0,0.0,0.0,0.0,0.0,0.0,1.7913,1.8211,1.7869,0.0,0.0,0.0,0.0,0.0,0.0,0.0,0.0,0.0,0.0,3.672,3.8782,3.9607,3.9941,3.9828,3.9146,3.8775,3.9152,3.7599,3.5707,3.3722,0.0,0.0,0.0,0.0,0.0,0.0,0.0,0.0,0.0,0.0,0.0,0.0,0.0,0.0,0.0,0.0,0.0,0.0,0.0,0.0,0.0,0.0,0.0,0.0,0.0,0.0,0.0,0.0,0.0,0.0,1.2277,0.0,0.0,0.0,0.0,0.0,0.0,0.0,0.0,0.0,0.0,0.0,0.0,0.0,0.0,0.0,0.0,0.0,0.0,0.0,0.0,0.0,0.0,2.7884,3.1772,3.6167,3.9216,4.0836,4.0643,4.051,4.0451,3.8824,3.6772,3.4449,0.0,0.0,0.0,0.0,0.0,0.0,0.0,0.0,0.0,0.0,0.0,0.0,0.0,0.0,0.0,0.0,0.0,0.0,0.0,0.0,0.0,0.0,0.0,0.0,0.0,0.0,1.8098,1.8671,1.858,0.0,0.0,0.0,0.0,0.0,0.0,0.0,0.0,0.0,0.0,3.6168,3.82,4.0166,4.1076,4.1291,4.0614,3.992,3.9291,3.8738,3.8461,3.7307,0.0,0.0,0.0,0.0,0.0,0.0,0.0,0.0,0.0,0.0,0.0,0.0,0.0,0.0,0.0,0.0,0.0,0.0,0.0,0.0,0.0,0.0,0.0,0.0,0.0,0.0,0.0,1.8165,1.7522,0.0,0.0,0.0,0.0,0.0,0.0,0.0,0.0,0.0,0.0,0.0,2.8458,3.0364,0.0,0.0,0.0,0.0,0.0,0.0,0.0,0.0,0.0,0.0,0.0,0.0,2.9652,3.2517,3.6954,3.9778,4.086,4.0799,4.0716,4.0631,3.96,3.7194,3.3298,0.0,0.0,0.0,0.0,0.0,0.0,0.0,0.0,0.0,0.0,0.0,0.0,0.0,0.0,0.0,0.0,0.0,0.0,0.0,0.0,0.0,0.0,0.0,0.0,0.0,1.9577,0.0,0.0,0.0,0.0,0.0,0.0,0.0,0.0,0.0,0.0,0.0,3.2242,3.5414,3.8354,4.0478,4.1155,4.222,4.2681,0.0,0.0,0.0,0.0,0.0,0.0,0.0,0.0,0.0,0.0,0.0,0.0,0.0,0.0,3.6646,2.9673,2.7999,2.7692,2.7692,0.0,0.0,0.0,0.0,0.0,0.0,0.0,0.0,0.0,0.0,0.0,0.0,0.0,0.0,2.3151,0.0,2.1929,0.0,0.0,0.0,0.0,0.0,0.0,0.0,0.0,3.0412,3.2462,3.3777,3.5355,3.5156,0.0,3.3292,3.0294,0.0,0.0,0.0,0.0,0.0,0.0,0.0,0.0,3.0876,3.3672,3.7641,4.0089,4.0848,4.0881,4.0776,4.068,3.9887,3.7763,3.4166,3.153,2.8991,0.0,0.0,0.0,0.0,0.0,0.0,0.0,0.0,0.0,0.0,0.0,0.0,0.0,0.0,0.0,0.0,0.0,0.0,0.0,0.0,0.0,0.0,0.0,2.0897,0.0,0.0,0.0,0.0,0.0,0.0,0.0,0.0,0.0,2.8738,3.229,3.583,3.8617,4.0693,4.2109,4.2589,0.0,0.0,0.0,0.0,0.0,0.0,0.0,3.9985,4.1076,3.9801,3.8863,3.9462,4.1296,4.2171,4.0768,0.0,0.0,3.489,3.3275,3.2984,3.323,3.4122,3.4814,3.4599,3.5645,3.6753,0.0,0.0,0.0,0.0,0.0,0.0,0.0,0.0,2.7829,2.7933,0.0,2.6991,0.0,0.0,0.0,0.0,0.0,2.8345,0.0,0.0,3.7513,3.9533,3.9742,4.024,3.9546,3.787,3.9651,3.7989,3.2963,2.7208,0.0,0.0,0.0,0.0,0.0,0.0,3.1524,3.5214,3.8249,4.0158,4.0848,4.0798,4.076,4.068,3.9754,3.8566,3.7115,3.5429,3.322,3.0335,2.67,0.0,0.0,0.0,0.0,0.0,0.0,0.0,0.0,0.0,0.0,0.0,0.0,0.0,0.0,0.0,0.0,0.0,0.0,0.0,0.0,2.1926,0.0,0.0,0.0,0.0,0.0,0.0,0.0,0.0,0.0,0.0,3.3942,3.606,3.9123,4.2989,0.0,0.0,0.0,0.0,4.2995,4.3704,4.3217,4.3081,4.3716,4.3716,4.35,4.2988,0.0,0.0,4.2225,4.347,4.3944,4.1322,4.2633,4.3728,4.3605,4.1155,3.9661,4.0214,3.9907,3.9937,4.0536,4.1414,4.2479,3.4733,0.0,0.0,0.0,0.0,3.2175,3.4388,3.8373,3.6642,3.5471,3.4718,3.3217,0.0,0.0,0.0,0.0,0.0,0.0,3.4914,3.7933,3.9066,4.0774,4.2915,4.2602,4.2098,4.1585,4.164,4.0571,3.8537,3.5732,3.1308,2.5473,0.0,0.0,0.0,0.0,3.518,3.6915,3.9813,4.1193,4.0894,4.1364,4.1374,4.087,4.0377,3.9698,3.8742,3.7532,3.5791,3.3322,3.0717,0.0,0.0,0.0,0.0,0.0,0.0,0.0,0.0,0.0,0.0,0.0,0.0,0.0,0.0,0.0,0.0,0.0,0.0,0.0,2.1772,2.2603,2.3148,0.0,0.0,0.0,0.0,0.0,0.0,0.0,0.0,0.0,4.1149,4.1302,4.174,0.0,0.0,4.4199,4.4678,4.5222,4.5882,4.6617,4.6991,0.0,4.7421,4.6642,4.645,4.7695,4.8162,4.8168,4.7622,4.7483,4.7219,4.6357,4.6757,4.7157,4.7004,4.4572,4.2681,4.2712,4.3297,4.3864,4.4141,4.4849,4.5588,4.2642,3.8451,3.6836,3.7459,3.9418,3.8851,4.0771,4.4179,4.2607,4.1681,4.1101,3.9678,3.7308,3.435,3.3093,0.0,0.0,0.0,3.9486,4.2396,4.2371,4.3545,4.5527,4.5195,4.4816,4.454,4.4057,4.3423,4.2664,4.1767,3.8387,3.2844,0.0,0.0,3.211,3.5466,3.7916,3.9296,4.1412,4.2263,4.1826,4.1952,4.178,4.1331,4.0851,4.0365,3.992,3.9258,3.8073,3.6401,3.4166,3.119,0.0,0.0,0.0,0.0,0.0,0.0,0.0,0.0,0.0,0.0,0.0,1.72,1.4546,0.0,0.0,0.0,2.0346,2.2911,2.4904,2.6176,0.0,0.0,0.0,0.0,0.0,0.0,0.0,3.7665,3.9974,4.2488,4.568,4.578,4.5691,4.6069,4.6037,4.6157,4.6773,0.0,4.7648,4.8644,4.9134,4.9491,4.9765,4.9152,4.904,5.0218,5.0421,5.0512,5.078,5.0378,5.0153,5.0353,5.0183,4.9853,4.9573,4.7592,4.5915,4.5669,4.6223,4.6757,4.6788,4.7127,4.7527,4.9044,4.8163,4.4421,4.3484,4.4467,4.5087,4.6044,4.7134,4.639,4.6496,4.7068,4.5688,4.4006,4.2055,4.0047,0.0,4.2471,4.3228,4.4711,4.6858,4.6789,4.7134,4.7755,4.772,4.7341,4.6665,4.6686,4.6307,4.5604,4.5583,4.4169,4.14,3.7916,3.6708,3.7674,3.8502,3.9986,4.2056,4.2896,4.3276,4.3276,4.2516,4.2056,4.1987,4.1199,4.0748,4.0714,4.0436,3.997,3.9256,3.7101,3.4562,3.164,0.0,0.0,0.0,0.0,0.0,0.0,0.0,0.0,0.0,0.0,0.0,0.0,0.0,0.0,0.0,2.6271,0.0,2.9551,3.139,0.0,0.0,0.0,3.4323,3.5259,3.8231,4.0791,4.221,0.0,0.0,4.8259,4.9408,5.0199,5.0272,4.9112,4.8701,4.9921,4.9097,4.879,5.0149,5.0308,5.055,5.1363,5.1475,5.1559,5.1638,5.1401,5.1688,5.2208,5.2255,5.2553,5.2981,5.2633,5.1887,5.1265,5.0402,4.979,4.9048,4.8687,4.8553,4.8583,4.8635,4.8635,5.2718,5.2496,5.1515,5.0247,4.8861,4.9119,4.9767,5.0521,4.9771,4.9259,4.8845,4.7953,4.7013,4.6103,4.6151,4.6515,4.7196,4.7968,4.8637,4.9148,4.8548,4.8376,4.8513,4.7962,4.7617,4.7445,4.7445,4.7341,4.7169,4.7134,4.6789,4.6065,4.5169,4.2859,3.9399,4.1136,4.2378,4.2896,4.3655,4.4035,4.4035,4.331,4.2608,4.2021,4.1714,4.1263,4.0748,4.0424,4.022,4.0004,3.8841,3.7077,3.4664,3.0354,0.0,0.0,0.0,0.0,0.0,0.0,0.0,0.0,0.0,2.487,1.9383,0.0,2.6166,0.0,2.8721,3.0964,3.2245,3.3307,0.0,0.0,3.8054,3.943,4.2191,4.3238,4.4505,4.6395,4.7747,4.9237,5.1045,5.1551,5.2007,5.2533,5.1355,5.0503,5.0847,5.1184,5.1594,5.2398,5.2602,5.2922,5.3557,5.4245,5.4544,5.4613,5.4095,5.376,5.3907,5.3449,5.311,5.3292,5.3136,5.2865,5.2655,5.2492,5.2365,5.1939,5.0247,4.8789,4.9312,4.9456,4.9456,5.398,5.3997,5.4062,5.3327,5.2104,5.2101,5.2356,5.2714,5.2288,5.1719,5.1078,5.0399,4.989,4.9619,5.0032,5.0248,5.0326,5.0789,5.0962,5.0962,5.0513,5.0306,5.0272,4.9548,4.9203,4.9203,4.8858,4.872,4.872,4.8734,4.8548,4.8203,4.8203,4.6548,4.3457,4.4574,4.5057,4.4712,4.4734,4.4941,4.5251,4.3931,4.2965,4.2539,4.181,4.1051,4.0282,4.0045,3.9776,3.9374,3.8858,3.7813,3.6197,3.3163,3.0591,0.0,0.0,0.0,0.0,0.0,0.0,0.0,0.0,0.0,0.0,0.0,2.9715,3.026,3.3019,3.5506,3.7318,3.8725,4.0412,4.2632,4.3787,4.5136,4.707,4.7866,4.8827,5.0324,5.1074,5.1923,5.318,5.3701,5.3968,5.4093,5.3408,5.2722,5.2331,5.2583,5.299,5.345,5.3534,5.3839,5.4551,5.5244,5.5699,5.5664,5.5346,5.511,5.5445,5.5166,5.4934,5.5232,5.5046,5.4632,5.4287,5.3934,5.3718,5.3399,5.2056,5.0855,5.0705,5.041,5.0198,5.4301,5.4199,5.4328,5.4308,5.4239,5.411,5.4062,5.4062,5.4062,5.3766,5.3257,5.2728,5.2513,5.2479,5.2513,5.2513,5.2513,5.2479,5.2444,5.2341,5.2341,5.2306,5.2168,5.1548,5.1237,5.1203,5.0582,5.0237,5.0134,5.0134,4.9789,4.912,4.8996,4.8686,4.8169,4.8065,4.7582,4.6755,4.6052,4.5996,4.6548,4.4643,4.3483,4.3172,4.1792,4.0607,3.9733,3.9571,3.9168,3.8413,3.8342,3.7986,3.727,3.5622,3.4064,0.0,3.0499,0.0,0.0,0.0,0.0,0.0,0.0,0.0,0.0,3.2945,3.4074,3.5358,3.8242,4.0925,4.3165,4.5123,4.6593,4.7335,4.9169,5.0421,5.0541,5.1707,5.2773,5.3585,5.4245,5.4686,5.4805,5.5553,5.5758,5.5128,5.5059,5.4771,5.4059,5.367,5.3568,5.3653,5.399,5.4669,5.5213,5.5755,5.6177,5.6125,5.6106,5.6242,5.6833,5.6898,5.7101,5.7587,5.7103,5.6521,5.5994,5.529,5.4803,5.4814,5.4202,5.3355,5.247,5.1633,5.1326,5.588,5.5313,5.5311,5.4982,5.4431,5.4415,5.4399,5.4434,5.4383,5.4346,5.424,5.4118,5.4065,5.408,5.4065,5.4065,5.408,5.4065,5.372,5.3184,5.3184,5.2823,5.2237,5.2065,5.1996,5.1996,5.1858,5.1479,5.0893,5.0893,5.0824,5.0651,5.0065,4.9996,5.041,0.0,0.0,0.0,4.7327,4.7065,4.6617,4.6182,4.5044,4.3241,4.2297,0.0,3.9802,3.9571,3.9409,3.9282,3.977,0.0,0.0,0.0,0.0,0.0,0.0,0.0,0.0,0.0,0.0,0.0,3.8075,3.7475,3.5206,3.8761,4.1238,4.1192,4.3183,4.5139,4.6739,4.7784,4.8928,5.0238,5.1285,5.2131,5.2773,5.3194,5.3735,5.4533,5.4855,5.5263,5.5877,5.6167,5.6201,5.6047,5.6047,5.6013,5.5775,5.4717,5.4155,5.4717,5.5723,5.6628,5.6867,5.7446,5.7803,5.794,5.7816,5.7761,5.7845,5.7805,5.7697,5.79,5.7772,5.7628,5.7459,5.7315,5.7076,5.7066,5.6466,5.5574,5.4159,5.3211,5.2838,5.6564,0.0,5.6219,5.5977,0.0,5.5203,5.503,5.503,5.4667,5.4494,5.4494,5.4494,5.4494,5.4494,5.4494,5.4494,5.4494,5.4494,5.4272,5.3961,5.3942,5.372,5.3341,5.2961,5.2789,5.2789,5.241,5.1981,5.1651,5.1651,5.1651,5.1651,5.1272,5.1272,5.1617,5.0893,4.9962,4.8858,4.8065,4.7686,4.7651,4.6583,4.5445,4.4285,4.278,0.0,0.0,0.0,0.0,0.0,0.0,0.0,0.0,3.8945,0.0,3.8957,3.8007,3.7532,3.7951,3.9309,4.0828,4.2422,4.4259,4.3953,4.0832,4.3693,4.5698,4.5982,4.724,4.8678,5.0181,5.0691,5.1371,5.2459,5.2901,5.3445,5.4142,5.4345,5.4718,5.5485,5.5962,5.6423,5.6816,5.7278,5.7347,5.7004,5.702,5.6968,5.6539,5.5754,5.5329,5.5738,5.6628,5.7415,5.7535,5.803,5.8508,5.849,5.8419,5.8366,5.8366,5.8277,5.8153,5.8097,5.8027,5.811,5.8373,5.8423,5.853,5.8777,5.8595,5.8165,5.7235,5.5851,5.4952,5.7116,5.7012,5.6978,5.6909,5.6736,5.6099,5.5823,5.5754,0.0,0.0,0.0,5.4494,5.4494,5.4494,5.4494,5.4494,5.4494,5.4494,5.4494,5.4494,5.4494,5.4494,5.446,5.3908,5.3598,5.3563,5.2927,5.2548,5.241,5.241,5.241,5.241,5.2272,5.2203,5.2153,5.1582,5.0996,5.0341,4.8893,4.8341,4.8755,4.6948,4.5811,4.5432,4.3457,4.1987,4.1124,4.0469,3.9767,3.9089,3.9296,3.9947,4.1072,4.1265,4.2078,4.3755,4.4034,4.447,4.5219,4.6036,4.6775,4.7347,4.9056,4.9108,4.6767,4.7823,4.8968,4.9835,5.0481,5.1448,5.2939,5.3108,5.3313,5.3912,5.398,5.427,5.4988,5.5123,5.5482,5.6388,5.7056,5.7535,5.7689,5.829,5.8617,5.805,5.7963,5.7909,5.7289,5.6864,5.6575,5.6762,5.7381,5.7775,5.7895,5.8273,5.8562,5.8631,5.8578,5.8561,5.8577,5.8628,5.8625,5.8533,5.8447,5.8715,5.918,5.9158,5.9373,6.0205,6.0201,6.0148,6.0102,5.872,5.7546,5.8323,5.772,5.7736,5.7391,5.6805,5.6667,5.6633,5.6529,5.5115,5.4494,5.4494,5.4494,5.4494,5.4494,5.4494,5.4494,5.4494,5.4494,5.4494,5.4494,5.4494,5.4494,5.4478,5.4375,5.4356,5.4356,5.4203,5.3858,5.3272,5.3218,5.3237,5.3149,5.2548,5.2203,5.2203,5.2099,5.1996,5.1858,5.041,4.941,4.8824,4.8465,4.7362,4.5466,4.4505,4.3298,4.1883,4.1745,4.163,4.1514,4.2768,4.3532,4.361,4.4168,4.4616,4.4824,4.5473,4.6171,4.6922,4.8241,4.9846,5.1741,5.2254,5.1676,5.0108,5.0738,5.1558,5.229,5.2445,5.2905,5.3757,5.3842,5.391,5.4013,5.3997,5.4304,5.5073,5.5326,5.5991,5.7312,5.7671,5.8083,5.8582,5.8858,5.8909,5.8823,5.8702,5.8771,5.8513,5.81,5.7704,5.7789,5.8324,5.8737,5.872,5.8841,5.8892,5.8927,5.8823,5.8753,5.8736,5.9042,5.9243,5.936,5.9292,5.965,6.0296,5.9808,6.0056,6.1023,6.0861,6.0491,6.1032,6.0689,6.0323,5.8788,5.8513,5.8478,5.8306,5.7978,5.7564,5.715,5.6771,5.6081,5.5495,5.5099,5.5099,5.4892,5.4529,5.4494,5.4494,5.4494,5.4494,5.4494,5.4494,5.4494,5.4494,5.4494,5.4494,5.4494,5.4494,5.4494,5.4306,5.4046,5.3977,5.3977,5.3977,5.3616,5.3237,5.2892,5.2858,5.2617,5.2168,5.1134,5.041,5.0031,4.9238,4.8293,4.7272,4.6148,4.5216,4.4527,4.4078,4.3859,4.3824,4.4479,4.5246,4.6033,4.6398,4.7052,4.8126,4.8537,4.9086,4.9806,5.0944,5.2245,5.3653,5.374,5.35,5.2794,5.2877,5.3156,5.3546,5.3597,5.3782,5.4255,5.4633,5.4702,5.429,5.4993,5.5645,5.5989,5.6502,5.7189,5.8169,5.8462,5.8616,5.8961,5.8995,5.8995,5.8995,5.8995,5.8995,5.8995,5.8737,5.8478,5.853,5.8788,5.8961,5.8995,5.8995,5.8995,5.8995,5.8944,5.8927,5.8909,5.9166,5.9251,5.9232,5.9488,6.0017,6.0663,6.0774,6.1196,6.1946,6.2059,6.1915,6.2153,6.2159,6.1908,5.8995,5.8995,5.8995,5.8995,5.8961,5.8392,5.7823,5.7322,5.7288,5.6858,5.6184,5.5927,5.5547,5.503,5.4823,5.4858,5.4977,5.4667,5.4582,5.472,5.4598,5.4494,5.4494,5.4494,5.4494,5.4494,5.4494,5.4494,5.4494,5.4494,5.4494,5.4494,5.4494,5.4203,5.3667,5.3667,5.3356,5.2686,5.1996,5.1444,5.1065,4.9927,4.9154,4.8741,4.772,4.7031,4.6824,4.6238,4.5983,4.6155,4.6328,4.7052,4.8376,4.8617,4.9456,5.0985,5.1348,5.1795,5.2532,5.3225,5.3908,5.4425,5.4494,5.4494,5.4497,5.4255,5.4159,5.4255,5.4237,5.4335,5.455,5.5168,5.5375,5.4892,5.5977,5.6789,5.7081,5.7564,5.8185,5.8823,5.8995,5.8961,5.8995,5.8995,5.8995,5.8995,5.8995,5.8995,5.8995,5.8995,5.8995,5.8995,5.8995,5.8995,5.8995,5.8995,5.9064,5.9185,5.9323,5.9444,5.9564,5.9685,5.9823,5.9941,6.0181,6.0832,6.1286,6.1589,6.2152,6.2783,6.2848,6.2893,6.2817,6.2702,6.2581,5.8995,5.8995,5.8995,5.8995,5.8995,5.8892,5.8823,5.872,5.8788,5.8375,5.7633,5.6978,5.6667,5.6495,5.5805,5.5874,5.6391,5.5134,5.4858,5.534,5.4823,5.4529,5.4563,5.4513,5.4494,5.4563,5.4513,5.4529,5.4598,5.4513,5.4494,5.4494,5.4494,5.446,5.4391,5.4375,5.4356,5.4272,5.3563,5.2528,5.1168,5.0962,5.0237,4.8844,4.872,4.8272,4.7755,4.7548,4.7824,4.8465,4.9134,4.9927,5.072,5.141,5.1843,5.2119,5.2774,5.3497,5.4152,5.4341,5.4425,5.4494,5.4494,5.4494,5.4494,5.4463,5.4481,5.4516,5.4481,5.4497,5.4563,5.5203,5.5616,5.5582,5.6357,5.7081,5.7633,5.784,5.8185,5.8926,5.8995,5.8995,5.8995,5.8995,5.8995,5.8995,5.8995,5.903,5.9133,5.9133,5.9099,5.9064,5.8995,5.903,5.903,5.8995,5.9357,5.9875,6.0082,6.0289,6.0737,6.1392,6.2082,6.1235,6.1908,6.2217,6.2593,6.283,6.2441,6.2869,6.3015,6.2947,6.2789,6.2751,6.2688,5.9409,5.8995,5.8995,5.8995,5.8995,5.8995,5.8995,5.8995,5.8995,5.8823,5.8547,5.8254,5.7633,5.6771,5.646,5.6495,5.6736,5.615,5.5736,5.5651,5.577,5.5632,5.5168,5.515,5.5375,5.5736,5.4943,5.472,5.4996,5.472,5.4494,5.4494,5.4494,5.4494,5.4494,5.4494,5.4494,5.4478,5.4203,5.3513,5.2548,5.1996,5.1479,5.0893,5.0809,5.0686,5.041,5.0375,5.0513,5.0774,5.1099,5.1651,5.2425,5.272,5.3099,5.3513,5.3858,5.4184,5.4494,5.4494,5.4494,5.4494,5.4494,5.4494,5.4494,5.4494,5.4651,5.503,5.477,5.4651,5.5134,5.5839,5.6322,5.646,5.7357,5.8064,5.7874,5.8288,5.8702,5.8961,5.8995,5.8995,5.8995,5.8995,5.8995,5.8995,5.8995,5.9168,5.9599,5.9702,5.9702,5.9737,5.9737,5.9495,5.9168,5.9444,5.9806,6.0151,6.0565,6.1047,6.1289,6.1496,6.1772,6.1841,6.2273,6.2618,6.2737,6.3115,6.3091,6.3073,6.2832,6.2753,6.2992,6.3038,6.2962,6.0151,5.9668,5.9616,5.9633,5.9633,5.9426,5.9306,5.9271,5.9099,5.8995,5.8995,5.8995,5.8426,5.7495,5.7219,5.7185,5.7357,5.6978,5.6598,5.6271,5.6633,5.6495,5.5961,5.5927,5.6202,5.6495,5.546,5.4977,5.5237,5.4805,5.4494,5.4494,5.4494,5.4494,5.4494,5.4494,5.4494,5.4494,5.4494,5.4253,5.3701,5.3134,5.2617,5.2272,5.2203,5.2203,5.2203,5.2203,5.2306,5.2513,5.2513,5.2908,5.3632,5.3701,5.3942,5.4425,5.4494,5.4494,5.4494,5.4494,5.4494,5.4494,5.4494,5.4494,5.4494,5.4494,5.4823,5.5444,5.5099,5.5134,5.5874,5.6633,5.7081,5.7185,5.8288,5.872,5.834,5.8737,5.8961,5.8995,5.8995,5.8995,5.8995,5.8995,5.9064,5.9306,5.9392,5.9599,6.0289,6.0496,6.0496,6.0496,6.0496,6.0082,5.9323,5.9633,6.0151,6.0634,6.1116,6.1703,6.1841,6.1944,6.1979,6.2668,6.2721,6.279,6.3048,6.3358,6.3358,6.2772,6.253,6.2596,6.2769,6.3077,6.3155,6.122,6.1185,6.1185,6.1116,6.1151,6.0427,6.0151,6.0082,5.9392,5.903,5.9064,5.903,5.8961,5.8788,5.8202,5.8254,5.8616,5.7495,5.7219,5.7547,5.715,5.6805,5.6736,5.6736,5.6805,5.6909,5.6046,5.5237,5.4701,5.4579,5.4494,5.4494,5.4526,5.451,5.4494,5.4494,5.4494,5.4557,5.4557,5.4507,5.4473,5.4388,5.3679,5.255,5.2237,5.2306,5.2272,5.2237,5.2582,5.3322,5.3356,5.3667,5.4341,5.4425,5.446,5.4494,5.4494,5.4494,5.4494,5.4494,5.4494,5.4494,5.4494,5.4494,5.4513,5.4598,5.4943,5.5547,5.5685,5.5961,5.6736,5.7357,5.7805,5.7909,5.8513,5.8892,5.8926,5.8995,5.8995,5.8995,5.8995,5.9064,5.903,5.8995,5.9375,5.9909,6.0151,6.0392,6.1047,6.1254,6.1254,6.1289,6.1151,6.0737,5.9495,6.0047,6.0703,6.1151,6.1928,6.2583,6.3117,6.3496,6.3427,6.3358,6.3324,6.3358,6.3496,6.3427,6.3186,6.2859,6.2583,6.2596,6.2846,6.3046,6.3162,6.1772,6.1323,6.1323,6.1323,6.1289,6.1013,6.0909,6.084,6.0116,5.9771,5.9771,5.9771,5.9495,5.903,5.9754,5.965,5.8995,5.8409,5.8116,5.7978,5.8116,5.7926,5.7529,5.7495,5.7771,5.7961,5.6978,5.5961,5.5336,5.5595,5.5317,5.4705,5.4896,5.4896,5.4573,5.4494,5.4683,5.5063,5.5059,5.5254,5.5563,5.5284,5.4974,5.4811,5.4061,5.3701,5.3685,5.3685,5.3789,5.4065,5.4115,5.4203,5.4444,5.4494,5.4494,5.4494,5.4494,5.4494,5.4494,5.4494,5.4494,5.4494,5.4494,5.4563,5.4598,5.4927,5.5513,5.6202,5.6823,5.7375,5.7926,5.8047,5.8099,5.8547,5.8823,5.8995,5.9099,5.9426,5.9564,5.915,5.8995,5.9168,5.9547,5.9323,5.953,6.0565,6.0496,6.084,6.1755,6.2048,6.2048,6.2082,6.2048,6.1703,6.0703,6.1151,6.1806,6.2169,6.2652,6.3048,6.3531,6.36,6.3496,6.3462,6.36,6.36,6.3565,6.3117,6.2944,6.3135,6.2859,6.265,6.3025,6.3211,6.333,6.253,6.2082,6.2048,6.2048,6.2013,6.1772,6.1828,6.1883,6.1224,6.1014,6.1216,6.125,6.0936,6.057,6.1251,6.1077,6.0017,5.9597,5.8978,5.834,5.8771,5.872,5.8323,5.8237,5.8613,5.909,5.8293,5.7358,5.6625,5.656,5.616,5.5569,5.5483,5.5313,5.5089,5.5074,5.5313,5.5629,5.5673,5.5901,5.6207,5.5901,5.5872,5.6124,5.5519,5.4987,5.4788,5.4605,5.4494,5.4494,5.4494,5.4494,5.4529,5.472,5.4874,5.4874,5.5115,5.5253,5.5253,5.5237,5.5253,5.5253,5.5237,5.5253,5.5288,5.5701,5.6322,5.7047,5.7564,5.8202,5.8685,5.8564,5.8495,5.8892,5.8995,5.9133,5.9392,5.9875,6.0013,5.9892,5.9857,6.0082,6.0358,6.0082,6.0461,6.153,6.122,6.153,6.2549,6.2859,6.2859,6.2859,6.2859,6.2652,6.2151,6.2427,6.2376,6.2618,6.2894,6.3324,6.3531,6.3565,6.3565,6.3565,6.36,6.36,6.3358,6.291,6.2963,6.3204,6.2928,6.2599,6.2995,6.3358,6.3441,6.3623,6.3608,6.362,6.3576,6.3508,6.2956,6.2962,6.332,6.2684,6.2643,6.3089,6.3311,6.308,6.3097,6.2622,6.2266,6.1878,6.0969,5.9978,5.9164,5.913,5.9148,5.9078,5.9077,5.9377,5.9966,5.984,5.9351,5.8531,5.755,5.7146,5.7171,5.6275,5.607,5.632,5.6302,5.6328,5.6325,5.6339,5.6415,5.6317,5.6344,5.6344,5.6412,5.6248,5.5929,5.544,5.4911,5.4683,5.4636,5.462,5.4526,5.484,5.5346,5.5681,5.5766,5.6355,5.6702,5.6702,5.6633,5.6564,5.6529,5.6702,5.6564,5.6495,5.6702,5.7081,5.7633,5.7943,5.8237,5.8857,5.8926,5.8926,5.8995,5.9064,5.9426,5.9944,6.022,6.0496,6.1013,6.1116,6.1254,6.1289,6.1116,6.1392,6.2151,6.2342,6.248,6.322,6.3411,6.3531,6.3531,6.3427,6.3186,6.3358,6.3531,6.3101,6.2825,6.3082,6.3393,6.3393,6.3393,6.3289,6.3324,6.36,6.36,6.3565,6.3151,6.291,6.2979,6.2687,6.2721,6.3032,6.3411,6.3496,6.4972,6.4972,6.4972,6.4972,6.4937,6.4742,6.4784,6.4841,6.4127,6.395,6.4122,6.4137,6.3883,6.3704,6.4122,6.3995,6.3086,6.3006,6.2142,6.0591,6.0328,6.0297,6.0313,6.0293,6.0417,6.058,6.0612,6.0173,5.9602,5.9372,5.9119,5.8401,5.8316,5.7831,5.7215,5.7616,5.7661,5.6966,5.7428,5.7632,5.7449,5.7053,5.704,5.7339,5.6731,5.6357,5.651,5.6041,5.5744,5.5701,5.573,5.5992,5.652,5.6866,5.7056,5.7028,5.6843,5.6805,5.6805,5.684,5.6874,5.684,5.684,5.6805,5.6874,5.7288,5.7667,5.7961,5.8357,5.8788,5.8926,5.8995,5.903,5.8995,5.9495,5.9909,6.0323,6.0703,6.1289,6.1875,6.1634,6.1565,6.1875,6.1772,6.191,6.291,6.2859,6.2825,6.3393,6.36,6.36,6.36,6.36,6.36,6.36,6.36,6.3393,6.3101,6.3186,6.3393,6.3358,6.322,6.3151,6.3255,6.3496,6.3565,6.3531,6.3393,6.3186,6.3151,6.322,6.3255,6.3308,6.3393,6.3531,6.5653,6.5625,6.5625,6.5625,6.5625,6.5625,6.5784,6.5915,6.553,6.5451,6.5646,6.569,6.5437,6.5199,6.5697,6.5408,6.4571,6.4484,6.3711,6.2551,6.1971,6.1709,6.1453,6.13,6.1265,6.1322,6.1492,6.1387,6.0946,6.0766,6.0394,5.9934,5.9674,5.9312,5.8671,5.9009,5.8831,5.8104,5.836,5.841,5.8015,5.7606,5.7631,5.7894,5.7592,5.7418,5.7473,5.7634,5.7342,5.6577,5.6553,5.7124,5.786,5.8249,5.8396,5.816,5.8094,5.7931,5.7648,5.7702,5.7633,5.7633,5.7633,5.7616,5.7702,5.8116,5.8288,5.8392,5.8685,5.8995,5.8995,5.9323,5.9426,5.9461,5.9875,6.0461,6.0909,6.1703,6.2289,6.2703,6.2496,6.2496,6.2599,6.2599,6.2496,6.3324,6.3186,6.2997,6.3462,6.36,6.36,6.36,6.36,6.36,6.36,6.36,6.36,6.3427,6.3289,6.3427,6.348,6.322,6.3082,6.3324,6.36,6.36,6.3565,6.3565,6.3462,6.36,6.36,6.3531,6.3462,6.3496,6.36,6.5837,6.5716,6.5732,6.5846,6.5846,6.5826,6.6186,6.6692,6.6714,6.6988,6.7428,6.7392,6.7483,6.739,6.6802,6.6486,6.6303,6.5244,6.4985,6.4904,6.426,6.3382,6.2471,6.2243,6.2082,6.2019,6.2425,6.2655,6.2408,6.1589,6.1165,6.1408,6.0557,5.9998,6.0298,6.0481,6.0127,5.9333,5.9332,5.9062,5.8327,5.823,5.823,5.8327,5.8795,5.8845,5.8564,5.9322,5.899,5.7052,5.7563,5.8357,5.8892,5.9559,5.9683,5.9274,5.9741,5.9469,5.9163,5.8906,5.896,5.8944,5.8978,5.9116,5.915,5.9339,5.9425,5.9306,5.9409,5.9374,5.9461,5.984,6.0254,6.0375,6.0565,6.1169,6.2376,6.3082,6.3324,6.3462,6.3565,6.3584,6.3496,6.3427,6.348,6.3549,6.3531,6.3531,6.3565,6.36,6.36,6.36,6.36,6.36,6.36,6.36,6.36,6.3565,6.3427,6.3462,6.3549,6.3324,6.2979,6.3255,6.36,6.36,6.36,6.36,6.36,6.36,6.36,6.36,6.36,6.36,6.36,6.7332,6.7291,6.7179,6.716,6.7123,6.716,6.723,6.7419,6.7419,6.7501,6.7687,6.77,6.77,6.7664,6.748,6.737,6.7187,6.6856,6.6819,6.7,6.6797,6.5364,6.3928,6.3536,6.3163,6.27,6.2741,6.2793,6.278,6.2385,6.2288,6.2487,6.2032,6.1653,6.1435,6.1802,6.1398,6.037,6.0713,6.0529,5.9832,5.9685,5.9758,5.9795,5.9979,5.9967,5.9795,6.015,6.0188,5.9529,6.0112,6.0573,6.0775,6.115,6.1218,6.0992,6.0778,6.0406,5.9924,5.9797,5.9811,5.9875,6.003,6.0116,6.0686,6.1135,6.1136,6.0964,6.1085,6.1185,6.0843,6.091,6.1255,6.179,6.1824,6.2186,6.3032,6.3462,6.36,6.36,6.36,6.36,6.36,6.36,6.36,6.36,6.36,6.36,6.36,6.36,6.36,6.36,6.36,6.36,6.36,6.36,6.36,6.36,6.3565,6.3531,6.3565,6.3496,6.3117,6.2963,6.348,6.36,6.36,6.36,6.36,6.36,6.36,6.36,6.36,6.36,6.36,6.8233,6.782,6.7741,6.77,6.77,6.77,6.77,6.77,6.77,6.77,6.77,6.77,6.77,6.77,6.77,6.77,6.7664,6.737,6.737,6.7664,6.76,6.6633,6.5288,6.4567,6.3833,6.3356,6.2976,6.2829,6.2793,6.2793,6.2793,6.2756,6.2793,6.2548,6.2169,6.2462,6.2205,6.119,6.1386,6.1239,6.0481,6.0407,6.037,6.0493,6.0676,6.1006,6.1288,6.1117,6.0896,6.0958,6.1337,6.1753,6.212,6.2599,6.2516,6.2046,6.2119,6.1956,6.1198,6.1184,6.145,6.153,6.1555,6.1747,6.2145,6.2579,6.253,6.2314,6.2595,6.253,6.2322,6.2194,6.2473,6.281,6.2944,6.3117,6.3565,6.3565,6.36,6.36,6.36,6.36,6.36,6.36,6.36,6.36,6.36,6.36,6.36,6.36,6.36,6.36,6.36,6.36,6.36,6.36,6.36,6.36,6.36,6.36,6.36,6.36,6.3393,6.3204,6.3446,6.3618,6.36,6.36,6.36,6.36,6.36,6.36,6.36,6.36,6.36,6.8691,6.7741,6.7727,6.7714,6.77,6.77,6.77,6.77,6.77,6.77,6.77,6.77,6.77,6.77,6.77,6.77,6.7664,6.7136,6.721,6.7517,6.7664,6.7187,6.6439,6.5204,6.4506,6.4163,6.3392,6.3172,6.3135,6.305,6.2866,6.2829,6.2793,6.2793,6.2683,6.2793,6.2389,6.1887,6.1814,6.1594,6.1068,6.0921,6.097,6.1031,6.1447,6.1998,6.2328,6.2218,6.1936,6.1887,6.1851,6.2328,6.2976,6.3747,6.3615,6.293,6.3506,6.3638,6.2755,6.2958,6.3398,6.3315,6.3387,6.3597,6.3652,6.3836,6.3883,6.3654,6.3714,6.3847,6.3669,6.3695,6.3657,6.3742,6.3698,6.3694,6.3618,6.36,6.3634,6.3703,6.3703,6.36,6.3703,6.3634,6.36,6.36,6.36,6.36,6.36,6.36,6.36,6.36,6.36,6.36,6.36,6.36,6.36,6.36,6.36,6.36,6.36,6.36,6.36,6.36,6.36,6.36,6.36,6.36,6.3634,6.36,6.36,6.36,6.36,6.36,6.36,6.8886,6.7993,6.7913,6.7807,6.7714,6.77,6.77,6.77,6.77,6.7737,6.77,6.77,6.7737,6.77,6.77,6.77,6.77,6.7444,6.759,6.7627,6.77,6.7627,6.726,6.6342,6.5632,6.5105,6.4848,6.442,6.398,6.3759,6.3466,6.2939,6.2976,6.2829,6.2866,6.2829,6.2756,6.2536,6.2499,6.2426,6.2316,6.2132,6.2169,6.2242,6.2475,6.2609,6.2903,6.3282,6.3552,6.3589,6.3589,6.3699,6.3906,6.4604,6.4733,6.4605,6.4735,6.474,6.4114,6.4065,6.4179,6.4409,6.4465,6.453,6.5153,6.5625,6.5616,6.5423,6.5591,6.5569,6.514,6.5118,6.4931,6.4654,6.4463,6.4252,6.3801,6.3637,6.388,6.4136,6.3947,6.3791,6.4289,6.3807,6.3669,6.3634,6.36,6.36,6.3634,6.3669,6.3703,6.3738,6.36,6.36,6.36,6.36,6.36,6.36,6.36,6.36,6.36,6.36,6.36,6.36,6.36,6.36,6.3669,6.3738,6.3772,6.3703,6.36,6.36,6.36,6.36,6.36,6.9193,6.8017,6.7873,6.7767,6.77,6.77,6.77,6.7774,6.8128,6.8031,6.7847,6.8054,6.8054,6.77,6.77,6.77,6.77,6.77,6.77,6.77,6.77,6.77,6.7664,6.726,6.6623,6.5925,6.5398,6.5044,6.4751,6.464,6.4444,6.3967,6.36,6.3466,6.3282,6.305,6.2829,6.2793,6.2829,6.2976,6.3319,6.3013,6.3099,6.3453,6.3759,6.3967,6.4077,6.4383,6.464,6.4751,6.5007,6.5007,6.4861,6.5411,6.5668,6.5398,6.6145,6.6003,6.5588,6.5701,6.5955,6.5975,6.5996,6.6214,6.6518,6.6967,6.6967,6.6743,6.683,6.6881,6.6237,6.6541,6.6269,6.5819,6.5655,6.547,6.5075,6.4533,6.4034,6.4219,6.4085,6.4029,6.4009,6.4023,6.3756,6.3687,6.3669,6.3703,6.4014,6.4048,6.4014,6.3945,6.3738,6.36,6.36,6.36,6.36,6.36,6.36,6.36,6.36,6.36,6.36,6.3669,6.3772,6.3772,6.3841,6.3876,6.3841,6.3669,6.36,6.36,6.3634,6.3669,6.3634,6.9669,6.8294,6.8162,6.8095,6.8095,6.7958,6.7934,6.8035,6.8471,6.8201,6.7921,6.8458,6.8178,6.7847,6.7884,6.7884,6.7921,6.7921,6.7981,6.77,6.77,6.77,6.7664,6.7554,6.7297,6.6623,6.6145,6.5778,6.5545,6.5472,6.5301,6.5141,6.464,6.4163,6.3906,6.36,6.327,6.3209,6.338,6.3637,6.4127,6.371,6.3759,6.4237,6.4751,6.5031,6.5068,6.5288,6.5472,6.5521,6.6256,6.6219,6.6072,6.6182,6.6439,6.5778,6.693,6.7183,6.7033,6.7266,6.7523,6.7811,6.766,6.761,6.7596,6.7689,6.7712,6.7716,6.7689,6.7771,6.731,6.7818,6.783,6.735,6.7159,6.7111,6.679,6.5899,6.5387,6.4567,6.4918,6.5111,6.4721,6.4503,6.4113,6.3809,6.3791,6.391,6.4289,6.4565,6.46,6.4688,6.4584,6.4186,6.4117,6.4393,6.4289,6.4048,6.3945,6.3979,6.4014,6.4289,6.4393,6.4014,6.4014,6.4014,6.4014,6.3979,6.3876,6.3703,6.3807,6.4014,6.3945,6.3772,6.3876,7.0402,7.0048,6.9915,6.9847,6.9723,6.9026,6.8709,6.873,6.8181,6.7847,6.7774,6.7847,6.7958,6.7847,6.8458,6.8678,6.8678,6.8678,6.8348,6.7921,6.7847,6.7884,6.7847,6.7847,6.77,6.7554,6.7187,6.6806,6.6402,6.6292,6.6035,6.5472,6.5178,6.4861,6.4567,6.4494,6.4334,6.4016,6.4334,6.4774,6.4958,6.5044,6.4848,6.5154,6.5435,6.5508,6.5595,6.5999,6.6292,6.6366,6.7076,6.7297,6.7223,6.7333,6.7297,6.726,6.7504,6.7907,6.8164,6.7981,6.8164,6.8348,6.8238,6.7847,6.7958,6.8274,6.8435,6.8214,6.8458,6.883,6.9485,6.9518,6.9362,6.8926,6.8698,6.8507,6.8155,6.7888,6.753,6.6552,6.6467,6.6236,6.5742,6.5244,6.487,6.4528,6.4343,6.4565,6.4945,6.529,6.5516,6.5585,6.5654,6.5152,6.4703,6.5152,6.5309,6.4929,6.4791,6.4841,6.4998,6.5343,6.5309,6.4979,6.4565,6.4393,6.4324,6.4255,6.4186,6.4186,6.4324,6.4496,6.4531,6.4565,6.486,6.9751,6.9313,6.955,6.9446,6.9088,6.899,6.8723,6.8512,6.8342,6.8091,6.7921,6.8091,6.8054,6.8031,6.8531,6.9082,6.9449,6.9522,6.9045,6.8531,6.8715,6.8641,6.8348,6.8311,6.8311,6.8201,6.7907,6.7554,6.715,6.715,6.6843,6.6586,6.6182,6.5705,6.5375,6.5251,6.5141,6.4897,6.5154,6.5558,6.5925,6.6219,6.6329,6.6109,6.6329,6.6512,6.6623,6.6856,6.7113,6.7187,6.748,6.7664,6.77,6.77,6.77,6.7774,6.8054,6.8458,6.8921,6.8825,6.9192,6.9376,6.9096,6.8985,6.9022,6.9265,6.9265,6.9192,6.9119,6.9669,6.9986,7.0477,7.0505,7.0318,7.0215,7.0068,6.9824,6.9718,6.9191,6.8542,6.827,6.7699,6.6655,6.616,6.5716,6.532,6.5004,6.5221,6.5635,6.5945,6.6275,6.6378,6.6413,6.5964,6.5566,6.5826,6.6033,6.5723,6.5654,6.5723,6.5723,6.5964,6.6117,6.6048,6.56,6.5221,6.5102,6.5205,6.4964,6.4669,6.4772,6.491,6.5186,6.5393,6.5654,6.9257,6.8661,6.9499,6.9275,6.8589,6.8957,6.8961,6.8562,6.8746,6.8531,6.8091,6.8531,6.8531,6.8348,6.8935,6.9706,7.0146,7.0183,6.9889,6.9339,6.9412,6.9376,6.9045,6.8862,6.8715,6.8311,6.8311,6.7847,6.7627,6.759,6.7664,6.7407,6.6916,6.6586,6.6329,6.6109,6.5729,6.5582,6.5778,6.6182,6.6733,6.7297,6.7444,6.6843,6.737,6.77,6.7797,6.7871,6.7958,6.7958,6.7958,6.7884,6.7737,6.77,6.7774,6.8031,6.8568,6.8935,6.9522,6.9633,6.9963,7.0293,7.0146,7.0087,7.0036,6.9926,7.0146,7.044,7.0367,7.0513,7.0844,7.1197,7.1476,7.1499,7.1484,7.1499,7.1266,7.1083,7.0798,7.0303,6.9996,6.9276,6.8306,6.7517,6.7148,6.6463,6.6129,6.5945,6.6324,6.66,6.6876,6.7068,6.7034,6.6689,6.6482,6.6482,6.6551,6.6309,6.6413,6.66,6.6462,6.6393,6.6566,6.6807,6.7014,6.6669,6.6447,6.5964,6.555,6.529,6.5255,6.5462,6.5911,6.6152,6.6344,7.0336,7.031,7.1623,7.1489,7.0146,7.0049,7.0112,6.9972,6.9191,6.8862,6.8752,6.8825,6.8848,6.9105,7.0279,7.0573,7.055,7.0807,7.0734,7.0036,6.9633,6.9325,6.8958,6.8898,6.8568,6.8274,6.8458,6.8274,6.7884,6.77,6.77,6.7627,6.7517,6.726,6.6733,6.6916,6.704,6.6623,6.699,6.737,6.748,6.7627,6.759,6.7554,6.7737,6.8068,6.8531,6.8605,6.8641,6.8641,6.8678,6.8348,6.7884,6.77,6.8104,6.8531,6.8995,6.9522,7.0499,7.0587,7.0624,7.0917,7.066,7.022,7.0367,7.044,7.0881,7.2129,7.1615,7.1431,7.1798,7.2202,7.2349,7.2275,7.2202,7.2239,7.2202,7.1908,7.1688,7.1711,7.1268,7.0783,7.0035,6.9317,6.8605,6.7902,6.731,6.7115,6.7223,6.7634,6.7873,6.8139,6.8059,6.7724,6.7344,6.7344,6.7137,6.6896,6.7137,6.7394,6.7187,6.7049,6.7152,6.7394,6.7669,6.7635,6.7137,6.6585,6.6137,6.6033,6.6117,6.6428,6.6807,6.6965,6.7068,6.9612,6.9289,7.081,7.0511,6.9244,6.9915,7.0062,6.967,6.9177,6.9155,6.9412,6.9082,6.9142,6.9706,7.083,7.1344,7.1454,7.1784,7.1527,7.0903,7.0353,6.9986,6.9559,6.9119,6.8605,6.8458,6.8238,6.7981,6.7737,6.77,6.77,6.77,6.77,6.759,6.7113,6.7517,6.7444,6.7333,6.748,6.7664,6.77,6.77,6.77,6.77,6.8091,6.8531,6.8825,6.8898,6.8898,6.8825,6.8531,6.8348,6.8201,6.8128,6.8361,7.0132,6.9816,7.0183,7.105,7.1321,7.1615,7.1798,7.1651,7.1541,7.1468,7.1431,7.1578,7.2349,7.2202,7.2202,7.2386,7.2496,7.2532,7.2532,7.2532,7.2532,7.2532,7.2532,7.2349,7.2459,7.2467,7.1816,7.1198,7.0465,6.9774,6.9209,6.8609,6.8284,6.863,6.9262,6.9395,6.9434,6.9222,6.8862,6.8448,6.8172,6.7862,6.7689,6.7724,6.7876,6.7807,6.7738,6.7911,6.7876,6.7945,6.7807,6.7551,6.7206,6.6758,6.6861,6.7049,6.7221,6.7359,6.7635,6.7704,6.8752,6.8267,6.9882,6.9521,6.8112,6.9476,6.9721,6.9178,6.8967,6.9229,6.9596,6.9376,6.9486,7.0036,7.0977,7.1784,7.2092,7.2371,7.2114,7.1711,7.1344,7.0903,7.033,6.9669,6.9119,6.8898,6.8421,6.8017,6.7787,6.7727,6.7754,6.77,6.77,6.7664,6.77,6.7664,6.7627,6.7627,6.7664,6.77,6.77,6.77,6.77,6.7884,6.8274,6.8788,6.9155,6.9229,6.9229,6.9486,6.9229,6.9192,6.9119,6.8912,6.9339,7.061,7.061,7.0793,7.1527,7.2004,7.2459,7.2532,7.2532,7.2275,7.2349,7.2532,7.2496,7.2496,7.2459,7.2459,7.2532,7.2532,7.2532,7.2532,7.2532,7.2532,7.2532,7.2642,7.2606,7.2532,7.2532,7.2532,7.1933,7.1346,7.0842,7.0455,6.9965,6.9476,6.9902,7.0573,7.0634,7.0529,7.0054,6.9722,6.94,6.902,6.869,6.8463,6.8517,6.8621,6.867,6.8704,6.8828,6.869,6.8359,6.8118,6.7965,6.7655,6.7413,6.7497,6.7566,6.7669,6.7842,6.8118,6.8497,6.8258,6.8243,6.9949,6.9614,6.8168,6.9006,6.9349,6.9247,6.9007,6.8935,6.9178,6.9596,6.9559,6.9669,7.0954,7.1784,7.1454,7.2151,7.2275,7.2092,7.1711,7.127,7.0807,7.0257,6.961,6.9096,6.8879,6.8489,6.7998,6.8278,6.8004,6.7727,6.7777,6.7714,6.77,6.7714,6.77,6.77,6.77,6.77,6.77,6.77,6.77,6.77,6.7884,6.8435,6.9903,6.9889,7.0183,7.072,7.0463,7.0293,7.0,6.972,7.0257,7.1087,7.1197,7.1454,7.2078,7.2349,7.2459,7.2532,7.2532,7.2532,7.2532,7.2532,7.2532,7.2532,7.2532,7.2532,7.2532,7.2532,7.2716,7.2642,7.2679,7.2789,7.2826,7.2936,7.2863,7.2606,7.2716,7.3046,7.3083,7.2629,7.1822,7.139,7.1035,7.0544,7.0979,7.1517,7.1583,7.1439,7.0867,7.0485,7.0274,6.9923,6.9587,6.9414,6.938,6.9587,6.9794,6.9794,6.9345,6.9207,6.8862,6.8621,6.8345,6.8034,6.7862,6.798,6.8049,6.798,6.8187,6.8517,6.9104,6.8346,6.832,6.9075,6.8814,6.8054,6.8984,6.9328,6.9194,6.9074,6.8967,6.8921,6.9669,6.9669,6.9522,7.0146,7.1174,7.127,7.1564,7.2041,7.2114,7.1747,7.1344,7.1027,7.0657,7.0027,6.982,6.9814,6.9808,6.9539,6.9234,6.9013,6.8776,6.8094,6.787,6.782,6.7741,6.77,6.77,6.77,6.77,6.77,6.77,6.77,6.77,6.8311,6.8935,6.9926,7.0073,7.0573,7.0977,7.0881,7.0807,7.0756,7.0477,7.0881,7.1711,7.16,7.1784,7.2312,7.2532,7.2532,7.2532,7.2532,7.2532,7.2532,7.2532,7.2532,7.2532,7.2532,7.2532,7.2532,7.2899,7.3193,7.2973,7.2973,7.3156,7.3193,7.3303,7.3303,7.312,7.3634,7.4169,7.4133,7.4045,7.3142,7.2327,7.196,7.1811,7.2296,7.2573,7.2673,7.2367,7.1785,7.1174,7.0947,7.0689,7.04,7.0277,7.0173,7.0208,7.0242,6.9725,6.9345,6.9345,6.938,6.9173,6.8862,6.8414,6.8187,6.8152,6.8118,6.8049,6.8394,6.8862,6.9518,6.842,6.8321,6.8445,6.8321,6.8155,6.8826,6.8997,6.8826,6.8723,6.8666,6.8605,6.9339,6.9486,6.9229,6.9779,7.0587,7.1123,7.1417,7.1857,7.2041,7.2004,7.1702,7.1479,7.1144,7.0748,7.0655,7.0491,7.0397,7.0273,7.0265,6.976,6.9106,6.8524,6.809,6.7836,6.7781,6.77,6.77,6.77,6.77,6.77,6.77,6.77,6.7737,6.8164,6.8972,6.9743,7.0183,7.0734,7.1211,7.1394,7.1248,7.1248,7.1358,7.1505,7.1872,7.2078,7.1982,7.2312,7.2532,7.2532,7.2532,7.2532,7.2532,7.2532,7.2532,7.2532,7.2532,7.2532,7.2532,7.2569,7.3083,7.345,7.3266,7.3986,7.4206,7.3817,7.3744,7.3744,7.3722,7.4294,7.472,7.4683,7.4573,7.4272,7.345,7.298,7.3149,7.3947,7.4082,7.393,7.3454,7.2707,7.214,7.1565,7.1032,7.0573,7.0656,7.0518,7.038,7.0242,6.9828,6.9483,6.938,6.9449,6.9587,6.9449,6.9104,6.8655,6.8172,6.8118,6.8118,6.8828,6.9311,6.9828,6.842,6.8321,6.8445,6.8408,6.8284,6.8333,6.8308,6.8242,6.8075,6.7944,6.7971,6.8618,6.8898,6.8935,6.9449,7.0183,7.0954,7.116,7.1637,7.2239,7.2349,7.2457,7.2299,7.189,7.1581,7.1478,7.1165,7.0785,7.0647,7.0197,6.9791,6.9383,6.8801,6.8293,6.7963,6.7804,6.7737,6.7737,6.7787,6.7811,6.7847,6.7811,6.77,6.7958,6.8054,6.8825,6.9779,7.0293,7.0991,7.1908,7.2129,7.2129,7.2165,7.2202,7.2312,7.2386,7.2459,7.2459,7.2532,7.2532,7.2532,7.2532,7.2532,7.2532,7.2532,7.2532,7.2532,7.2532,7.2532,7.2569,7.2789,7.323,7.356,7.3854,7.45,7.4573,7.4147,7.4221,7.4221,7.4331,7.4625,7.494,7.494,7.4977,7.5014,7.4595,7.4074,7.4389,7.5168,7.5233,7.4954,7.4257,7.3469,7.2441,7.1748,7.1082,7.0732,7.0849,7.076,7.0484,7.0518,7.0484,7.0104,6.9621,6.9794,7.0173,7.007,6.9863,6.9414,6.8931,6.8276,6.829,6.9035,6.969,7.0139,6.8469,6.847,6.8481,6.8469,6.8432,6.8432,6.8358,6.8221,6.803,6.7886,6.7857,6.8071,6.8104,6.8251,6.8495,6.9302,7.0367,7.055,7.1064,7.2422,7.251,7.2582,7.2548,7.2577,7.2465,7.2452,7.1989,7.1522,7.1672,7.0721,7.0053,6.9645,6.9322,6.9035,6.8804,6.867,6.8535,6.8616,6.8576,6.8495,6.8421,6.8054,6.7994,6.8421,6.8458,6.9082,7.011,7.055,7.1394,7.2349,7.2496,7.2532,7.2532,7.2532,7.2532,7.2532,7.2532,7.2532,7.2532,7.2532,7.2532,7.2532,7.2532,7.2532,7.2532,7.2532,7.2532,7.2532,7.2532,7.2716,7.3266,7.4037,7.4368,7.4111,7.4331,7.4147,7.3964,7.4478,7.4771,7.4918,7.516,7.5858,7.6151,7.5674,7.5564,7.5601,7.5139,7.5139,7.5767,7.5782,7.5577,7.4842,7.4017,7.2845,7.194,7.1334,7.0528,7.0242,7.0277,7.0208,7.0415,7.0656,7.0449,6.9863,7.0311,7.0705,7.0725,7.0656,7.0242,6.9725,6.9104,6.8759,6.9276,6.9828,7.0256,6.8531,6.8531,6.8531,6.8531,6.8531,6.8531,6.842,6.8271,6.8081,6.7941,6.7952,6.7834,6.7781,6.7804,6.7874,6.8582,6.9977,7.0216,7.1024,7.2384,7.2567,7.2667,7.2807,7.2904,7.2681,7.273,7.244,7.2072,7.1564,7.1131,7.0635,7.0226,6.9927,7.0135,6.9956,6.9677,6.9131,6.9208,6.9164,6.8825,6.8788,6.8715,6.8678,6.8898,6.9192,6.9743,7.0403,7.105,7.1674,7.2275,7.2532,7.2532,7.2532,7.2532,7.2532,7.2532,7.2532,7.2532,7.2532,7.2532,7.2532,7.2532,7.2532,7.2532,7.2532,7.2532,7.2532,7.2532,7.2532,7.301,7.3634,7.4478,7.4551,7.4258,7.4368,7.4184,7.3891,7.4368,7.4625,7.4845,7.5542,7.6371,7.7032,7.6592,7.6166,7.6188,7.6151,7.6188,7.6203,7.6276,7.5907,7.5014,7.4176,7.2931,7.2084,7.1609,7.0758,6.9771,7.0018,7.047,7.0035,7.0277,7.0173,7.0311,7.1001,7.1519,7.1601,7.1429,7.105,7.0587,7.0035,6.9759,6.9725,7.0104,7.0636,6.8531,6.8531,6.8531,6.8531,6.8531,6.8531,6.842,6.8296,6.8146,6.8083,6.8107,6.7978,6.7889,6.785,6.7781,6.8586,6.9825,7.0178,7.1237,7.2231,7.2599,7.2784,7.2941,7.2986,7.2835,7.2373,7.1958,7.1576,7.1019,7.0684,7.061,7.0782,7.0628,7.0961,7.0935,7.0484,6.9979,7.0126,6.9816,6.9564,6.9527,6.9646,6.9559,6.9669,6.9889,7.0426,7.0977,7.1454,7.1872,7.2275,7.2532,7.2532,7.2532,7.2532,7.2532,7.2532,7.2532,7.2532,7.2532,7.2532,7.2532,7.2532,7.2532,7.2532,7.2532,7.2532,7.2606,7.2716,7.2826,7.3266,7.378,7.4111,7.4404,7.4515,7.472,7.4353,7.3817,7.3891,7.4074,7.4588,7.5469,7.6276,7.6922,7.6812,7.6203,7.6225,7.6151,7.5968,7.6151,7.6885,7.6286,7.4843,7.3921,7.2863,7.2191,7.1711,7.1027,7.003,7.0902,7.1349,7.0699,7.0104,7.0415,7.0898,7.1795,7.2243,7.2174,7.2105,7.1933,7.145,7.1001,7.0656,7.0553,7.0794,7.1256,6.8531,6.8531,6.8531,6.8531,6.8531,6.8531,6.8469,6.842,6.8309,6.8246,6.8234,6.812,6.8018,6.8018,6.8017,6.8654,6.9429,7.0193,7.1018,7.1843,7.2544,7.2912,7.3091,7.3131,7.3003,7.2563,7.1922,7.118,7.0695,7.0349,7.0346,7.0526,7.1228,7.1675,7.1598,7.1246,7.1296,7.1196,7.0758,7.0528,7.0367,7.045,7.0386,7.0541,7.0748,7.1211,7.138,7.1857,7.2275,7.2422,7.2532,7.2532,7.2532,7.2532,7.2532,7.2532,7.2532,7.2532,7.2532,7.2532,7.2532,7.2532,7.2532,7.2532,7.2532,7.2569,7.2716,7.2863,7.3046,7.3413,7.3964,7.4368,7.4404,7.4441,7.4463,7.3986,7.345,7.323,7.3487,7.4404,7.5285,7.6093,7.6738,7.6481,7.5983,7.6041,7.5968,7.5747,7.5858,7.6518,7.6243,7.4743,7.4243,7.3308,7.2246,7.16,7.0998,7.0568,7.1406,7.1727,7.0793,7.0415,7.0794,7.1381,7.214,7.2485,7.2588,7.2485,7.2312,7.2416,7.2071,7.1726,7.1463,7.1622,7.1691,6.8531,6.8531,6.8531,6.8531,6.8531,6.8531,6.8531,6.8481,6.8408,6.8371,6.8358,6.8246,6.8196,6.8183,6.8169,6.8537,6.9299,6.9821,7.066,7.1807,7.2287,7.2748,7.3024,7.3138,7.2942,7.2465,7.1662,7.0721,7.0423,7.0396,7.0443,7.1648,7.2153,7.22,7.2234,7.2115,7.2197,7.2113,7.1911,7.1614,7.1411,7.1324,7.1489,7.1383,7.1626,7.1782,7.1762,7.2349,7.2459,7.2496,7.2532,7.2532,7.2532,7.2532,7.2532,7.2532,7.2532,7.2532,7.2532,7.2532,7.2532,7.2532,7.2532,7.2532,7.2532,7.2532,7.2753,7.2936,7.3156,7.3523,7.4184,7.4735,7.4478,7.4258,7.3891,7.3487,7.3046,7.2642,7.323,7.4147,7.5028,7.5836,7.6093,7.5836,7.5579,7.5395,7.5212,7.4955,7.5087,7.5637,7.5299,7.4202,7.4212,7.4036,7.2831,7.1766,7.1585,7.1347,7.1667,7.1666,7.0789,7.0794,7.1277,7.1795,7.2381,7.2588,7.2692,7.2692,7.2623,7.2692,7.2692,7.2347,7.2071,7.2105,7.214,6.8531,6.8531,6.8531,6.8531,6.8531,6.8531,6.8531,6.8531,6.8481,6.8531,6.8457,6.8358,6.8309,6.8309,6.8246,6.8529,6.9072,6.9556,7.0285,7.1717,7.1754,7.2114,7.2595,7.304,7.2685,7.198,7.1413,7.1031,7.0399,7.0583,7.1542,7.3084,7.2807,7.2715,7.2719,7.2609,7.2669,7.2812,7.2465,7.2062,7.2133,7.2377,7.2632,7.1968,7.2208,7.2607,7.2508,7.2524,7.251,7.251,7.2496,7.2496,7.2532,7.2532,7.2532,7.2532,7.2532,7.2532,7.2532,7.2532,7.2532,7.2532,7.2532,7.2532,7.2532,7.2532,7.2679,7.3046,7.3303,7.356,7.4147,7.4368,7.4206,7.3927,7.356,7.3156,7.2789,7.2642,7.3083,7.3891,7.4404,7.5212,7.5579,7.5322,7.4808,7.4625,7.4294,7.4037,7.4221,7.4647,7.4359,7.3683,7.4215,7.4163,7.2867,7.2082,7.235,7.2335,7.2157,7.1601,7.0689,7.1008,7.176,7.2174,7.2554,7.2623,7.2692,7.2692,7.2692,7.2692,7.2692,7.2692,7.2623,7.2554,7.2485,6.8531,6.8531,6.8531,6.8531,6.8531,6.8531,6.8531,6.8531,6.8531,6.8531,6.8481,6.8457,6.8432,6.842,6.8396,6.8593,6.8766,6.9249,6.9818,7.0474,7.0845,7.1301,7.1624,7.2181,7.2206,7.2195,7.1874,7.1551,7.1326,7.1582,7.1944,7.2766,7.2807,7.2927,7.2807,7.2746,7.2945,7.3162,7.2979,7.2717,7.2825,7.2792,7.2821,7.2646,7.2927,7.2913,7.2793,7.2709,7.2681,7.2653,7.2539,7.251,7.2532,7.2532,7.2532,7.2532,7.2532,7.2532,7.2532,7.2532,7.2532,7.2532,7.2532,7.2532,7.2532,7.2532,7.2716,7.312,7.3428,7.367,7.3854,7.3927,7.3913,7.3597,7.3266,7.2899,7.2532,7.2753,7.301,7.3487,7.3927,7.4368,7.4845,7.4698,7.4184,7.3707,7.3193,7.2936,7.3046,7.3311,7.3492,7.3267,7.4336,7.4158,7.2826,7.2364,7.2638,7.2155,7.1695,7.1101,7.0519,7.1256,7.2002,7.2381,7.2692,7.2692,7.2692,7.2692,7.2692,7.2692,7.2692,7.2692,7.2692,7.2623,7.2657,6.8531,6.8531,6.8531,6.8531,6.8531,6.8531,6.8531,6.8531,6.8531,6.8531,6.8531,6.8531,6.8531,6.8531,6.8531,6.8531,6.8605,6.8939,6.941,6.9818,7.0091,7.0598,7.0982,7.1366,7.1465,7.1589,7.1626,7.1575,7.1943,7.1989,7.2166,7.2807,7.2996,7.2941,7.2765,7.2968,7.3064,7.3199,7.3268,7.3268,7.3278,7.3225,7.3131,7.3118,7.3077,7.3064,7.2982,7.2886,7.2793,7.2695,7.2567,7.251,7.2532,7.2532,7.2532,7.2532,7.2532,7.2532,7.2532,7.2532,7.2532,7.2532,7.2532,7.2532,7.2532,7.2532,7.2532,7.2863,7.2899,7.3083,7.345,7.356,7.3634,7.3413,7.3046,7.2679,7.2532,7.2606,7.3046,7.356,7.3854,7.3927,7.4258,7.4221,7.3707,7.3156,7.2606,7.2569,7.2532,7.2532,7.2541,7.2763,7.3817,7.3905,7.2784,7.259,7.2961,7.2288,7.1232,7.0831,7.0539,7.1484,7.2243,7.2519,7.2692,7.2692,7.2692,7.2692,7.2692,7.2692,7.2692,7.2692,7.2726,7.2761,7.2761,6.8531,6.8531,6.8531,6.8531,6.8531,6.8531,6.8531,6.8531,6.8531,6.8531,6.8531,6.8531,6.8531,6.8531,6.8531,6.8531,6.8568,6.8679,6.9051,6.9311,6.9484,6.9756,7.0165,7.0648,7.0834,7.1094,7.1279,7.1701,7.2171,7.2303,7.2646,7.3074,7.3118,7.3064,7.3105,7.3118,7.3118,7.3252,7.3294,7.3294,7.3333,7.3385,7.3331,7.3265,7.3212,7.3172,7.3091,7.2996,7.2927,7.2737,7.261,7.2553,7.2524,7.2524,7.2532,7.2532,7.2532,7.2532,7.2532,7.2532,7.2532,7.2532,7.2496,7.2532,7.2532,7.2532,7.2532,7.2679,7.2679,7.2716,7.3046,7.3193,7.323,7.3413,7.3046,7.2679,7.2642,7.2606,7.3046,7.3575,7.356,7.356,7.3523,7.3538,7.323,7.2716,7.2532,7.2532,7.2532,7.2532,7.2526,7.2614,7.3126,7.2944,7.2482,7.2527,7.2795,7.165,7.0647,7.0485,7.0565,7.1366,7.2071,7.2588,7.2692,7.2692,7.2692,7.2692,7.2692,7.2692,7.2692,7.2726,7.3002,7.3002,7.2899,6.8531,6.8531,6.8531,6.8531,6.8531,6.8531,6.8531,6.8531,6.8493,6.8531,6.8493,6.8493,6.8531,6.8531,6.8531,6.8531,6.8531,6.8531,6.8531,6.8716,6.8902,6.8939,6.9199,6.9794,7.0314,7.0796,7.1329,7.1973,7.2308,7.2752,7.3082,7.3175,7.3124,7.3094,7.305,7.3054,7.3087,7.3217,7.332,7.3346,7.3359,7.3385,7.341,7.3383,7.3383,7.3333,7.3281,7.3212,7.3091,7.2913,7.2681,7.261,7.2567,7.2553,7.251,7.2532,7.2532,7.251,7.251,7.2496,7.2496,7.2524,7.2524,7.2532,7.2532,7.2532,7.2679,7.3046,7.301,7.2753,7.2899,7.2789,7.2826,7.3413,7.345,7.312,7.2936,7.2863,7.2973,7.3083,7.301,7.2973,7.2899,7.2899,7.2863,7.2532,7.2532,7.2532,7.2532,7.2532,7.2532,7.2606,7.2753,7.2628,7.2475,7.218,7.2083,7.0958,7.0273,7.0345,7.0589,7.1118,7.176,7.2485,7.2692,7.2692,7.2692,7.2692,7.2692,7.2692,7.2692,7.2795,7.3106,7.3175,7.3002]}]]